[[{"header":{"parameterUnit":"m.s-1","parameterCategory":1,"la1":31.0,"la2":29.5877,"lo1":-88.7671,"lo2":-86.6584,"dy":0.0162,"dx":0.0185,"nx":115,"ny":88,"refTime":"2023-07-20T12:00:00:Z","depth":0,"parameterNumber":2,"parameterNumberName":"U-component_of_WINDS"},"data":[0.0,0.0,0.0,0.0,0.0,0.0,0.0,0.0,0.0,0.0,0.0,0.0,0.0,0.0,0.0,0.0,0.0,0.0,0.0,0.0,0.0,0.0,0.0,0.0,0.0,0.0,0.0,0.0,0.0,0.0,0.0,0.0,0.0,0.0,0.0,0.0,0.0,0.0,0.0,0.0,0.0,0.0,0.0,0.0,0.0,0.0,0.0,0.0,0.0,0.0,0.0,0.0,0.0,0.0,0.0,0.0,0.0,0.0,0.0,0.0,0.0,0.0,0.0,0.0,0.0,0.0,0.0,0.0,0.0,0.0,0.0,0.0,0.0,0.0,0.0,0.0,0.0,0.0,0.0,0.0,0.0,0.0,0.0,0.0,0.0,0.0,0.0,0.0,0.0,0.0,0.0,0.0,0.0,0.0,0.0,0.0,0.0,0.0,0.0,0.0,0.0,0.0,0.0,0.0,0.0,0.0,0.0,0.0,0.0,0.0,0.0,0.0,0.0,0.0,0.0,0.0,0.0,0.0,0.0,0.0,0.0,0.0,0.0,0.0,0.0,0.0,0.0,0.0,0.0,0.0,0.0,0.0,0.0,0.0,0.0,0.0,0.0,0.0,0.0,0.0,0.0,0.0,0.0,0.0,0.0,0.0,0.0,0.0,0.0,0.0,0.0,0.0,0.0,0.0,0.0,0.0,0.0,0.0,0.0,0.0,0.0,0.0,0.0,0.0,0.0,0.0,0.0,0.0,0.0,0.0,0.0,0.0,0.0,0.0,0.0,0.0,0.0,0.0,0.0,0.0,0.0,0.0,0.0,0.0,0.0,0.0,0.0,0.0,0.0,0.0,0.0,0.0,0.0,0.0,0.0,0.0,0.0,0.0,0.0,0.0,0.0,0.0,0.0,0.0,0.0,0.0,0.0,0.0,0.0,0.0,0.0,0.0,0.0,0.0,0.0,0.0,0.0,0.0,0.0,0.0,0.0,0.0,0.0,0.0,0.0,0.0,0.0,0.0,0.0,0.0,0.0,0.0,0.0,0.0,0.0,0.0,0.0,0.0,0.0,0.0,0.0,0.0,0.0,0.0,0.0,0.0,0.0,0.0,0.0,0.0,0.0,0.0,0.0,0.0,0.0,0.0,0.0,0.0,0.0,0.0,0.0,0.0,0.0,0.0,0.0,0.0,0.0,0.0,0.0,0.0,0.0,0.0,0.0,0.0,0.0,0.0,0.0,0.0,0.0,0.0,0.0,0.0,0.0,0.0,0.0,0.0,0.0,0.0,0.0,0.0,0.0,0.0,0.0,0.0,0.0,0.0,0.0,0.0,0.0,0.0,0.0,0.0,0.0,0.0,0.0,0.0,0.0,0.0,0.0,0.0,0.0,0.0,0.0,0.0,0.0,0.0,0.0,0.0,0.0,0.0,0.0,0.0,0.0,0.0,0.0,0.0,0.0,0.0,0.0,0.0,0.0,0.0,0.0,0.0,0.0,0.0,0.0,0.0,0.0,0.0,0.0,0.0,0.0,0.0,0.0,0.0,0.0,0.0,0.0,0.0,0.0,0.0,0.0,0.0,0.0,0.0,0.0,0.0,0.0,0.0,0.0,0.0,0.0,0.0,0.0,0.0,0.0,0.0,0.0,0.0,0.0,0.0,0.0,0.0,0.0,0.0,0.0,0.0,0.0,0.0,0.0,0.0,0.0,0.0,0.0,0.0,0.0,0.0,0.0,0.0,0.0,0.0,0.0,0.0,0.0,0.0,0.0,0.0,0.0,0.0,0.0,0.0,0.0,0.0,0.0,0.0,0.0,0.0,0.0,0.0,0.0,0.0,0.0,0.0,0.0,0.0,0.0,0.0,0.0,0.0,0.0,0.0,0.0,0.0,0.0,0.0,0.0,0.0,0.0,0.0,0.0,0.0,0.0,0.0,0.0,0.0,0.0,0.0,0.0,0.0,0.0,0.0,0.0,0.0,0.0,0.0,0.0,0.0,0.0,0.0,0.0,0.0,0.0,0.0,0.0,0.0,0.0,0.0,0.0,0.0,0.0,0.0,0.0,0.0,0.0,0.0,0.0,0.0,0.0,0.0,0.0,0.0,0.0,0.0,0.0,0.0,0.0,0.0,0.0,0.0,0.0,0.0,0.0,0.0,0.0,0.0,0.0,0.0,0.0,0.0,0.0,0.0,0.0,0.0,0.0,0.0,0.0,0.0,0.0,0.0,0.0,0.0,0.0,0.0,0.0,0.0,0.0,0.0,0.0,0.0,0.0,0.0,0.0,0.0,0.0,0.0,0.0,0.0,0.0,0.0,0.0,0.0,0.0,0.0,0.0,0.0,0.0,0.0,0.0,0.0,0.0,0.0,0.0,0.0,0.0,0.0,0.0,0.0,0.0,0.0,0.0,0.0,0.0,0.0,0.0,0.0,0.0,0.0,0.0,0.0,0.0,0.0,0.0,0.0,0.0,0.0,0.0,0.0,0.0,0.0,0.0,0.0,0.0,0.0,0.0,0.0,0.0,0.0,0.0,0.0,0.0,0.0,0.0,0.0,0.0,0.0,0.0,0.0,0.0,0.0,0.0,0.0,0.0,0.0,0.0,0.0,0.0,0.0,0.0,0.0,0.0,0.0,0.0,0.0,0.0,0.0,0.0,0.0,0.0,0.0,0.0,0.0,0.0,0.0,0.0,0.0,0.0,0.0,0.0,0.0,0.0,0.0,0.0,0.0,0.0,0.0,0.0,0.0,0.0,0.0,0.0,0.0,0.0,0.0,0.0,0.0,0.0,0.0,0.0,0.0,0.0,0.0,0.0,0.0,0.0,0.0,0.0,0.0,0.0,0.0,0.0,0.0,0.0,0.0,0.0,0.0,0.0,0.0,0.0,0.0,0.0,0.0,0.0,0.0,0.0,0.0,0.0,0.0,0.0,0.0,0.0,0.0,0.0,0.0,0.0,0.0,0.0,0.0,0.0,0.0,0.0,0.0,0.0,0.0,0.0,0.0,0.0,0.0,0.0,0.0,0.0,0.0,0.0,0.0,0.0,0.0,0.0,0.0,0.0,0.0,0.0,0.0,0.0,0.0,0.0,0.0,0.0,0.0,0.0,0.0,0.0,0.0,0.0,0.0,0.0,0.0,0.0,0.0,0.0,0.0,0.0,0.0,0.0,0.0,0.0,0.0,0.0,0.0,0.0,0.0,0.0,0.0,0.0,0.0,0.0,0.0,0.0,0.0,0.0,0.0,0.0,0.0,0.0,0.0,0.0,0.0,0.0,0.0,0.0,0.0,0.0,0.0,0.0,0.0,0.0,0.0,0.0,0.0,0.0,0.0,0.0,0.0,0.0,0.0,0.0,0.0,0.0,0.0,0.0,0.0,0.0,0.0,0.0,0.0,0.0,0.0,0.0,0.0,0.0,0.0,0.0,0.0,0.0,0.0,0.0,0.0,0.0,0.0,0.0,0.0,0.0,0.0,0.0,0.0,0.0,0.0,0.0,0.0,0.0,0.0,0.0,0.0,0.0,0.0,0.0,0.0,0.0,0.0,0.0,0.0,0.0,0.0,0.0,0.0,0.0,0.0,0.0,0.0,0.0,0.0,0.0,0.0,0.0,0.0,0.0,0.0,0.0,0.0,0.0,0.0,0.0,0.0,0.0,0.0,0.0,0.0,0.0,0.0,0.0,0.0,0.0,0.0,0.0,0.0,0.0,0.0,0.0,0.0,0.0,0.0,0.0,0.0,0.0,0.0,0.0,0.0,0.0,0.0,0.0,0.0,0.0,0.0,0.0,0.0,0.0,0.0,0.0,0.0,0.0,0.0,0.0,0.0,0.0,0.0,0.0,0.0,0.0,0.0,0.0,0.0,0.0,0.0,0.0,0.0,0.0,0.0,0.0,0.0,0.0,0.0,0.0,0.0,0.0,0.0,0.0,0.0,0.0,0.0,0.0,0.0,0.0,0.0,0.0,0.0,0.0,0.0,0.0,0.0,0.0,0.0,0.0,0.0,0.0,0.0,0.0,0.0,0.0,0.0,0.0,0.0,0.0,0.0,0.0,0.0,0.0,0.0,0.0,0.0,0.0,0.0,0.0,0.0,0.0,0.0,0.0,0.0,0.0,0.0,0.0,0.0,0.0,0.0,0.0,0.0,0.0,0.0,0.0,0.0,0.0,0.0,0.0,0.0,0.0,0.0,0.0,0.0,0.0,0.0,0.0,0.0,0.0,0.0,0.0,0.0,0.0,0.0,0.0,0.0,0.0,0.0,0.0,0.0,0.0,0.0,0.0,0.0,2.5368,0.0,0.0,0.0,0.0,0.0,0.0,0.0,0.0,0.0,0.0,0.0,0.0,0.0,0.0,0.0,0.0,0.0,0.0,0.0,0.0,0.0,0.0,0.0,0.0,0.0,0.0,0.0,0.0,0.0,0.0,0.0,0.0,0.0,0.0,0.0,0.0,0.0,0.0,0.0,0.0,0.0,0.0,0.0,0.0,0.0,0.0,0.0,0.0,0.0,0.0,0.0,0.0,0.0,0.0,0.0,0.0,0.0,0.0,0.0,0.0,0.0,0.0,0.0,0.0,0.0,0.0,0.0,0.0,0.0,0.0,0.0,0.0,0.0,0.0,0.0,0.0,0.0,0.0,0.0,0.0,0.0,0.0,0.0,0.0,0.0,0.0,0.0,0.0,0.0,0.0,0.0,0.0,0.0,0.0,0.0,0.0,0.0,0.0,0.0,0.0,0.0,0.0,0.0,0.0,0.0,0.0,0.0,0.0,0.0,0.0,2.5471,2.5394,2.5391,2.5352,2.529,0.0,0.0,0.0,0.0,0.0,0.0,0.0,0.0,0.0,0.0,0.0,0.0,0.0,0.0,0.0,0.0,0.0,0.0,0.0,0.0,0.0,0.0,0.0,0.0,0.0,0.0,0.0,0.0,0.0,0.0,0.0,0.0,0.0,0.0,0.0,0.0,0.0,0.0,0.0,0.0,0.0,0.0,0.0,0.0,0.0,0.0,0.0,0.0,0.0,0.0,0.0,0.0,0.0,0.0,0.0,0.0,0.0,0.0,0.0,0.0,0.0,0.0,0.0,0.0,0.0,0.0,0.0,0.0,0.0,0.0,0.0,0.0,0.0,0.0,0.0,0.0,0.0,0.0,0.0,0.0,0.0,0.0,0.0,0.0,0.0,0.0,0.0,0.0,0.0,0.0,0.0,0.0,0.0,0.0,0.0,0.0,0.0,0.0,0.0,0.0,0.0,0.0,0.0,0.0,0.0,0.0,0.0,0.0,0.0,0.0,0.0,0.0,2.5281,2.5245,2.5187,0.0,0.0,0.0,0.0,0.0,0.0,0.0,0.0,0.0,0.0,0.0,0.0,0.0,0.0,0.0,0.0,0.0,0.0,0.0,0.0,0.0,0.0,0.0,0.0,0.0,0.0,0.0,0.0,0.0,0.0,0.0,0.0,0.0,0.0,0.0,0.0,0.0,0.0,0.0,0.0,0.0,0.0,0.0,0.0,0.0,0.0,0.0,0.0,0.0,0.0,0.0,0.0,0.0,0.0,0.0,0.0,0.0,0.0,0.0,0.0,0.0,0.0,0.0,0.0,0.0,0.0,0.0,0.0,0.0,0.0,0.0,0.0,0.0,0.0,0.0,0.0,0.0,0.0,0.0,0.0,0.0,0.0,0.0,0.0,0.0,0.0,0.0,0.0,0.0,0.0,0.0,0.0,0.0,0.0,0.0,0.0,0.0,0.0,0.0,0.0,0.0,0.0,0.0,0.0,0.0,0.0,0.0,0.0,0.0,0.0,2.5293,2.5224,2.5141,0.0,2.4855,0.0,0.0,0.0,0.0,0.0,0.0,0.0,0.0,0.0,0.0,0.0,0.0,0.0,0.0,0.0,0.0,0.0,0.0,0.0,0.0,0.0,0.0,0.0,0.0,0.0,0.0,0.0,0.0,0.0,0.0,0.0,0.0,0.0,0.0,0.0,0.0,0.0,0.0,0.0,0.0,0.0,0.0,0.0,0.0,0.0,0.0,0.0,0.0,0.0,0.0,0.0,0.0,0.0,0.0,0.0,0.0,0.0,0.0,0.0,0.0,0.0,0.0,0.0,0.0,0.0,0.0,0.0,0.0,0.0,0.0,0.0,0.0,0.0,0.0,0.0,0.0,0.0,0.0,0.0,0.0,0.0,0.0,0.0,0.0,0.0,0.0,0.0,0.0,0.0,0.0,0.0,0.0,0.0,0.0,0.0,0.0,0.0,0.0,0.0,0.0,0.0,0.0,0.0,0.0,0.0,0.0,0.0,0.0,0.0,0.0,2.5041,2.5141,2.4955,2.4808,0.0,0.0,0.0,0.0,0.0,0.0,0.0,0.0,0.0,0.0,0.0,0.0,0.0,0.0,0.0,0.0,0.0,0.0,0.0,0.0,0.0,0.0,0.0,0.0,0.0,0.0,0.0,0.0,0.0,0.0,0.0,0.0,0.0,0.0,0.0,0.0,0.0,0.0,0.0,0.0,0.0,0.0,0.0,0.0,0.0,0.0,0.0,0.0,0.0,0.0,0.0,0.0,0.0,0.0,0.0,0.0,0.0,0.0,0.0,0.0,0.0,0.0,0.0,0.0,0.0,0.0,0.0,0.0,0.0,0.0,0.0,0.0,0.0,0.0,0.0,0.0,0.0,0.0,0.0,0.0,0.0,0.0,0.0,0.0,0.0,0.0,0.0,0.0,0.0,0.0,0.0,0.0,0.0,0.0,0.0,0.0,0.0,0.0,0.0,0.0,0.0,0.0,0.0,0.0,0.0,0.0,0.0,0.0,0.0,0.0,2.4769,2.4512,2.4414,2.4444,2.4296,2.395,0.0,0.0,0.0,0.0,0.0,0.0,0.0,0.0,0.0,0.0,0.0,0.0,0.0,0.0,0.0,0.0,0.0,0.0,0.0,0.0,0.0,0.0,0.0,0.0,0.0,0.0,0.0,0.0,0.0,0.0,0.0,0.0,0.0,0.0,0.0,0.0,0.0,0.0,0.0,0.0,0.0,0.0,0.0,0.0,0.0,0.0,0.0,0.0,0.0,0.0,0.0,0.0,0.0,0.0,0.0,0.0,0.0,0.0,0.0,0.0,0.0,0.0,0.0,0.0,0.0,0.0,0.0,0.0,0.0,0.0,0.0,0.0,0.0,0.0,0.0,0.0,0.0,0.0,0.0,0.0,0.0,0.0,0.0,0.0,0.0,0.0,0.0,0.0,0.0,0.0,0.0,0.0,0.0,0.0,0.0,0.0,0.0,0.0,0.0,0.0,0.0,0.0,0.0,0.0,0.0,0.0,0.0,0.0,2.5152,2.4347,2.3526,2.2764,2.3438,2.3394,0.0,0.0,0.0,0.0,0.0,0.0,0.0,0.0,0.0,0.0,0.0,0.0,0.0,0.0,0.0,0.0,0.0,0.0,0.0,0.0,0.0,0.0,0.0,0.0,0.0,0.0,0.0,0.0,0.0,0.0,0.0,0.0,0.0,0.0,0.0,0.0,0.0,0.0,0.0,0.0,0.0,0.0,0.0,0.0,0.0,0.0,0.0,0.0,0.0,0.0,0.0,0.0,0.0,0.0,0.0,0.0,0.0,0.0,0.0,0.0,0.0,0.0,0.0,0.0,0.0,0.0,0.0,0.0,0.0,0.0,0.0,0.0,0.0,0.0,0.0,0.0,0.0,0.0,0.0,0.0,0.0,0.0,0.0,0.0,0.0,0.0,0.0,0.0,0.0,0.0,0.0,0.0,0.0,0.0,0.0,0.0,0.0,0.0,0.0,0.0,0.0,0.0,0.0,0.0,0.0,0.0,0.0,0.0,0.0,2.3584,2.2442,2.1711,2.1417,2.1893,2.1859,0.0,0.0,0.0,0.0,0.0,0.0,0.0,0.0,0.0,0.0,0.0,0.0,0.0,0.0,0.0,0.0,0.0,0.0,0.0,0.0,0.0,0.0,0.0,0.0,0.0,0.0,0.0,0.0,0.0,0.0,0.0,0.0,0.0,0.0,0.0,0.0,0.0,0.0,0.0,0.0,0.0,0.0,0.0,0.0,0.0,0.0,0.0,0.0,0.0,0.0,0.0,0.0,0.0,0.0,0.0,0.0,0.0,0.0,0.0,0.0,0.0,0.0,0.0,0.0,0.0,0.0,0.0,0.0,0.0,0.0,0.0,0.0,0.0,0.0,0.0,0.0,0.0,0.0,0.0,0.0,0.0,0.0,0.0,0.0,0.0,0.0,0.0,0.0,0.0,0.0,0.0,0.0,0.0,0.0,0.0,0.0,0.0,0.0,0.0,0.0,0.0,0.0,0.0,0.0,0.0,0.0,0.0,0.0,0.0,2.1668,0.0,2.0302,1.9846,2.046,2.0572,0.0,0.0,0.0,0.0,0.0,0.0,0.0,0.0,0.0,0.0,0.0,0.0,0.0,0.0,0.0,0.0,0.0,0.0,0.0,0.0,0.0,0.0,0.0,0.0,0.0,0.0,0.0,0.0,0.0,0.0,0.0,0.0,0.0,0.0,0.0,0.0,0.0,0.0,0.0,0.0,0.0,0.0,0.0,0.0,0.0,0.0,0.0,0.0,0.0,0.0,0.0,0.0,0.0,0.0,0.0,0.0,0.0,0.0,0.0,0.0,0.0,0.0,0.0,0.0,0.0,0.0,0.0,0.0,0.0,0.0,0.0,0.0,0.0,0.0,0.0,0.0,0.0,0.0,0.0,0.0,0.0,0.0,0.0,0.0,0.0,0.0,0.0,0.0,0.0,0.0,0.0,0.0,0.0,0.0,0.0,0.0,0.0,0.0,0.0,0.0,0.0,0.0,0.0,0.0,0.0,0.0,0.0,0.0,2.1771,1.9531,1.9877,1.9298,1.7995,1.9271,1.9465,0.0,0.0,0.0,0.0,0.0,0.0,0.0,0.0,0.0,0.0,0.0,0.0,0.0,0.0,0.0,0.0,0.0,0.0,0.0,0.0,0.0,0.0,0.0,0.0,0.0,0.0,0.0,0.0,0.0,0.0,0.0,0.0,0.0,0.0,0.0,0.0,0.0,0.0,0.0,0.0,0.0,0.0,0.0,0.0,0.0,0.0,0.0,0.0,0.0,0.0,0.0,0.0,0.0,0.0,0.0,0.0,0.0,0.0,0.0,0.0,0.0,0.0,0.0,0.0,0.0,0.0,0.0,0.0,0.0,0.0,0.0,0.0,0.0,0.0,0.0,0.0,0.0,0.0,0.0,0.0,0.0,0.0,0.0,0.0,0.0,0.0,0.0,0.0,0.0,0.0,0.0,0.0,0.0,0.0,0.0,0.0,0.0,0.0,0.0,0.0,0.0,0.0,0.0,0.0,0.0,0.0,0.0,0.0,0.0,1.8117,1.7315,1.663,1.6164,1.7111,1.741,0.0,0.0,0.0,0.0,0.0,0.0,0.0,0.0,0.0,0.0,0.0,0.0,0.0,0.0,0.0,0.0,0.0,0.0,0.0,0.0,0.0,0.0,0.0,0.0,0.0,0.0,0.0,0.0,0.0,0.0,0.0,0.0,0.0,0.0,0.0,0.0,0.0,0.0,0.0,0.0,0.0,0.0,0.0,0.0,0.0,0.0,0.0,0.0,0.0,0.0,0.0,0.0,0.0,0.0,0.0,0.0,0.0,0.0,0.0,0.0,0.0,0.0,0.0,0.0,0.0,0.0,0.0,0.0,0.0,0.0,0.0,0.0,0.0,0.0,0.0,0.0,0.0,0.0,0.0,0.0,0.0,0.0,0.0,0.0,0.0,0.0,0.0,0.0,0.0,0.0,0.0,0.0,0.0,0.0,0.0,0.0,0.0,0.0,0.0,0.0,0.0,0.0,0.0,0.0,0.0,0.0,0.0,0.0,0.0,1.6392,1.5737,1.5268,1.4931,1.537,1.5668,1.582,0.0,0.0,0.0,0.0,0.0,0.0,0.0,0.0,0.0,0.0,0.0,0.0,0.0,0.0,0.0,0.0,0.0,0.0,0.0,0.0,0.0,0.0,0.0,0.0,0.0,0.0,0.0,0.0,0.0,0.0,0.0,0.0,0.0,0.0,0.0,0.0,0.0,0.0,0.0,0.0,0.0,0.0,0.0,0.0,0.0,0.0,0.0,0.0,0.0,0.0,0.0,0.0,0.0,0.0,0.0,0.0,0.0,0.0,0.0,0.0,0.0,0.0,0.0,0.0,0.0,0.0,0.0,0.0,0.0,0.0,0.0,0.0,0.0,0.0,0.0,0.0,0.0,0.0,0.0,0.0,0.0,0.0,0.0,0.0,0.0,0.0,0.0,0.0,0.0,0.0,0.0,0.0,0.0,0.0,0.0,0.0,0.0,0.0,0.0,0.0,0.0,0.0,0.0,0.0,0.0,0.0,0.0,0.0,1.4489,1.5078,1.505,1.4403,1.4108,1.4388,0.0,0.0,0.0,0.0,0.0,0.0,0.0,0.0,0.0,0.0,0.0,0.0,0.0,0.0,0.0,0.0,0.0,0.0,0.0,0.0,0.0,0.0,0.0,0.0,0.0,0.0,0.0,0.0,0.0,0.0,0.0,0.0,0.0,0.0,0.0,0.0,0.0,0.0,0.0,0.0,0.0,0.0,0.0,0.0,0.0,0.0,0.0,0.0,0.0,0.0,0.0,0.0,0.0,0.0,0.0,0.0,0.0,0.0,0.0,0.0,0.0,0.0,0.0,0.0,0.0,0.0,0.0,0.0,0.0,0.0,0.0,0.0,0.0,0.0,0.0,0.0,0.0,0.0,0.0,0.0,0.0,0.0,0.0,0.0,0.0,0.0,0.0,0.0,0.0,0.0,0.0,0.0,0.0,0.0,0.0,0.0,0.0,0.0,0.0,0.0,0.0,0.0,0.0,0.0,0.0,0.0,0.0,0.0,0.0,1.3503,1.4346,1.4867,1.4914,1.394,1.4089,0.0,0.0,0.0,0.0,0.0,0.0,0.0,0.0,0.0,0.0,0.0,0.0,0.0,0.0,0.0,0.0,0.0,0.0,0.0,0.0,0.0,0.0,0.0,0.0,0.0,0.0,0.0,0.0,0.0,0.0,0.0,0.0,0.0,0.0,0.0,0.0,0.0,0.0,0.0,0.0,0.0,0.0,0.0,0.0,0.0,0.0,0.0,0.0,0.0,0.0,0.0,0.0,0.0,0.0,0.0,0.0,0.0,0.0,0.0,0.0,0.0,0.0,0.0,0.0,0.0,0.0,0.0,0.0,0.0,0.0,0.0,0.0,0.0,0.0,0.0,0.0,0.0,0.0,0.0,0.0,0.0,0.0,0.0,0.0,0.0,0.0,0.0,0.0,0.0,0.0,0.0,0.0,0.0,0.0,0.0,0.0,0.0,0.0,0.0,0.0,0.0,0.0,0.0,0.0,0.0,0.0,0.0,0.0,1.3681,1.2877,1.3866,1.4686,1.5294,1.4687,1.4712,0.0,0.0,0.0,0.0,0.0,0.0,0.0,0.0,0.0,0.0,0.0,0.0,0.0,0.0,0.0,0.0,0.0,0.0,0.0,0.0,0.0,0.0,0.0,0.0,0.0,0.0,0.0,0.0,0.0,0.0,0.0,0.0,0.0,0.0,0.0,0.0,0.0,0.0,0.0,0.0,0.0,0.0,0.0,0.0,0.0,0.0,0.0,0.0,0.0,0.0,0.0,0.0,0.0,0.0,0.0,0.0,0.0,0.0,0.0,0.0,0.0,0.0,0.0,0.0,0.0,0.0,0.0,0.0,0.0,0.0,0.0,0.0,0.0,0.0,0.0,0.0,0.0,0.0,0.0,0.0,0.0,0.0,0.0,0.0,0.0,0.0,0.0,0.0,0.0,0.0,0.0,0.0,0.0,0.0,0.0,0.0,0.0,0.0,0.0,0.0,0.0,0.0,0.0,0.0,0.0,0.0,0.0,0.0,1.3013,1.2773,1.3736,1.4597,1.5342,1.5685,1.5665,0.0,0.0,0.0,0.0,0.0,0.0,0.0,0.0,0.0,0.0,0.0,0.0,0.0,0.0,0.0,0.0,0.0,0.0,0.0,0.0,0.0,0.0,0.0,0.0,0.0,0.0,0.0,0.0,0.0,0.0,0.0,0.0,0.0,0.0,0.0,0.0,0.0,0.0,0.0,0.0,0.0,0.0,0.0,0.0,0.0,0.0,0.0,0.0,0.0,0.0,0.0,0.0,0.0,0.0,0.0,0.0,0.0,0.0,0.0,0.0,0.0,0.0,0.0,0.0,0.0,0.0,0.0,0.0,0.0,0.0,0.0,0.0,0.0,0.0,0.0,0.0,0.0,0.0,0.0,0.0,0.0,0.0,0.0,0.0,0.0,0.0,0.0,0.0,0.0,0.0,0.0,0.0,0.0,0.0,0.0,0.0,0.0,0.0,0.0,0.0,0.0,0.0,0.0,0.0,0.0,0.0,0.0,0.0,1.2823,1.3252,1.3879,1.4488,1.5088,1.5447,1.5704,0.0,0.0,0.0,0.0,0.0,0.0,0.0,0.0,0.0,0.0,0.0,0.0,0.0,0.0,0.0,0.0,0.0,0.0,0.0,0.0,0.0,0.0,0.0,0.0,0.0,0.0,0.0,0.0,0.0,0.0,0.0,0.0,0.0,0.0,0.0,0.0,0.0,0.0,0.0,0.0,0.0,0.0,0.0,0.0,0.0,0.0,0.0,0.0,1.0723,0.0,0.0,0.0,0.0,0.0,0.0,0.0,0.0,0.0,0.0,0.0,0.0,0.0,0.0,0.0,0.0,0.0,0.0,0.0,0.0,0.0,0.0,0.0,0.0,0.0,0.0,0.0,0.0,0.0,0.0,0.0,0.0,0.0,0.0,0.0,0.0,0.0,0.0,0.0,0.0,0.0,0.0,0.0,0.0,0.0,0.0,0.0,0.0,0.0,0.0,0.0,0.0,0.0,0.0,0.0,0.0,0.0,0.0,0.0,1.2698,1.3318,1.3865,1.4428,1.502,1.5436,1.5648,0.0,0.0,0.0,0.0,0.0,0.0,0.0,0.0,0.0,0.0,0.0,0.0,0.0,0.0,0.0,0.0,0.0,0.0,0.0,0.0,0.0,0.0,0.0,0.0,0.0,0.0,0.0,0.0,0.0,0.0,0.0,0.0,0.0,0.0,0.0,0.0,0.0,0.0,0.0,0.0,0.0,0.0,0.0,0.0,0.0,0.0,0.0,0.0,0.0,0.0,0.0,0.0,0.0,0.0,0.0,0.0,0.0,0.0,0.0,0.0,0.0,0.0,0.0,0.0,0.0,0.0,0.0,0.0,0.0,0.0,0.0,0.0,0.0,0.0,0.0,0.0,0.0,0.0,0.0,0.0,0.0,0.0,0.0,0.0,0.0,0.0,0.0,0.0,0.0,0.0,0.0,0.0,0.0,0.0,0.0,0.0,0.0,0.0,0.0,0.0,0.0,0.0,0.0,0.0,0.0,0.0,0.0,1.3026,1.2612,1.329,1.3901,1.4488,1.5029,1.5543,1.5475,1.4819,0.0,0.0,0.0,0.0,0.0,0.0,0.0,0.0,0.0,0.0,0.0,0.0,0.0,0.0,0.0,0.0,0.0,0.0,0.0,0.0,0.0,0.0,0.0,0.0,0.0,0.0,0.0,0.0,0.0,0.0,0.0,0.0,0.0,0.0,0.0,0.0,0.0,0.0,0.9154,0.854,0.0,0.0,0.0,0.0,0.0,0.0,0.0,0.0,0.8875,0.0,0.0,0.0,0.0,0.0,0.0,0.0,0.0,0.0,0.0,0.0,0.0,0.0,0.0,0.0,0.0,0.0,0.0,0.0,0.0,0.0,0.0,0.0,0.0,0.0,0.0,0.0,0.0,0.0,0.0,0.0,0.0,0.0,0.0,0.0,0.0,0.0,0.0,0.0,0.0,0.0,0.0,0.0,0.0,0.0,0.0,0.0,0.0,0.0,0.0,0.0,0.0,0.0,0.0,0.0,0.0,1.2132,1.1889,1.2446,1.3835,1.4264,1.4656,1.5137,1.5665,1.5432,1.4374,0.0,0.0,0.0,0.0,0.0,0.0,0.0,0.0,0.0,0.0,0.0,0.0,0.0,0.0,0.0,0.0,0.0,0.0,0.0,0.0,0.0,0.0,0.0,0.0,0.0,0.0,0.0,0.0,0.0,0.0,0.0,0.0,0.0,0.0,0.0,0.0,0.0,0.0,0.0,0.7421,0.728,0.0,0.0,0.0,0.0,0.0,0.0,0.0,0.0,0.744,0.0,0.0,0.0,0.0,0.0,0.0,0.0,0.0,0.0,0.0,0.0,0.0,0.0,0.0,0.0,0.0,0.0,0.0,0.0,0.0,0.0,0.0,0.0,0.0,0.0,0.0,0.0,0.0,0.0,0.0,0.0,0.0,0.0,0.0,0.0,0.0,0.0,0.0,0.0,0.0,0.0,0.0,0.0,0.0,0.0,0.0,0.0,0.0,0.0,0.0,0.0,0.0,0.0,0.0,0.0,1.1806,1.2077,1.2838,1.4052,1.4538,1.4961,1.543,1.5908,1.555,0.0,0.0,0.0,0.0,0.0,0.0,0.0,0.0,0.0,0.0,0.0,0.0,0.0,0.0,0.0,0.0,0.0,0.0,0.0,0.0,0.0,0.0,0.0,0.0,0.0,0.0,0.0,0.0,0.0,0.0,0.0,0.0,0.0,0.0,0.0,0.0,0.0,0.0,0.0,0.0,0.616,0.6102,0.6774,0.0,0.0,0.0,0.0,0.0,0.0,0.7099,0.6768,0.0,0.0,0.0,0.0,0.0,0.0,0.0,0.0,0.0,0.0,0.0,0.0,0.0,0.0,0.0,0.0,0.0,0.0,0.0,0.0,0.0,0.0,0.0,0.0,0.0,0.0,0.0,0.0,0.0,0.0,0.0,0.0,0.0,0.0,0.0,0.0,0.0,0.0,0.0,0.0,0.0,0.0,0.0,0.0,0.0,0.0,0.0,0.0,0.0,0.0,0.0,0.0,0.0,0.0,0.0,1.2044,1.2529,1.331,1.4222,1.4734,1.5147,1.5556,1.5825,1.5403,0.0,0.0,0.0,0.0,0.0,0.0,0.0,0.0,0.0,0.0,0.0,0.0,0.0,0.0,0.0,0.0,0.0,0.0,0.0,0.0,0.0,0.0,0.0,0.0,0.0,0.0,0.0,0.0,0.0,0.0,0.0,0.0,0.0,0.0,0.0,0.0,0.0,0.0,0.0,0.0,0.0,0.5191,0.6087,0.6658,0.0,0.0,0.0,0.0,0.6874,0.6495,0.0,0.0,0.0,0.0,0.0,0.0,0.0,0.0,0.0,0.0,0.0,0.0,0.0,0.0,0.0,0.0,0.0,0.0,0.0,0.0,0.0,0.0,0.0,0.0,0.0,0.0,0.0,0.0,0.0,0.0,0.0,0.0,0.0,0.0,0.0,0.0,0.0,0.0,0.0,0.0,0.0,0.0,0.0,0.0,0.0,0.0,0.0,0.0,0.0,0.0,0.0,0.0,0.0,0.0,0.0,0.0,1.2159,1.2586,1.336,1.4392,1.4656,1.4834,1.5079,1.4849,1.4437,0.0,0.0,0.0,0.0,0.0,0.0,0.0,0.0,0.0,0.0,0.0,0.0,0.0,0.0,0.0,0.0,0.0,0.0,0.0,0.0,0.0,0.0,0.0,0.0,0.0,0.0,0.0,0.0,0.0,0.0,0.0,0.0,0.0,0.0,0.0,0.0,0.0,0.0,0.0,0.0,0.0,0.4969,0.525,0.6065,0.6397,0.0,0.0,0.6258,0.5596,0.5355,0.0,0.0,0.0,0.0,0.0,0.0,0.0,0.0,0.0,0.0,0.0,0.0,0.0,0.0,0.0,0.0,0.0,0.0,0.0,0.0,0.0,0.0,0.0,0.0,0.0,0.0,0.0,0.0,0.0,0.0,0.0,0.0,0.0,0.0,0.0,0.0,0.0,0.0,0.0,0.0,0.0,0.0,0.0,0.0,0.0,0.0,0.0,0.0,0.0,0.0,0.0,0.0,0.0,0.0,0.0,1.2303,1.2239,1.2847,1.3527,1.4112,1.4222,1.4401,1.4725,1.4525,1.4014,0.0,0.0,0.0,0.0,0.0,0.0,0.0,0.0,0.0,0.0,0.0,0.0,0.0,0.0,0.0,0.0,0.0,0.0,0.0,0.0,0.0,0.0,0.0,0.0,0.0,0.0,0.0,0.0,0.0,0.0,0.0,0.0,0.0,0.0,0.0,0.0,0.0,0.0,0.0,0.0,0.0,0.0,0.454,0.5206,0.0,0.0,0.0,0.5295,0.5085,0.0,0.0,0.0,0.0,0.0,0.0,0.0,0.0,0.0,0.0,0.0,0.0,0.0,0.0,0.0,0.0,0.0,0.0,0.0,0.0,0.0,0.0,0.0,0.0,0.0,0.0,0.0,0.0,0.0,0.0,0.0,0.0,0.0,0.0,0.0,0.0,0.0,0.0,0.0,0.0,0.0,0.0,0.0,0.0,0.0,0.0,0.0,0.0,0.0,0.0,0.0,0.0,0.0,0.0,0.0,0.0,0.0,1.196,1.278,1.3329,1.358,1.3803,1.4043,1.4213,1.4232,0.0,0.0,0.0,0.0,0.0,0.0,0.0,0.0,0.0,0.0,0.0,0.0,0.0,0.0,0.0,0.0,0.0,0.0,0.0,0.0,0.0,0.0,0.0,0.0,0.0,0.0,0.0,0.4563,0.0,0.0,0.0,0.0,0.0,0.0,0.0,0.0,0.0,0.0,0.0,0.0,0.0,0.0,0.3503,0.3939,0.4482,0.4854,0.0,0.0,0.4763,0.475,0.4581,0.4394,0.0,0.0,0.0,0.0,0.0,0.0,0.0,0.0,0.0,0.0,0.0,0.0,0.0,0.0,0.0,0.0,0.0,0.0,0.0,0.0,0.0,0.0,0.0,0.0,0.0,0.0,0.0,0.0,0.0,0.0,0.0,0.0,0.0,0.0,0.0,0.0,0.0,0.0,0.0,0.0,0.0,0.0,0.0,0.0,0.0,0.0,0.0,0.0,0.0,0.0,0.0,0.0,0.0,0.0,0.0,1.1187,1.2067,1.272,1.307,1.3571,1.37,1.3563,1.3767,1.3372,0.0,0.0,0.0,0.0,0.0,0.0,0.0,0.0,0.0,0.0,0.0,0.0,0.0,0.0,0.0,0.0,0.0,0.0,0.0,0.0,0.0,0.0,0.0,0.0,0.0,0.0,0.0,0.0,0.0,0.0,0.0,0.0,0.0,0.0,0.0,0.0,0.0,0.0,0.0,0.0,0.0,0.351,0.3574,0.4235,0.4645,0.0,0.0,0.4894,0.446,0.4197,0.4007,0.391,0.0,0.0,0.0,0.0,0.0,0.0,0.0,0.0,0.0,0.0,0.0,0.0,0.0,0.0,0.0,0.0,0.0,0.0,0.0,0.0,0.0,0.0,0.0,0.0,0.0,0.0,0.0,0.0,0.0,0.0,0.0,0.0,0.0,0.0,0.0,0.0,0.0,0.0,0.0,0.0,0.0,0.0,0.0,0.0,0.0,0.0,0.0,0.0,0.0,0.0,0.0,0.0,0.0,1.0357,1.122,1.1887,1.2351,1.2658,1.2903,1.3147,1.3511,1.357,1.3002,0.0,0.0,0.0,0.0,0.0,0.0,0.0,0.0,0.0,0.0,0.0,0.0,0.0,0.0,0.0,0.0,0.0,0.0,0.0,0.0,0.0,0.0,0.0,0.0,0.0,0.0,0.0,0.0,0.3397,0.3166,0.2836,0.0,0.0,0.0,0.0,0.0,0.0,0.0,0.0,0.0,0.0,0.3534,0.3726,0.3919,0.0,0.0,0.3948,0.3846,0.3763,0.353,0.3272,0.3142,0.2513,0.0,0.0,0.0,0.0,0.0,0.0,0.0,0.0,0.0,0.0,0.0,0.0,0.0,0.0,0.0,0.0,0.0,0.0,0.0,0.0,0.0,0.0,0.0,0.0,0.0,0.0,0.0,0.0,0.0,0.0,0.0,0.0,0.0,0.0,0.0,0.0,0.0,0.0,0.0,0.0,0.0,0.0,0.0,0.0,0.0,0.0,0.0,0.0,0.0,0.0,0.0,0.0,0.9902,1.0815,1.1502,1.207,1.2453,1.2743,1.3105,1.3659,1.3857,1.328,0.0,0.0,0.0,0.0,0.0,0.0,0.0,0.0,0.0,0.0,0.0,0.0,0.0,0.0,0.0,0.0,0.0,0.0,0.0,0.0,0.0,0.0,0.0,0.0,0.0,0.0,0.0,0.0,0.3442,0.3131,0.2888,0.0,0.0,0.0,0.0,0.0,0.0,0.0,0.0,0.0,0.0,0.3633,0.3801,0.3751,0.3816,0.4066,0.3532,0.3063,0.3087,0.2822,0.2442,0.2161,0.0,0.0,0.0,0.0,0.0,0.0,0.0,0.0,0.0,0.0,0.0,0.0,0.0,0.0,0.0,0.0,0.0,0.0,0.0,0.0,0.0,0.0,0.0,0.0,0.0,0.0,0.0,0.0,0.0,0.0,1.4652,0.0,0.0,0.0,0.0,0.0,0.0,0.0,0.0,0.0,0.0,0.0,0.0,0.0,0.0,0.0,0.0,0.0,0.0,0.0,0.0,0.0,0.0,0.9706,0.9758,1.0982,1.1833,1.2382,1.3197,1.3743,1.4164,1.482,1.4362,1.2613,0.0,0.0,0.0,0.0,0.0,0.0,0.0,0.0,0.0,0.0,0.0,0.0,0.0,0.0,0.0,0.0,0.0,0.0,0.0,0.0,0.0,0.0,0.0,0.0,0.0,0.0,0.3386,0.335,0.3236,0.0,0.0,0.0,0.0,0.0,0.0,0.0,0.0,0.0,0.0,0.3722,0.3814,0.3709,0.3947,0.4086,0.4086,0.344,0.2866,0.2642,0.2159,0.1665,0.0,0.0,0.0,0.0,0.0,0.0,0.0,0.0,0.0,0.0,0.0,0.0,0.0,0.0,0.0,0.0,0.0,0.0,0.0,0.0,0.0,0.0,0.0,0.0,0.0,0.0,0.0,1.5764,1.5567,0.0,0.0,0.0,0.0,0.0,0.0,0.0,0.0,0.0,0.0,0.0,1.1801,1.1146,0.0,0.0,0.0,0.0,0.0,0.0,0.0,0.0,0.0,0.0,0.0,0.0,1.0613,1.0545,1.1546,1.2364,1.2983,1.3408,1.3983,1.4863,1.4584,1.3745,1.223,0.0,0.0,0.0,0.0,0.0,0.0,0.0,0.0,0.0,0.0,0.0,0.0,0.0,0.0,0.0,0.0,0.0,0.0,0.0,0.0,0.0,0.0,0.0,0.0,0.0,0.1815,0.0,0.0,0.0,0.0,0.0,0.0,0.0,0.0,0.0,0.0,0.0,0.2507,0.3401,0.3666,0.374,0.3381,0.3816,0.4095,0.0,0.0,0.0,0.0,0.0,0.0,0.0,0.0,0.0,0.0,0.0,0.0,0.0,0.0,0.0356,0.0291,0.0412,0.0539,0.0419,0.0,0.0,0.0,0.0,0.0,0.0,0.0,0.0,0.0,0.0,0.0,0.0,0.0,0.0,1.5761,0.0,1.4552,0.0,0.0,0.0,0.0,0.0,0.0,0.0,0.0,1.2773,1.2859,1.2668,1.2022,1.2154,0.0,1.2001,1.1129,0.0,0.0,0.0,0.0,0.0,0.0,0.0,0.0,1.1315,1.1153,1.2131,1.2966,1.3585,1.3966,1.4562,1.5329,1.4494,1.3415,1.2119,1.1223,1.0318,0.0,0.0,0.0,0.0,0.0,0.0,0.0,0.0,0.0,0.0,0.0,0.0,0.0,0.0,0.0,0.0,0.0,0.0,0.0,0.0,0.0,0.0,0.0,0.1064,0.0,0.0,0.0,0.0,0.0,0.0,0.0,0.0,0.0,0.2118,0.179,0.1881,0.2774,0.332,0.3544,0.3515,0.0,0.0,0.0,0.0,0.0,0.0,0.0,0.0939,0.093,0.1055,0.107,0.0969,0.0368,-0.0062,-0.0062,0.0,0.0,-0.0301,-0.0061,0.0123,-0.0062,-0.0369,-0.0554,-0.037,-0.074,-0.1172,0.0,0.0,0.0,0.0,0.0,0.0,0.0,0.0,1.633,1.5904,0.0,1.5217,0.0,0.0,0.0,0.0,0.0,1.314,0.0,0.0,1.4405,1.4391,1.3344,1.3584,1.3498,1.2796,1.2241,1.1722,1.1346,1.2026,0.0,0.0,0.0,0.0,0.0,0.0,1.1825,1.1522,1.2661,1.3638,1.4226,1.4874,1.5346,1.5709,1.4625,1.3513,1.2325,1.1269,1.0353,0.9523,0.8077,0.0,0.0,0.0,0.0,0.0,0.0,0.0,0.0,0.0,0.0,0.0,0.0,0.0,0.0,0.0,0.0,0.0,0.0,0.0,0.0,0.042,0.0,0.0,0.0,0.0,0.0,0.0,0.0,0.0,0.0,0.0,0.1117,0.1148,0.1417,0.1783,0.0,0.0,0.0,0.0,0.2224,0.2904,0.1802,0.0958,0.1018,0.0927,0.0954,0.1044,0.0,0.0,0.1096,0.0315,-0.0372,-0.0684,-0.0829,-0.0768,-0.0125,-0.0,-0.0124,-0.0557,-0.0682,-0.0804,-0.1174,-0.1309,-0.1495,1.8936,0.0,0.0,0.0,0.0,1.7376,1.7502,1.7559,1.6951,1.6655,1.6495,1.531,0.0,0.0,0.0,0.0,0.0,0.0,1.3705,1.3475,1.3797,1.3644,1.3022,1.2645,1.2744,1.3241,1.281,1.2824,1.34,1.3254,1.2394,1.0802,0.0,0.0,0.0,0.0,1.238,1.2458,1.3404,1.404,1.4513,1.5067,1.5213,1.4705,1.3897,1.2799,1.1477,1.1187,1.0313,0.8817,0.8293,0.0,0.0,0.0,0.0,0.0,0.0,0.0,0.0,0.0,0.0,0.0,0.0,0.0,0.0,0.0,0.0,0.0,0.0,0.0,-0.051,-0.0,0.0248,0.0,0.0,0.0,0.0,0.0,0.0,0.0,0.0,0.0,0.2025,0.1721,0.1612,0.0,0.0,0.2896,0.2507,0.239,0.2383,0.24,0.1921,0.0,0.2037,0.1655,0.1403,0.1724,0.1896,0.1882,0.1522,0.0805,0.0204,-0.0139,-0.0701,-0.1125,-0.1184,-0.1011,-0.0986,-0.1115,-0.1444,-0.1641,-0.1445,-0.1667,-0.2032,1.9355,1.8986,1.7727,1.7213,1.7355,1.7579,1.7716,1.7783,1.7725,1.73,1.6642,1.6092,1.5507,1.4797,1.4072,0.0,0.0,0.0,1.401,1.3913,1.3786,1.3443,1.2907,1.2618,1.2699,1.302,1.267,1.2841,1.3462,1.2977,1.2193,1.1096,0.0,0.0,1.171,1.2524,1.2957,1.3145,1.3859,1.4474,1.4799,1.5117,1.4768,1.376,1.3397,1.2512,1.1186,1.0807,0.9985,0.8584,0.813,0.749,0.0,0.0,0.0,0.0,0.0,0.0,0.0,0.0,0.0,0.0,0.0,0.1456,0.0977,0.0,0.0,0.0,-0.0,-0.0067,-0.0197,-0.0064,0.0,0.0,0.0,0.0,0.0,0.0,0.0,0.0236,0.1668,0.2528,0.2213,0.2027,0.1926,0.1871,0.2408,0.2694,0.2182,0.0,0.2343,0.2106,0.1916,0.1926,0.222,0.2019,0.2019,0.2375,0.1876,0.1565,0.1522,0.0633,-0.0215,-0.0435,-0.0874,-0.1385,-0.1677,-0.1634,-0.1599,-0.1668,-0.2017,-0.2082,-0.179,-0.2033,-0.2288,1.9885,1.9429,1.8232,1.7876,1.8088,1.8187,1.8301,1.8487,1.8568,1.7897,1.6916,1.7185,1.6365,1.4582,1.4569,0.0,1.5006,1.4251,1.4126,1.4529,1.4118,1.3514,1.2756,1.31,1.2872,1.2077,1.2003,1.2003,1.2211,1.1886,1.1877,1.2191,1.1713,1.1776,1.2255,1.2979,1.3422,1.3585,1.4167,1.472,1.5125,1.4903,1.4186,1.2973,1.3046,1.2452,1.1031,1.0276,0.9523,0.8613,0.7608,0.6985,0.6869,0.0,0.0,0.0,0.0,0.0,0.0,0.0,0.0,0.0,0.0,0.0,0.0,0.0,0.0,0.0,-0.0,0.0,0.0068,0.013,0.0,0.0,0.0,0.1145,0.0671,0.0675,0.0666,0.0641,0.0,0.0,0.1816,0.2125,0.217,0.1971,0.2277,0.2558,0.256,0.2261,0.208,0.1893,0.1825,0.1693,0.1833,0.2207,0.2603,0.2947,0.1748,0.1016,0.1164,0.0073,-0.095,-0.1029,-0.1248,-0.147,-0.1689,-0.1838,-0.2054,-0.2202,-0.2265,-0.232,-0.2286,-0.2309,-0.2279,2.0816,2.068,1.877,1.8013,1.8163,1.8995,1.9344,1.9315,1.8594,1.8217,1.8093,1.6685,1.5557,1.4611,1.4894,1.473,1.4261,1.4393,1.4205,1.3798,1.3667,1.2832,1.1531,1.1668,1.1248,1.0565,1.1031,1.1335,1.1403,1.2011,1.2257,1.1964,1.2351,1.2337,1.1911,1.202,1.2439,1.3232,1.3663,1.4239,1.4958,1.441,1.3753,1.3171,1.2592,1.1626,1.0276,0.9965,0.9216,0.7859,0.7555,0.7182,0.666,0.612,0.0,0.0,0.0,0.0,0.0,0.0,0.0,0.0,0.0,0.1147,0.1254,0.0,0.0697,0.0,-0.0,0.0287,0.0883,0.1015,0.0,0.0,0.1079,0.1263,0.1145,0.1097,0.1167,0.1135,0.1567,0.1769,0.1415,0.1823,0.1944,0.1468,0.1829,0.21,0.1952,0.1583,0.1327,0.1394,0.1626,0.1859,0.2145,0.28,0.3258,0.335,0.2478,0.1905,0.209,0.0749,-0.0377,-0.0307,-0.0848,-0.1313,-0.162,-0.1777,-0.2006,-0.2155,-0.2248,-0.2332,-0.2397,-0.2364,-0.2416,2.1425,2.1344,2.0086,1.9298,1.8826,1.8723,1.8973,1.9355,1.894,1.8371,1.7626,1.6094,1.5172,1.4653,1.4869,1.4681,1.4261,1.4157,1.3665,1.2938,1.2579,1.1761,1.0576,1.0576,1.0426,1.0201,1.0588,1.0887,1.1111,1.1632,1.1846,1.1675,1.1908,1.1839,1.145,1.12,1.1653,1.2794,1.3433,1.3789,1.3867,1.3615,1.3114,1.2196,1.169,1.0855,0.9774,0.9189,0.8416,0.7503,0.7077,0.6706,0.631,0.592,0.5531,0.0,0.0,0.0,0.0,0.0,0.0,0.0,0.0,0.0,0.0,0.0,0.07,-0.0,-0.0,0.0221,0.067,0.1028,0.1163,0.0943,0.1135,0.134,0.13,0.1319,0.1323,0.1306,0.1611,0.1724,0.1327,0.1687,0.1891,0.1535,0.193,0.2094,0.1808,0.161,0.1549,0.1699,0.2093,0.2488,0.2936,0.3013,0.3092,0.294,0.2033,0.121,0.1302,0.0231,-0.0618,-0.0625,-0.0942,-0.1336,-0.1573,-0.1651,-0.1886,-0.2112,-0.2152,-0.2192,-0.2413,-0.2437,-0.2473,2.1919,2.1781,2.1539,2.0911,1.9923,1.8473,1.8208,1.8852,1.9397,1.8394,1.6398,1.5659,1.5038,1.453,1.4537,1.4466,1.4394,1.368,1.3018,1.2345,1.1626,1.0875,1.0045,1.0051,1.0126,1.0288,1.0363,1.0588,1.0962,1.1037,1.123,1.1304,1.1126,1.1,1.0889,1.0477,1.092,1.2305,1.3227,1.3256,1.2462,1.2776,1.2191,1.0735,1.0648,1.022,0.9285,0.8221,0.7512,0.7256,0.6605,0.6168,0.6007,0.5706,0.5301,0.0,0.4392,0.0,0.0,0.0,0.0,0.0,0.0,0.0,0.0,0.056,0.0355,-0.0,-0.0,-0.0,0.0074,0.0793,0.1232,0.1285,0.1343,0.135,0.1327,0.1336,0.1336,0.1336,0.1335,0.1414,0.1414,0.1726,0.1959,0.1956,0.2262,0.2331,0.2111,0.2029,0.2105,0.251,0.2746,0.2885,0.3279,0.2817,0.2347,0.2192,0.1171,-0.0,-0.0,-0.0627,-0.1257,-0.1258,-0.1257,-0.1336,-0.1572,-0.1573,-0.1729,-0.2041,-0.1958,-0.2035,-0.2345,-0.2423,-0.2431,2.2658,2.2443,2.1877,2.1686,2.1577,2.0183,1.8934,1.7874,1.8726,1.7726,1.5515,1.5904,1.5396,1.4194,1.4201,1.3833,1.3258,1.3039,1.2966,1.2746,1.2599,1.1848,1.0657,1.0657,1.0056,0.9155,0.969,1.0073,1.0143,1.0962,1.1107,1.0688,1.13,1.1152,1.0277,0.0,0.0,0.0,1.2379,1.2502,1.1764,1.1647,1.0945,0.961,1.0471,0.0,0.8096,0.7767,0.7321,0.6609,0.6482,0.0,0.0,0.0,0.0,0.0,0.0,0.0,0.0,0.0,0.0,0.0,0.1544,0.1489,0.0907,0.0421,0.0072,-0.0,-0.0,0.0147,0.0463,0.0617,0.085,0.1246,0.1321,0.1323,0.1335,0.1336,0.1336,0.1336,0.157,0.1803,0.1803,0.2117,0.2353,0.2353,0.2431,0.2588,0.2824,0.2588,0.2431,0.251,0.2431,0.2352,0.2668,0.2117,0.1488,0.141,0.0705,-0.0,-0.0,-0.0706,-0.1258,-0.1336,-0.1336,-0.1336,-0.1336,-0.1493,-0.1572,-0.1728,-0.1807,-0.1964,-0.2196,-0.2273,-0.2273,2.2836,0.0,2.2243,2.1659,0.0,1.9673,1.8565,1.7785,1.8165,1.7051,1.4898,1.5138,1.4617,1.3484,1.3477,1.3258,1.29,1.29,1.2673,1.2305,1.2305,1.1552,1.0207,1.0201,0.976,0.9013,0.9397,0.9771,1.0067,1.0519,1.0683,1.0497,1.0719,1.0509,0.9887,0.9592,0.981,1.0626,1.1741,1.2123,1.1746,1.1348,1.0647,0.9655,0.0,0.0,0.0,0.0,0.0,0.0,0.0,0.0,0.0,0.0,0.0,0.6119,0.6116,0.5487,0.4107,0.4325,0.3949,0.2536,0.1889,0.1302,0.0858,0.0513,0.03,0.0307,0.0529,0.0606,0.0626,0.0786,0.1022,0.1258,0.1336,0.1336,0.1336,0.1336,0.1414,0.157,0.1725,0.1959,0.2195,0.251,0.2746,0.2824,0.2981,0.3215,0.3374,0.3059,0.2824,0.3057,0.2588,0.2273,0.2352,0.141,0.0627,0.0548,-0.0078,-0.0549,-0.0628,-0.1021,-0.1336,-0.1336,-0.1336,-0.1336,-0.1336,-0.1415,-0.1493,-0.1573,-0.1573,-0.165,-0.1884,-0.1962,-0.2042,2.2775,2.2859,2.2407,2.1534,2.0387,1.8944,1.8198,1.8001,0.0,0.0,0.0,1.445,1.384,1.3046,1.3046,1.298,1.2973,1.2973,1.2673,1.2003,1.1929,1.118,0.997,0.99,0.9679,0.9397,0.9468,0.9695,1.0212,1.0218,1.0293,1.0282,1.0099,0.9718,0.9205,0.975,1.0007,0.9955,1.0912,1.1447,1.1535,1.0876,1.0188,0.9485,0.8741,0.7893,0.7016,0.6548,0.6284,0.6218,0.6214,0.6242,0.6368,0.6372,0.6265,0.6124,0.6331,0.5894,0.4764,0.4927,0.4638,0.3667,0.2348,0.131,0.0815,0.0767,0.0707,0.0629,0.1022,0.11,0.0786,0.11,0.1336,0.1336,0.1336,0.1336,0.1336,0.1414,0.157,0.1882,0.2038,0.2195,0.2586,0.2981,0.3219,0.3295,0.353,0.3841,0.3765,0.3452,0.3374,0.3606,0.2823,0.2195,0.2038,0.0862,-0.0157,-0.0235,-0.0785,-0.1257,-0.1336,-0.1336,-0.1336,-0.1336,-0.1336,-0.1336,-0.1336,-0.1336,-0.1336,-0.1493,-0.1415,-0.1336,-0.1493,-0.1651,-0.1808,2.2555,2.2321,2.2214,2.2103,2.1823,2.0435,1.9137,1.7997,1.793,1.6835,1.4993,1.5288,1.4681,1.3419,1.3419,1.3419,1.3419,1.3419,1.3346,1.32,1.268,1.2077,1.1409,1.0887,1.0363,0.9846,0.9992,1.0143,1.0218,1.0368,1.0137,0.9604,1.0078,0.9372,0.758,0.8746,0.919,0.866,0.9537,0.9997,0.9985,0.8899,0.8067,0.7551,0.7915,0.7617,0.6552,0.7047,0.6977,0.642,0.6354,0.6487,0.6855,0.6875,0.7013,0.7226,0.7254,0.6821,0.5784,0.5711,0.4955,0.3125,0.2586,0.2033,0.1324,0.1173,0.1022,0.0707,0.1022,0.1258,0.1179,0.1257,0.1336,0.1336,0.1336,0.1336,0.1335,0.1648,0.1882,0.196,0.251,0.2902,0.3056,0.337,0.3684,0.3684,0.3765,0.3841,0.3763,0.3763,0.3684,0.3606,0.243,0.1567,0.1411,-0.0,-0.0864,-0.1099,-0.1178,-0.1336,-0.1336,-0.1336,-0.1336,-0.1336,-0.1336,-0.1336,-0.1336,-0.1336,-0.1336,-0.1336,-0.1336,-0.1336,-0.1336,-0.1415,-0.1493,2.2342,2.2162,2.2186,2.2182,2.2082,2.0381,1.9213,1.8356,1.8114,1.7026,1.5421,1.5155,1.4545,1.3564,1.3492,1.3492,1.3492,1.3702,1.3557,1.3193,1.3105,1.2512,1.1552,1.126,1.0812,1.0293,1.0293,1.0293,1.0067,1.0148,0.9841,0.9296,0.9241,0.8537,0.7363,0.8404,0.8864,0.8544,0.9304,0.979,1.0086,0.8944,0.8345,0.8269,0.7999,0.7575,0.6997,0.7301,0.7368,0.6997,0.6997,0.707,0.7228,0.724,0.7313,0.7468,0.748,0.7249,0.663,0.6163,0.5154,0.3522,0.3292,0.2744,0.1726,0.1414,0.1179,0.1022,0.1179,0.1413,0.157,0.1648,0.1727,0.1962,0.1963,0.1962,0.1962,0.2119,0.2273,0.251,0.2824,0.3217,0.3448,0.3682,0.3841,0.3841,0.3841,0.3841,0.3841,0.3841,0.3841,0.3684,0.2744,0.1881,0.1332,0.0235,-0.0706,-0.1178,-0.1336,-0.1336,-0.1336,-0.1336,-0.1336,-0.1336,-0.1336,-0.1336,-0.1336,-0.1336,-0.1336,-0.1336,-0.1336,-0.1336,-0.1336,-0.1336,-0.1336,2.2251,2.2065,2.2134,2.2105,2.1962,2.0326,1.9275,1.8711,1.8202,1.7251,1.6045,1.5275,1.4637,1.4073,1.3999,1.4007,1.4081,1.4359,1.4065,1.3326,1.346,1.2858,1.1746,1.1526,1.1141,1.0602,1.0602,1.0297,0.9848,0.9848,0.9694,0.9227,0.8444,0.7974,0.797,0.844,0.8763,0.8913,0.9301,0.9837,1.0297,0.9304,0.8841,0.9068,0.8056,0.752,0.7602,0.7606,0.7602,0.7602,0.7602,0.7606,0.7602,0.7602,0.7508,0.7394,0.7308,0.7215,0.6795,0.6173,0.524,0.3997,0.3841,0.3292,0.2195,0.1727,0.1492,0.1492,0.1492,0.1727,0.196,0.2038,0.2195,0.2431,0.251,0.2431,0.251,0.2588,0.2746,0.3061,0.3219,0.3374,0.3684,0.3841,0.3841,0.3841,0.3841,0.3841,0.3841,0.3841,0.3841,0.3684,0.3059,0.2195,0.141,0.0548,-0.0314,-0.1178,-0.1336,-0.1336,-0.1336,-0.1336,-0.1336,-0.1336,-0.1336,-0.1336,-0.1336,-0.1336,-0.1336,-0.1336,-0.1336,-0.1336,-0.1336,-0.1336,-0.1336,2.2659,2.2082,2.2036,2.194,2.1718,2.0873,1.9885,1.895,1.8276,1.7658,1.7015,1.6397,1.5867,1.5594,1.5578,1.5478,1.5562,1.5586,1.5096,1.4234,1.3698,1.3165,1.2378,1.1921,1.1284,1.0696,1.0759,1.0338,0.9541,0.9732,0.959,0.9203,0.8217,0.8294,0.9055,0.8896,0.8896,0.9304,0.9361,0.959,0.9903,0.9104,0.8706,0.8706,0.7939,0.7694,0.7943,0.7963,0.7963,0.7967,0.7955,0.7959,0.7955,0.7959,0.7647,0.6936,0.6842,0.6544,0.5799,0.5473,0.5015,0.4146,0.3927,0.3458,0.2591,0.2433,0.2275,0.2038,0.2196,0.2354,0.2431,0.2431,0.251,0.2588,0.2588,0.251,0.2588,0.2824,0.3061,0.3061,0.353,0.3763,0.3843,0.3841,0.3841,0.3841,0.3841,0.3841,0.3919,0.3999,0.4079,0.3921,0.3215,0.2273,0.1488,0.0548,-0.0314,-0.11,-0.1336,-0.1336,-0.1336,-0.1336,-0.1336,-0.1336,-0.1336,-0.1336,-0.1336,-0.1336,-0.1336,-0.1336,-0.1336,-0.1336,-0.1336,-0.1336,-0.1336,2.2271,2.1974,2.1958,2.1919,2.1766,2.1459,2.0577,1.9335,1.8935,1.8407,1.7874,1.742,1.6785,1.5996,1.5843,1.5843,1.598,1.5682,1.5142,1.4428,1.3959,1.3022,1.184,1.1525,1.095,1.0217,1.0217,0.9892,0.9241,0.9164,0.8919,0.8587,0.8587,0.9096,0.9702,0.9469,0.9438,0.9521,0.9123,0.9092,0.9395,0.928,0.9246,0.9318,0.8384,0.7812,0.7926,0.7667,0.7424,0.7191,0.7022,0.7019,0.7019,0.6819,0.6629,0.6283,0.6273,0.6003,0.53,0.5135,0.4811,0.4082,0.3924,0.3658,0.3044,0.3163,0.3137,0.2668,0.2588,0.2588,0.2826,0.2824,0.2982,0.3215,0.3292,0.3292,0.3294,0.3532,0.3688,0.3686,0.3997,0.4155,0.4153,0.4077,0.3999,0.4075,0.4077,0.401,0.4157,0.4231,0.4233,0.4157,0.3765,0.2979,0.1724,0.0627,-0.0235,-0.1021,-0.1336,-0.1336,-0.1336,-0.1336,-0.1336,-0.1336,-0.1336,-0.1336,-0.1336,-0.1336,-0.1336,-0.1336,-0.1336,-0.1336,-0.1336,-0.1336,-0.1336,2.2435,2.2174,2.1839,2.1603,2.1456,2.1686,2.0954,1.959,1.9164,1.8788,1.8603,1.8388,1.7678,1.6718,1.6599,1.6591,1.6419,1.6038,1.541,1.4699,1.4301,1.334,1.1887,1.1811,1.1232,1.0321,1.0254,0.9912,0.9248,0.9086,0.891,0.8726,0.9146,0.9746,1.0289,1.0085,0.9814,0.9743,0.9183,0.889,0.9022,0.9141,0.9322,0.9654,0.9239,0.8655,0.8154,0.721,0.6709,0.6733,0.6564,0.6561,0.6476,0.6361,0.6096,0.584,0.5633,0.528,0.4863,0.478,0.4615,0.4285,0.4118,0.4006,0.3848,0.3912,0.3953,0.3603,0.3278,0.3273,0.3299,0.3376,0.353,0.3921,0.3997,0.3919,0.3997,0.4095,0.42,0.4274,0.4314,0.4472,0.4472,0.4325,0.4332,0.4407,0.4325,0.4241,0.4316,0.4402,0.4402,0.4241,0.4004,0.3021,0.1574,0.0862,-0.0078,-0.0942,-0.1336,-0.1336,-0.1336,-0.1336,-0.1336,-0.1336,-0.1336,-0.1336,-0.1336,-0.1336,-0.134,-0.1339,-0.1343,-0.135,-0.1274,-0.1275,-0.1283,2.3621,2.2787,2.1611,2.0933,2.0695,2.143,2.0947,1.959,1.8583,1.8452,1.8984,1.9038,1.8683,1.7865,1.8152,1.8043,1.7365,1.7179,1.6343,1.5202,1.4968,1.442,1.336,1.3275,1.248,1.1059,1.0968,1.0646,0.9981,0.9908,0.9913,0.9885,0.9593,1.0053,1.0758,1.0484,1.0163,0.9831,0.9671,0.9331,0.8627,0.8519,0.8752,0.9269,1.044,1.0071,0.8507,0.6731,0.6119,0.7024,0.6923,0.7017,0.7024,0.6936,0.6521,0.5626,0.4927,0.4538,0.4459,0.43,0.43,0.4545,0.4475,0.4453,0.4522,0.4553,0.4603,0.458,0.4428,0.4369,0.4128,0.4036,0.4104,0.4332,0.4399,0.4401,0.4396,0.4492,0.461,0.4549,0.469,0.4731,0.4672,0.4689,0.4668,0.4665,0.4513,0.4342,0.4161,0.4259,0.4255,0.417,0.3496,0.2147,0.0875,0.0397,0.0079,-0.0635,-0.1118,-0.1265,-0.126,-0.1336,-0.1339,-0.1341,-0.1349,-0.135,-0.1341,-0.134,-0.1346,-0.1275,-0.1291,-0.1298,-0.1301,-0.1326,-0.133,2.3331,2.313,2.1751,2.1343,2.1532,2.0639,2.0149,1.9982,1.9192,1.9003,1.9195,1.8443,1.8204,1.8425,1.8023,1.761,1.7115,1.655,1.6139,1.5636,1.4727,1.3633,1.2699,1.2272,1.1585,1.0809,1.0554,1.0381,1.0207,0.9864,0.9589,0.9479,0.9671,0.9676,0.9401,0.9845,0.9854,0.9244,0.8798,0.836,0.8009,0.7485,0.7485,0.8273,0.9472,0.9389,0.7669,0.6407,0.588,0.6171,0.6083,0.5991,0.5991,0.5808,0.5614,0.5217,0.4918,0.4809,0.4812,0.4724,0.4724,0.4899,0.4812,0.4776,0.4822,0.4791,0.4772,0.4741,0.4746,0.4626,0.4726,0.4589,0.4508,0.4587,0.4587,0.458,0.4676,0.4784,0.4886,0.4976,0.5017,0.5124,0.4974,0.5134,0.5136,0.5134,0.4799,0.4296,0.3446,0.3191,0.3455,0.4468,0.4382,0.3521,0.1987,0.0329,-0.0576,-0.0658,-0.0823,-0.0823,-0.0821,-0.1145,-0.1229,-0.1226,-0.1224,-0.1305,-0.1303,-0.1304,-0.1304,-0.1309,-0.1325,-0.1328,-0.1331,-0.1351,-0.1353,2.3431,2.3229,2.2252,2.1638,2.139,2.0072,1.9578,1.9784,1.9747,1.9441,1.8816,1.7937,1.7794,1.8006,1.7269,1.6788,1.646,1.5891,1.556,1.5477,1.423,1.3307,1.2528,1.2095,1.1505,1.0906,1.0733,1.0472,1.0028,0.9946,0.9492,0.8935,0.9405,0.9235,0.8507,0.8595,0.8603,0.844,0.8006,0.7658,0.7309,0.6694,0.6694,0.7309,0.8116,0.812,0.7228,0.6242,0.5714,0.573,0.5552,0.5463,0.5463,0.5282,0.5191,0.5102,0.5099,0.5102,0.5102,0.501,0.5097,0.5188,0.5188,0.5156,0.51,0.5151,0.5107,0.5045,0.5,0.5114,0.519,0.5147,0.5037,0.4977,0.4954,0.4951,0.4957,0.5071,0.5194,0.532,0.5341,0.5162,0.4635,0.4558,0.4477,0.4558,0.4732,0.4561,0.3781,0.2404,0.1975,0.3272,0.4323,0.3547,-0.0,-0.0,-0.0,-0.0841,-0.0,-0.0,-0.0508,-0.0846,-0.1014,-0.1097,-0.1096,-0.118,-0.1264,-0.1349,-0.135,-0.1351,-0.1356,-0.136,-0.1365,-0.1372,-0.1378,2.4044,2.3371,2.3058,2.1834,2.0554,2.0058,1.951,1.9127,1.9811,1.912,1.8014,1.77,1.7342,1.7033,1.6288,1.5718,1.5477,1.5318,1.4977,1.4482,1.3899,1.3392,1.296,1.2705,1.2186,1.1602,1.178,1.0901,0.941,0.985,0.9657,0.8757,0.886,0.8782,0.84,0.7232,0.689,0.7552,0.7658,0.7309,0.6517,0.6428,0.634,0.6428,0.6428,0.6697,0.7312,0.6257,0.573,0.5733,0.5644,0.5733,0.5644,0.5644,0.5555,0.546,0.5371,0.5371,0.5371,0.5191,0.528,0.5552,0.5463,0.5458,0.5539,0.5633,0.5633,0.5617,0.5625,0.5628,0.5628,0.5526,0.5452,0.5428,0.5333,0.5333,0.5423,0.5408,0.5434,0.5341,0.5267,0.4842,0.3491,0.2847,0.2841,0.3111,0.3924,0.4732,0.4098,0.2044,0.0448,0.0806,0.2224,0.2745,-0.0,-0.0,-0.0,-0.0,-0.0,-0.0,-0.0,-0.0429,-0.0602,-0.0602,-0.0602,-0.0688,-0.1118,-0.1204,-0.1371,-0.1372,-0.1381,-0.1391,-0.1395,-0.1401,-0.1414,2.3128,2.2992,2.1824,2.1187,2.0854,2.0566,1.985,1.8939,1.7729,1.7641,1.8098,1.6338,1.5792,1.6339,1.5379,1.472,1.4643,1.4398,1.4237,1.4075,1.3476,1.3137,1.2784,1.1843,1.089,1.0197,1.0284,1.0106,0.9497,0.9152,0.8707,0.844,0.7933,0.7672,0.721,0.5866,0.5606,0.6868,0.6605,0.6514,0.6786,0.6251,0.5897,0.5808,0.5095,0.5008,0.5547,0.5819,0.5911,0.5733,0.5733,0.5733,0.5733,0.5733,0.5644,0.5644,0.5644,0.5644,0.5644,0.5552,0.5555,0.5644,0.5644,0.5644,0.5733,0.5733,0.5735,0.5652,0.5654,0.5746,0.557,0.5114,0.4982,0.5547,0.5635,0.5534,0.5262,0.432,0.3461,0.3393,0.3405,0.3226,0.2777,0.206,0.1165,0.1077,-0.0,-0.0,-0.0,-0.0,-0.0,-0.0,-0.0,0.1438,-0.0,-0.0,-0.0,-0.0963,-0.0,-0.0,-0.0,-0.0,-0.0,-0.0,-0.0,-0.0438,-0.0789,-0.1051,-0.1134,-0.1313,-0.1325,-0.133,-0.1422,-0.1427,-0.1433,2.2658,2.2209,2.1374,2.0861,2.0722,2.0625,1.9986,1.8877,1.7158,1.7031,1.7438,1.5866,1.5315,1.5771,1.4727,1.4321,1.4398,1.3899,1.3652,1.3652,1.296,1.2613,1.2443,1.1154,1.0028,0.9323,0.9492,0.9139,0.8177,0.7914,0.7478,0.6953,0.6986,0.6631,0.5897,0.4912,0.4912,0.5716,0.5447,0.5447,0.5805,0.545,0.5184,0.5092,0.4469,0.4204,0.4478,0.5013,0.528,0.5193,0.5193,0.5287,0.5652,0.5744,0.5744,0.5746,0.5744,0.5744,0.5744,0.5654,0.5746,0.5744,0.5744,0.5744,0.5744,0.5744,0.5654,0.5203,0.4661,0.4572,0.4665,0.4123,0.4032,0.4574,0.4748,0.4759,0.4397,0.3314,0.2415,0.2237,0.215,0.2151,0.1882,0.1345,0.0269,0.0269,-0.0,-0.0,-0.0,-0.0,-0.0,-0.0,-0.0,-0.1887,-0.1166,-0.0,-0.0,-0.0984,-0.0,-0.0,-0.0,-0.0,-0.0,-0.0,-0.0,-0.0,-0.0444,-0.0623,-0.0712,-0.0896,-0.1166,-0.1254,-0.1251,-0.1341,-0.1436,2.2606,2.1252,2.1486,2.0906,2.0048,2.0337,1.9823,1.8772,1.8236,1.74,1.6542,1.5846,1.5621,1.5228,1.4412,1.4159,1.4405,1.3646,1.3313,1.3052,1.2357,1.1752,1.1494,1.0549,0.9501,0.8711,0.9139,0.8173,0.6157,0.6678,0.6139,0.5001,0.6005,0.6097,0.4736,0.4289,0.4111,0.4556,0.4378,0.4289,0.4556,0.4287,0.42,0.42,0.4022,0.3757,0.3671,0.3671,0.3939,0.4208,0.4297,0.4661,0.5392,0.5578,0.5484,0.5394,0.5576,0.5486,0.5576,0.5481,0.5394,0.5302,0.5213,0.5489,0.5213,0.5027,0.4846,0.421,0.331,0.2861,0.3223,0.2865,0.2597,0.2776,0.3224,0.3135,0.2509,0.2239,0.1791,0.1434,0.1346,0.1256,0.1256,0.0807,0.0628,0.0359,0.009,-0.0,-0.0,-0.0,-0.0,-0.2966,-0.3597,-0.3776,-0.2603,-0.2962,-0.2962,-0.2872,-0.2154,-0.0,-0.0,-0.0,-0.0,-0.0,-0.0,-0.0,-0.0,-0.0,-0.0,-0.0538,-0.0718,-0.0897,-0.0987,-0.1076,-0.1256,2.1721,2.0702,2.0178,1.9887,1.9678,1.9655,1.9259,1.8612,1.8878,1.8087,1.678,1.5253,1.4692,1.4734,1.3984,1.3737,1.3646,1.3052,1.279,1.2619,1.1154,1.0284,0.9927,0.9497,0.8448,0.7217,0.7214,0.6596,0.5364,0.5714,0.5536,0.483,0.4837,0.4837,0.42,0.2953,0.3223,0.4383,0.3758,0.3848,0.4472,0.3758,0.3312,0.3224,0.2597,0.224,0.2062,0.2062,0.2686,0.3669,0.3758,0.3848,0.4121,0.4121,0.4123,0.4123,0.4123,0.4302,0.4574,0.4574,0.4304,0.3676,0.3676,0.3496,0.331,0.331,0.3132,0.2864,0.2685,0.2417,0.2061,0.1792,0.1524,0.1165,0.1613,0.1881,0.1613,0.1076,0.0538,0.0359,0.009,0.0179,0.0269,0.0269,0.009,-0.0179,-0.0448,-0.0628,-0.0807,-0.1524,-0.2693,-0.2512,-0.2962,-0.3773,-0.4222,-0.4674,-0.4945,-0.4947,-0.4133,-0.0,-0.0,-0.0,-0.0,-0.0,-0.0,-0.0,-0.0,-0.0,-0.0,-0.0,-0.0,-0.0,-0.0,-0.0538,-0.0897,2.0864,1.9972,1.9528,1.8919,1.8275,1.7489,1.746,1.8253,1.8885,1.7893,1.5764,1.3811,1.3096,1.3197,1.2784,1.2528,1.2613,1.2186,1.2015,1.1837,1.0274,0.9231,0.8532,0.8097,0.7214,0.6251,0.5897,0.5455,0.483,0.4828,0.4472,0.376,0.3314,0.3133,0.2953,0.2598,0.2511,0.3494,0.3135,0.3314,0.3939,0.3136,0.269,0.2511,0.1794,0.1436,0.1436,0.1436,0.1883,0.2508,0.2686,0.2686,0.2686,0.2686,0.2686,0.2686,0.2686,0.2776,0.2956,0.2956,0.2508,0.206,0.1972,0.188,0.179,0.1789,0.188,0.1433,0.1613,0.1254,0.0717,0.0538,0.0359,0.009,0.0269,0.0538,0.0538,0.009,-0.0269,-0.0359,-0.0538,-0.0628,-0.0359,-0.0269,-0.0448,-0.0628,-0.0807,-0.1076,-0.1346,-0.2332,-0.2871,-0.2781,-0.2869,-0.368,-0.4129,-0.4489,-0.4759,-0.494,-0.4945,-0.395,-0.2781,-0.1076,-0.0,-0.0,-0.0,-0.0,-0.0,-0.0,-0.0,-0.0,-0.0,-0.0,-0.0,-0.0,-0.0,2.0149,1.9158,1.9025,1.8169,1.6724,1.502,1.5739,1.7368,1.8124,1.6775,1.4058,1.1876,1.1352,1.1322,1.158,1.1408,1.1322,1.1058,1.0712,1.0188,0.9139,0.8093,0.7221,0.6861,0.6334,0.5811,0.5275,0.4741,0.4297,0.3849,0.3224,0.2689,0.2062,0.1614,0.2062,0.2423,0.2602,0.269,0.2868,0.3047,0.3226,0.278,0.2423,0.2243,0.1794,0.1436,0.1436,0.1436,0.1525,0.1436,0.1436,0.1524,0.1524,0.1436,0.1525,0.1524,0.1614,0.1614,0.1256,0.1076,0.0717,0.0628,0.0628,0.0538,0.0538,0.0717,0.0717,0.0179,-0.0,-0.009,-0.0359,-0.0628,-0.0628,-0.0718,-0.0807,-0.0807,-0.0897,-0.0897,-0.0807,-0.0807,-0.0897,-0.0897,-0.0897,-0.0897,-0.0987,-0.1436,-0.1615,-0.1795,-0.2064,-0.2602,-0.3141,-0.323,-0.3409,-0.3765,-0.3944,-0.4121,-0.4302,-0.448,-0.4667,-0.4216,-0.3765,-0.2868,-0.3047,-0.3138,-0.3139,-0.2602,-0.0,-0.0,-0.0,-0.0,-0.0,-0.0,-0.0,-0.0,-0.0,1.964,1.8718,1.7662,1.7276,1.6985,1.5797,1.5635,1.644,1.5628,1.4601,1.262,1.0364,1.0081,1.1235,1.1149,1.1322,1.0885,0.9923,0.8786,0.739,0.7217,0.6514,0.6077,0.5985,0.5719,0.5186,0.5008,0.4565,0.3942,0.3674,0.3315,0.2777,0.242,0.2331,0.2153,0.242,0.3048,0.3138,0.3047,0.2956,0.3136,0.2778,0.2422,0.2064,0.1615,0.1436,0.1436,0.1436,0.1436,0.1436,0.1346,0.1256,0.1346,0.1346,0.1346,0.1256,0.1256,0.1076,0.0448,0.0179,-0.0,-0.0269,-0.0269,-0.0538,-0.0897,-0.0718,-0.0628,-0.0628,-0.0538,-0.0628,-0.0807,-0.0718,-0.1076,-0.1436,-0.1525,-0.1795,-0.2155,-0.1885,-0.1615,-0.1705,-0.1974,-0.2424,-0.2334,-0.2244,-0.2334,-0.2424,-0.2424,-0.2515,-0.2782,-0.3051,-0.3141,-0.3321,-0.3409,-0.3588,-0.3499,-0.3676,-0.3764,-0.3853,-0.4125,-0.4306,-0.3855,-0.3944,-0.3946,-0.4489,-0.5124,-0.431,-0.305,-0.0,-0.0,-0.0,-0.2153,-0.1794,-0.0,-0.0,-0.0,1.823,1.744,1.7123,1.6714,1.6116,1.5629,1.527,1.5058,1.465,1.3159,1.1203,0.9216,0.9178,1.0033,1.0033,0.9854,0.9318,0.8352,0.7126,0.6166,0.5902,0.5547,0.501,0.5099,0.4921,0.4474,0.4297,0.4121,0.3942,0.3676,0.3496,0.3136,0.2598,0.1973,0.1884,0.2062,0.2151,0.2151,0.2238,0.2327,0.2418,0.2151,0.1613,0.1256,0.0807,0.0538,0.0538,0.0448,0.0359,0.0448,0.0448,0.0628,0.0897,0.0897,0.0807,0.0448,0.0359,0.0269,-0.0179,-0.0359,-0.0448,-0.0718,-0.0718,-0.0807,-0.0987,-0.1076,-0.1166,-0.1166,-0.1256,-0.1346,-0.1705,-0.1705,-0.1974,-0.2155,-0.2155,-0.2334,-0.2604,-0.2424,-0.2334,-0.2424,-0.2604,-0.2785,-0.2875,-0.2875,-0.2875,-0.2604,-0.2604,-0.2694,-0.2784,-0.2963,-0.2962,-0.3053,-0.3141,-0.323,-0.3051,-0.3141,-0.332,-0.3409,-0.3411,-0.3767,-0.3765,-0.4127,-0.4489,-0.4851,-0.5119,-0.5124,-0.4129,-0.4037,-0.4036,-0.4129,-0.395,-0.3501,-0.0,-0.0,-0.0,1.6734,1.6144,1.6836,1.6193,1.4922,1.4999,1.4573,1.3919,1.4273,1.2747,1.0072,0.9018,0.8611,0.8556,0.8564,0.8028,0.7312,0.6694,0.5902,0.528,0.5191,0.4924,0.4478,0.4208,0.4119,0.4032,0.3942,0.3942,0.3851,0.3583,0.3047,0.2959,0.2333,0.1705,0.1436,0.0986,0.1075,0.1164,0.1432,0.1521,0.1521,0.1164,0.0807,0.0448,0.009,-0.009,-0.009,-0.0269,-0.0448,-0.0628,-0.0628,-0.0359,-0.0,0.0269,0.009,-0.0538,-0.0359,-0.0448,-0.0628,-0.0807,-0.0807,-0.0897,-0.0987,-0.0987,-0.1076,-0.1166,-0.1346,-0.1615,-0.1795,-0.1974,-0.2694,-0.2515,-0.2604,-0.2694,-0.2515,-0.2515,-0.2515,-0.2694,-0.2694,-0.2694,-0.2604,-0.2604,-0.2694,-0.2694,-0.2784,-0.2786,-0.2877,-0.2879,-0.288,-0.2879,-0.288,-0.2964,-0.3053,-0.3053,-0.2963,-0.2963,-0.3053,-0.3053,-0.3053,-0.323,-0.3497,-0.368,-0.395,-0.4304,-0.4482,-0.4576,-0.4757,-0.4484,-0.4755,-0.5484,-0.5302,-0.4484,-0.4214,-0.4216,-0.4757,1.607,1.6182,1.5875,1.5502,1.5132,1.4189,1.3782,1.3972,1.3722,1.2555,1.0631,0.924,0.8105,0.7848,0.7852,0.7228,0.6251,0.5722,0.5191,0.4654,0.4476,0.43,0.4119,0.3403,0.3133,0.3315,0.3494,0.3582,0.3135,0.2686,0.2239,0.1613,0.2064,0.1974,0.0717,-0.009,-0.0,0.0716,0.0985,0.1074,0.1074,0.0985,0.0717,0.0269,-0.009,-0.0269,-0.0179,-0.0179,-0.009,-0.009,-0.009,-0.0448,-0.0628,-0.0448,-0.0359,-0.0359,-0.0448,-0.0718,-0.1076,-0.1256,-0.1525,-0.1885,-0.1974,-0.1974,-0.1974,-0.1885,-0.1885,-0.1974,-0.2064,-0.2155,-0.2244,-0.2334,-0.2334,-0.2334,-0.2334,-0.2336,-0.2337,-0.243,-0.2615,-0.2806,-0.2617,-0.2341,-0.2438,-0.2445,-0.2542,-0.2549,-0.2554,-0.2643,-0.2732,-0.2814,-0.2805,-0.2886,-0.2875,-0.2964,-0.2875,-0.2875,-0.2963,-0.2963,-0.2964,-0.2964,-0.3142,-0.3054,-0.3232,-0.3765,-0.4032,-0.4214,-0.4393,-0.4482,-0.4661,-0.4844,-0.5022,-0.5287,-0.5022,-0.4755,-0.5114,1.5874,1.5808,1.5546,1.5433,1.5049,1.3121,1.2717,1.3357,1.3366,1.2025,0.9946,0.8265,0.739,0.7132,0.7051,0.6432,0.5636,0.501,0.4656,0.4297,0.3851,0.3583,0.3403,0.2597,0.2238,0.2238,0.2596,0.2596,0.2148,0.1879,0.1432,0.1343,0.1884,0.1525,0.0359,-0.0717,-0.0806,-0.009,-0.0,-0.0,-0.0,-0.0,-0.0179,-0.0359,-0.0628,-0.0897,-0.0987,-0.1076,-0.1166,-0.1166,-0.1166,-0.1256,-0.1256,-0.1256,-0.1076,-0.1076,-0.1076,-0.1256,-0.1615,-0.1795,-0.1974,-0.2155,-0.2334,-0.2334,-0.2244,-0.2155,-0.2155,-0.2155,-0.2155,-0.2155,-0.2244,-0.2156,-0.2155,-0.2155,-0.2157,-0.2257,-0.2633,-0.2639,-0.2925,-0.3116,-0.2817,-0.2542,-0.2285,-0.2291,-0.2298,-0.2304,-0.2404,-0.2587,-0.2767,-0.2947,-0.3122,-0.2755,-0.275,-0.2648,-0.2644,-0.2725,-0.2723,-0.2718,-0.2796,-0.2794,-0.2879,-0.288,-0.2966,-0.332,-0.3587,-0.3765,-0.3678,-0.3767,-0.4034,-0.4297,-0.4656,-0.5018,-0.5292,-0.5473,-0.5563,1.5818,1.535,1.5286,1.5144,1.4628,1.2342,1.1759,1.2386,1.2819,1.1489,0.8973,0.7102,0.6313,0.6419,0.6163,0.5633,0.5193,0.4389,0.403,0.376,0.3044,0.2597,0.2329,0.1701,0.1164,0.1164,0.0806,0.0985,0.1164,0.1074,0.0985,0.0627,0.0717,0.0538,-0.0359,-0.1076,-0.1346,-0.1436,-0.1436,-0.1436,-0.1436,-0.1436,-0.1436,-0.1436,-0.1615,-0.1615,-0.1525,-0.1705,-0.1795,-0.1795,-0.1885,-0.1885,-0.1705,-0.1705,-0.1795,-0.1974,-0.2064,-0.2064,-0.1974,-0.2064,-0.1974,-0.1974,-0.2064,-0.2064,-0.1974,-0.1974,-0.1974,-0.2064,-0.2064,-0.1983,-0.199,-0.1988,-0.1995,-0.2096,-0.2098,-0.2374,-0.3047,-0.3436,-0.3817,-0.3711,-0.3116,-0.3035,-0.316,-0.3163,-0.3361,-0.3457,-0.3561,-0.366,-0.3845,-0.367,-0.3573,-0.2918,-0.2536,-0.2334,-0.2323,-0.2402,-0.2494,-0.2494,-0.2564,-0.2549,-0.2718,-0.2707,-0.2883,-0.2969,-0.3053,-0.3232,-0.3142,-0.3142,-0.3499,-0.3944,-0.4389,-0.4656,-0.4835,-0.5018,-0.5109,1.5537,1.4984,1.4684,1.4228,1.3502,1.194,1.1262,1.1435,1.1598,1.0702,0.8794,0.648,0.5427,0.5536,0.501,0.4748,0.4391,0.3762,0.3135,0.2955,0.2058,0.1611,0.1432,0.0627,0.0179,0.009,-0.0538,-0.0538,-0.0,0.0179,-0.0269,-0.0717,-0.0807,-0.1076,-0.0987,-0.1256,-0.1436,-0.1436,-0.1436,-0.1436,-0.1436,-0.1436,-0.1436,-0.1436,-0.1436,-0.1525,-0.1525,-0.1615,-0.1615,-0.1525,-0.1525,-0.1525,-0.1436,-0.1436,-0.1436,-0.1525,-0.1525,-0.1525,-0.1615,-0.1705,-0.1795,-0.1705,-0.1705,-0.1705,-0.1615,-0.1616,-0.1616,-0.1525,-0.1527,-0.1633,-0.1654,-0.166,-0.1582,-0.1965,-0.2345,-0.2725,-0.3312,-0.4356,-0.4746,-0.5142,-0.4821,-0.4635,-0.466,-0.4557,-0.4551,-0.4649,-0.475,-0.4668,-0.4589,-0.4325,-0.3852,-0.3182,-0.2684,-0.2475,-0.2083,-0.2164,-0.225,-0.2254,-0.233,-0.2398,-0.2486,-0.2567,-0.2624,-0.2709,-0.2797,-0.2879,-0.2964,-0.3053,-0.3232,-0.3499,-0.3942,-0.4117,-0.4289,-0.4472,-0.4748,1.5028,1.4536,1.4846,1.4538,1.3461,1.0919,0.9693,0.9923,1.0819,1.0017,0.783,0.5948,0.4987,0.4828,0.4567,0.421,0.3673,0.3045,0.2508,0.188,0.1164,0.0627,0.0358,-0.0269,-0.0807,-0.0807,-0.1166,-0.1166,-0.0807,-0.0807,-0.1076,-0.1256,-0.1436,-0.1346,-0.1436,-0.1436,-0.1436,-0.1436,-0.1436,-0.1436,-0.1436,-0.1436,-0.1436,-0.1436,-0.1436,-0.1436,-0.1436,-0.1436,-0.1436,-0.1436,-0.1436,-0.1436,-0.1436,-0.1436,-0.1436,-0.1436,-0.1436,-0.1436,-0.1436,-0.1525,-0.1525,-0.1436,-0.1525,-0.1525,-0.1436,-0.1438,-0.1446,-0.146,-0.1461,-0.1476,-0.1498,-0.1506,-0.1513,-0.1807,-0.2585,-0.3366,-0.4048,-0.5117,-0.5901,-0.6219,-0.6438,-0.6233,-0.5828,-0.5229,-0.5043,-0.4977,-0.4986,-0.4899,-0.4818,-0.464,-0.415,-0.3358,-0.2935,-0.2615,-0.212,-0.1917,-0.1997,-0.2091,-0.2183,-0.226,-0.2258,-0.2337,-0.2401,-0.2473,-0.2659,-0.2735,-0.2798,-0.2964,-0.3053,-0.323,-0.3408,-0.3674,-0.3939,-0.4206,-0.4478,1.4074,1.3417,1.4797,1.4774,1.3439,0.999,0.821,0.8047,0.9745,0.9222,0.7048,0.5609,0.4727,0.4204,0.4119,0.3492,0.2506,0.2329,0.1791,0.0896,0.0179,-0.0269,-0.0538,-0.1076,-0.1346,-0.1436,-0.1346,-0.1346,-0.1346,-0.1346,-0.1346,-0.1436,-0.1436,-0.1436,-0.1436,-0.1436,-0.1436,-0.1436,-0.1436,-0.1436,-0.1436,-0.1436,-0.1436,-0.1436,-0.1436,-0.1436,-0.1436,-0.1436,-0.1436,-0.1436,-0.1436,-0.1436,-0.1436,-0.1436,-0.1436,-0.1436,-0.1436,-0.1436,-0.1436,-0.1436,-0.1436,-0.1436,-0.1436,-0.1436,-0.1436,-0.144,-0.1452,-0.1476,-0.1489,-0.1506,-0.1529,-0.1538,-0.1547,-0.2034,-0.2814,-0.3804,-0.4801,-0.5886,-0.6689,-0.7012,-0.7337,-0.7569,-0.695,-0.593,-0.5452,-0.5304,-0.5127,-0.5027,-0.4822,-0.4718,-0.4109,-0.3296,-0.2688,-0.2368,-0.2067,-0.1761,-0.1842,-0.1832,-0.2022,-0.2019,-0.2017,-0.2097,-0.2167,-0.2342,-0.2427,-0.2495,-0.2564,-0.272,-0.2875,-0.3053,-0.3232,-0.3321,-0.359,-0.3857,-0.4121,1.2486,1.1117,1.4064,1.423,1.2533,0.9689,0.7435,0.628,0.794,0.7963,0.6514,0.5539,0.4378,0.3667,0.3133,0.2508,0.1522,0.0627,0.0359,-0.009,-0.0807,-0.1076,-0.1256,-0.1256,-0.1436,-0.1436,-0.1436,-0.1436,-0.1436,-0.1436,-0.1436,-0.1436,-0.1436,-0.1436,-0.1436,-0.1436,-0.1436,-0.1436,-0.1436,-0.1436,-0.1436,-0.1436,-0.1436,-0.1436,-0.1436,-0.1436,-0.1436,-0.1346,-0.1256,-0.1256,-0.1256,-0.1346,-0.1256,-0.1256,-0.1256,-0.1256,-0.1256,-0.1256,-0.1256,-0.1346,-0.1436,-0.1436,-0.1438,-0.1442,-0.1444,-0.1466,-0.1478,-0.1491,-0.1513,-0.1536,-0.1557,-0.157,-0.1578,-0.2077,-0.2967,-0.406,-0.5268,-0.6773,-0.7493,-0.7826,-0.7939,-0.7939,-0.7537,-0.6388,-0.5978,-0.5824,-0.5327,-0.5227,-0.4726,-0.4422,-0.3822,-0.3116,-0.2317,-0.191,-0.1711,-0.16,-0.1685,-0.1677,-0.1772,-0.1768,-0.1666,-0.1845,-0.193,-0.2103,-0.2188,-0.2255,-0.2323,-0.2489,-0.274,-0.2798,-0.2964,-0.3144,-0.3233,-0.3411,-0.3588,1.0621,0.9501,1.0707,1.0901,1.0343,0.7815,0.6386,0.586,0.6432,0.5719,0.4101,0.3935,0.3312,0.2416,0.2058,0.1433,0.0627,0.0269,-0.0269,-0.0807,-0.1256,-0.1346,-0.1436,-0.1436,-0.1436,-0.1436,-0.1436,-0.1436,-0.1436,-0.1436,-0.1436,-0.1436,-0.1436,-0.1436,-0.1436,-0.1436,-0.1436,-0.1436,-0.1436,-0.1436,-0.1436,-0.1436,-0.1436,-0.1436,-0.1436,-0.1436,-0.1346,-0.0807,-0.0807,-0.0897,-0.0987,-0.0987,-0.0987,-0.0987,-0.0987,-0.0987,-0.0987,-0.0987,-0.1076,-0.1256,-0.1436,-0.144,-0.1451,-0.1463,-0.1372,-0.1491,-0.1517,-0.1533,-0.1545,-0.1469,-0.1592,-0.1599,-0.1704,-0.2116,-0.3024,-0.4225,-0.5427,-0.6833,-0.7739,-0.7939,-0.7839,-0.7739,-0.7241,-0.6634,-0.6431,-0.6337,-0.5832,-0.5227,-0.4526,-0.4024,-0.3423,-0.3022,-0.2321,-0.1919,-0.1717,-0.1616,-0.1617,-0.1611,-0.1605,-0.1598,-0.1592,-0.1598,-0.1784,-0.1863,-0.1938,-0.2016,-0.2186,-0.2349,-0.2502,-0.264,-0.2796,-0.2964,-0.2964,-0.3054,-0.3142,0.9065,0.8197,0.8412,0.8677,0.8648,0.6675,0.57,0.5711,0.5727,0.3933,0.1428,0.2237,0.2238,0.1343,0.0985,0.0448,-0.0179,-0.0538,-0.0807,-0.1166,-0.1346,-0.1436,-0.1436,-0.1436,-0.1436,-0.1436,-0.1436,-0.1436,-0.1436,-0.1436,-0.1436,-0.1436,-0.1436,-0.1436,-0.1436,-0.1436,-0.1436,-0.1436,-0.1436,-0.1436,-0.1436,-0.1436,-0.1436,-0.1436,-0.1436,-0.1436,-0.1166,-0.0628,-0.0269,-0.0359,-0.0449,-0.0449,-0.0449,-0.0449,-0.0,-0.0,-0.0628,-0.0718,-0.0808,-0.1076,-0.135,-0.1362,-0.1466,-0.1481,-0.1405,-0.1331,-0.116,-0.1171,-0.1281,-0.1395,-0.1516,-0.1613,-0.1612,-0.1918,-0.3024,-0.4124,-0.5127,-0.6331,-0.7235,-0.7839,-0.764,-0.7138,-0.6434,-0.5734,-0.5031,-0.473,-0.4028,-0.3626,-0.3324,-0.3022,-0.3024,-0.2622,-0.2321,-0.2019,-0.1717,-0.1717,-0.1617,-0.1616,-0.1611,-0.1613,-0.1611,-0.1617,-0.1615,-0.1695,-0.1777,-0.1862,-0.1942,-0.2112,-0.2251,-0.2376,-0.2536,-0.2694,-0.2604,-0.2604,-0.2604,0.8017,0.7319,0.8059,0.8424,0.8151,0.6447,0.5735,0.5652,0.5384,0.322,-0.0,0.1073,0.1253,0.0447,0.009,-0.0448,-0.0987,-0.1166,-0.1346,-0.1346,-0.1436,-0.1436,-0.1436,-0.1436,-0.1436,-0.1436,-0.1436,-0.1436,-0.1436,-0.1436,-0.1436,-0.1436,-0.1436,-0.1436,-0.1436,-0.1436,-0.1436,-0.1436,-0.1436,-0.1436,-0.1436,-0.1436,-0.1436,-0.1436,-0.1436,-0.1436,-0.1166,-0.0539,-0.0,-0.0,-0.0,-0.0,-0.0,-0.0,-0.0,-0.0,-0.0,-0.0631,-0.0721,-0.1169,-0.1273,-0.1293,-0.1306,-0.1316,-0.1335,-0.1163,-0.0785,-0.0792,-0.0798,-0.1006,-0.1313,-0.1617,-0.1516,-0.1919,-0.2923,-0.3725,-0.4726,-0.5529,-0.6431,-0.693,-0.6634,-0.6237,-0.5532,-0.4828,-0.3725,-0.3024,-0.222,-0.2019,-0.2119,-0.222,-0.2321,-0.2321,-0.212,-0.1918,-0.1717,-0.1616,-0.1617,-0.1617,-0.1617,-0.1617,-0.1617,-0.1617,-0.1615,-0.1611,-0.1705,-0.179,-0.1778,-0.1766,-0.1917,-0.2059,-0.2179,-0.2334,-0.2244,-0.2244,-0.2334,0.7058,0.6183,0.6548,0.6646,0.6557,0.6014,0.5657,0.5392,0.3944,0.1609,-0.0626,-0.0448,-0.0448,-0.0806,-0.0807,-0.1076,-0.1346,-0.1436,-0.1436,-0.1436,-0.1436,-0.1436,-0.1436,-0.1436,-0.1436,-0.1436,-0.1436,-0.1436,-0.1436,-0.1436,-0.1436,-0.1436,-0.1436,-0.1436,-0.1436,-0.1436,-0.1436,-0.1436,-0.1436,-0.1436,-0.1436,-0.1436,-0.1346,-0.1346,-0.1436,-0.1346,-0.1256,-0.0359,-0.0,-0.0,-0.0,-0.0,-0.0,-0.0,-0.0,-0.0,-0.0,-0.0185,-0.0279,-0.0468,-0.0656,-0.0851,-0.0954,-0.1058,-0.1266,-0.1386,-0.0998,-0.0,-0.0,-0.0,-0.0505,-0.1212,-0.1515,-0.1818,-0.2521,-0.3123,-0.3925,-0.4726,-0.5427,-0.5522,-0.5322,-0.4826,-0.4227,-0.3731,-0.2826,-0.2431,-0.1827,-0.172,-0.1819,-0.1818,-0.1818,-0.1818,-0.1717,-0.1717,-0.1617,-0.1617,-0.1617,-0.1617,-0.1617,-0.1617,-0.1617,-0.1617,-0.1616,-0.1614,-0.1614,-0.1613,-0.16,-0.1685,-0.1666,-0.1824,-0.196,-0.2104,-0.2105,-0.218,-0.2244,0.6272,0.5746,0.5752,0.5668,0.5489,0.4304,0.4397,0.4858,0.251,0.0179,-0.1165,-0.1345,-0.1346,-0.1346,-0.1436,-0.1436,-0.1436,-0.1436,-0.1436,-0.1436,-0.1436,-0.1436,-0.1436,-0.1436,-0.1436,-0.1436,-0.1436,-0.1436,-0.1436,-0.1436,-0.1436,-0.1436,-0.1436,-0.1436,-0.1436,-0.1436,-0.1436,-0.1436,-0.1436,-0.1436,-0.1346,-0.1256,-0.1256,-0.1346,-0.1346,-0.1256,-0.0808,-0.0,-0.0,-0.0,-0.0,-0.0,-0.0,-0.0,-0.0,-0.0,-0.0,-0.0,-0.0,-0.0,-0.0,-0.039,-0.0,-0.0591,-0.0892,-0.0802,-0.0604,-0.0,-0.0,-0.0,-0.0,-0.0,-0.1313,-0.1515,-0.2019,-0.2621,-0.3324,-0.4126,-0.4526,-0.4422,-0.4228,-0.3627,-0.2928,-0.2426,-0.1924,-0.1729,-0.1634,-0.1628,-0.1624,-0.1624,-0.1623,-0.1622,-0.162,-0.1618,-0.1618,-0.1617,-0.1617,-0.1617,-0.1617,-0.1617,-0.1617,-0.1617,-0.1617,-0.1617,-0.1616,-0.1615,-0.1613,-0.1601,-0.1687,-0.1666,-0.1826,-0.1893,-0.1969,-0.2032,-0.1999,0.5746,0.5749,0.567,0.5402,0.4591,0.1522,0.224,0.4864,0.0987,-0.1076,-0.1524,-0.1614,-0.1614,-0.1524,-0.1436,-0.1436,-0.1436,-0.1436,-0.1436,-0.1436,-0.1436,-0.1436,-0.1436,-0.1436,-0.1436,-0.1436,-0.1436,-0.1436,-0.1436,-0.1436,-0.1436,-0.1436,-0.1436,-0.1436,-0.1436,-0.1436,-0.1436,-0.1436,-0.1436,-0.1436,-0.1346,-0.1076,-0.1076,-0.1077,-0.1077,-0.0808,-0.0,-0.0,-0.0,-0.0,-0.0,-0.0,-0.0,-0.0,-0.0,-0.0,-0.0,-0.0,-0.0,-0.0,-0.0,-0.0,-0.0,-0.0,-0.0,-0.0,-0.0,-0.0,-0.0,-0.0,-0.0,-0.0,-0.0707,-0.1111,-0.1515,-0.2119,-0.2823,-0.3324,-0.3624,-0.3627,-0.3337,-0.2838,-0.2238,-0.163,-0.1644,-0.1654,-0.1661,-0.1655,-0.165,-0.1643,-0.164,-0.163,-0.1627,-0.1621,-0.162,-0.1619,-0.1617,-0.1617,-0.1617,-0.1617,-0.1617,-0.1617,-0.1617,-0.1617,-0.1617,-0.1615,-0.1614,-0.1614,-0.1613,-0.169,-0.1666,-0.1746,-0.1821,-0.1692,-0.1666,0.5665,0.5679,0.5679,0.2604,-0.1797,-0.0717,0.0358,0.0269,-0.1882,-0.278,-0.2778,-0.2509,-0.233,-0.2419,-0.1793,-0.1436,-0.1436,-0.1436,-0.1436,-0.1436,-0.1436,-0.1436,-0.1436,-0.1436,-0.1436,-0.1436,-0.1436,-0.1436,-0.1436,-0.1436,-0.1436,-0.1436,-0.1436,-0.1436,-0.1436,-0.1436,-0.1436,-0.1436,-0.1436,-0.1436,-0.1346,-0.1166,-0.0898,-0.063,-0.0,-0.0,-0.0,-0.0,-0.0,-0.0,-0.0,-0.0,-0.0,-0.0,-0.0,-0.0,-0.0,-0.0,-0.0,-0.0,-0.0,-0.0,-0.0,-0.0,-0.0,-0.0,-0.0,-0.0,-0.0,-0.0,-0.0,-0.0,-0.0606,-0.101,-0.1415,-0.1818,-0.2321,-0.2422,-0.2724,-0.2741,-0.2444,-0.2361,-0.175,-0.1664,-0.1677,-0.1687,-0.169,-0.1686,-0.1678,-0.1672,-0.1662,-0.1652,-0.1647,-0.1645,-0.1627,-0.1622,-0.1619,-0.1617,-0.1618,-0.1618,-0.1617,-0.1617,-0.1617,-0.1617,-0.1617,-0.1617,-0.1616,-0.1516,-0.1415,-0.1516,-0.1598,-0.1583,-0.1565,-0.1535,-0.1513,0.5676,0.5502,0.4051,-0.0179,-0.4687,-0.3229,-0.2506,-0.2868,-0.3582,-0.3673,-0.3315,-0.2956,-0.2689,-0.2151,-0.1614,-0.1436,-0.1436,-0.1436,-0.1436,-0.1436,-0.1436,-0.1436,-0.1436,-0.1436,-0.1436,-0.1436,-0.1436,-0.1436,-0.1436,-0.1436,-0.1436,-0.1436,-0.1436,-0.1436,-0.1436,-0.1436,-0.1436,-0.1436,-0.1436,-0.1436,-0.1257,-0.0,-0.0,-0.0,-0.0,-0.0,-0.0,-0.0,-0.0,-0.0,-0.0,-0.0,-0.0,-0.0,-0.0,-0.0,-0.0,-0.0,-0.0,-0.0,-0.0,-0.0,-0.0,-0.0,-0.0,-0.0,-0.0,-0.0,-0.0,-0.0,-0.0,-0.0303,-0.0707,-0.1111,-0.1313,-0.1617,-0.1617,-0.1617,-0.1727,-0.1739,-0.1753,-0.1768,-0.1679,-0.1697,-0.171,-0.1718,-0.1727,-0.1731,-0.172,-0.1706,-0.1693,-0.168,-0.1677,-0.1674,-0.155,-0.133,-0.1329,-0.1325,-0.162,-0.162,-0.1618,-0.1617,-0.1516,-0.1516,-0.1617,-0.1617,-0.1516,-0.1313,-0.1212,-0.1313,-0.1415,-0.1604,-0.1586,-0.1566,-0.1549,0.523,0.432,0.1348,-0.1976,-0.5497,-0.5481,-0.5201,-0.4928,-0.4736,-0.4202,-0.3671,-0.3226,-0.2776,-0.2597,-0.2239,-0.1882,-0.1972,-0.1972,-0.1793,-0.1525,-0.1704,-0.1704,-0.1436,-0.1436,-0.1436,-0.1436,-0.1436,-0.1436,-0.1436,-0.1436,-0.1436,-0.1436,-0.1436,-0.1436,-0.1436,-0.1436,-0.1439,-0.1448,-0.1357,-0.1356,-0.0993,-0.0,-0.0,-0.0,-0.0,-0.0,-0.0,-0.0,-0.0,-0.0,-0.0,-0.0,-0.0,-0.0,-0.0,-0.0,-0.0,-0.0,-0.0,-0.0,-0.0,-0.0,-0.0,-0.0,-0.0,-0.0,-0.0,-0.0,-0.0,-0.0,-0.0,-0.0,-0.0505,-0.101,-0.1313,-0.1516,-0.1617,-0.1625,-0.1644,-0.1659,-0.1682,-0.1695,-0.1708,-0.1726,-0.1743,-0.175,-0.1756,-0.1765,-0.1319,-0.1306,-0.1402,-0.1389,-0.1173,-0.0957,-0.0842,-0.073,-0.083,-0.1032,-0.1125,-0.1419,-0.1214,-0.1314,-0.1516,-0.1414,-0.1313,-0.1516,-0.1516,-0.1313,-0.1111,-0.0808,-0.1111,-0.1415,-0.1604,-0.1488,-0.1384,0.2244,-0.2694,-0.0806,-0.2239,-0.5481,-0.5735,-0.5813,-0.6077,-0.634,-0.5897,-0.5097,-0.438,-0.4113,-0.4113,-0.3576,-0.3132,-0.2686,-0.2776,-0.2508,-0.2151,-0.2061,-0.1792,-0.1524,-0.1436,-0.1436,-0.1436,-0.1436,-0.1436,-0.1436,-0.1436,-0.1436,-0.1436,-0.1346,-0.1346,-0.144,-0.144,-0.1448,-0.1376,-0.1194,-0.0,-0.0,-0.0,-0.0,-0.0,-0.0,-0.0,-0.0,-0.0,-0.0,-0.0,-0.0,-0.0,-0.0,-0.0,-0.0,-0.0,-0.0,-0.0,-0.0,-0.0,-0.0,-0.0,-0.0,-0.0,-0.0,-0.0,-0.0,-0.0,-0.0,-0.0,-0.0,-0.0,-0.0303,-0.0808,-0.1314,-0.1516,-0.1618,-0.1641,-0.1663,-0.1688,-0.1712,-0.1727,-0.1738,-0.1754,-0.1772,-0.178,-0.1783,-0.1563,-0.0557,-0.0221,-0.0659,-0.0653,-0.0109,0.0108,0.0107,0.0319,0.0422,0.0418,0.0414,-0.0102,-0.071,-0.091,-0.101,-0.101,-0.101,-0.1111,-0.1313,-0.1516,-0.1212,-0.0707,-0.0707,-0.1111,-0.1313,-0.1303,-0.1204,-0.1795,-0.5318,-0.3497,-0.376,-0.5646,-0.5811,-0.6071,-0.6612,-0.6972,-0.6792,-0.6251,-0.5447,-0.5003,-0.5181,-0.4467,-0.42,-0.3578,-0.3489,-0.2955,-0.2509,-0.2151,-0.1793,-0.1524,-0.1436,-0.1436,-0.1436,-0.1436,-0.1436,-0.1436,-0.1436,-0.1436,-0.1347,-0.1257,-0.1173,-0.1361,-0.1367,-0.1378,-0.1405,-0.1032,-0.0,-0.0,-0.0,-0.0,-0.0,-0.0,-0.0,-0.0,-0.0,-0.0,-0.0,-0.0,-0.0,-0.0,-0.0,-0.0,-0.0,-0.0,-0.0,-0.0,-0.0,-0.0,-0.0,-0.0,-0.0,-0.0,-0.0,-0.0,-0.0,-0.0,-0.0,-0.0,-0.0,-0.0606,-0.101,-0.1316,-0.152,-0.1641,-0.1667,-0.1692,-0.172,-0.1738,-0.1748,-0.1541,-0.0997,-0.0894,-0.067,-0.0784,-0.0336,0.056,0.1008,0.0556,0.0553,0.1321,0.143,0.1535,0.1735,0.1932,0.1912,0.1995,0.166,0.1129,0.0101,-0.0404,-0.0,-0.0,-0.0505,-0.0707,-0.0,-0.0,-0.0303,-0.0505,-0.0808,-0.0909,-0.1111,-0.1009,-0.5502,-0.5679,-0.566,-0.5833,-0.6183,-0.5985,-0.6248,-0.6795,-0.6986,-0.7071,-0.6962,-0.6163,-0.5359,-0.4912,-0.4645,-0.4554,-0.4556,-0.4556,-0.3848,-0.2956,-0.2419,-0.224,-0.1882,-0.1524,-0.1436,-0.1436,-0.1436,-0.1436,-0.1436,-0.1346,-0.1257,-0.1259,-0.1085,-0.091,-0.0,-0.121,-0.1125,-0.0857,-0.0,-0.0,-0.0,-0.0,-0.0,-0.0,-0.0,-0.0,-0.0,-0.0,-0.0,-0.0,-0.0,-0.0,-0.0,-0.0,-0.0,-0.0,-0.0,-0.0,-0.0,-0.0,-0.0,-0.0,-0.0,-0.0,-0.0,-0.0,-0.0,-0.0,-0.0,-0.0,-0.0,-0.0707,-0.0909,-0.1114,-0.1422,-0.1641,-0.1669,-0.1695,-0.1722,-0.175,-0.1541,-0.1549,-0.1112,-0.0448,0.0112,0.0448,0.0896,0.1568,0.2016,0.2351,0.2344,0.2672,0.3444,0.3446,0.3117,0.3423,0.3813,0.3997,0.406,0.3582,0.3118,0.2669,-0.0,-0.0,-0.0,-0.0,-0.0,-0.0,-0.0,-0.0,-0.0,-0.0,-0.0606,-0.0707,-0.0909,-0.5676,-0.5752,-0.5733,-0.5902,-0.6174,-0.6615,-0.6792,-0.6792,-0.7058,-0.7143,-0.7054,-0.6962,-0.6694,-0.6514,-0.6602,-0.6248,-0.545,-0.5447,-0.4912,-0.4111,-0.3398,-0.3044,-0.2509,-0.1704,-0.1436,-0.1346,-0.1346,-0.1346,-0.1348,-0.1078,-0.0995,-0.1284,-0.1288,-0.0,-0.0,-0.0,-0.0,-0.0,-0.0,-0.0,-0.0,-0.0,-0.0,-0.0,-0.0,-0.0,-0.0,-0.0,-0.0,-0.0,0.0707,0.101,0.101,0.0808,0.0505,-0.0,-0.0,-0.0,-0.0,-0.0,-0.0,-0.0,-0.0,-0.0,-0.0,-0.0,-0.0,-0.0,-0.0,-0.0,-0.0808,-0.1111,-0.1314,-0.1427,-0.1639,-0.168,-0.1716,-0.1624,-0.1532,-0.1216,-0.078,-0.0558,-0.0223,0.056,0.1344,0.1679,0.1791,0.2463,0.3246,0.3582,0.3917,0.459,0.515,0.5144,0.4691,0.5464,0.5964,0.6034,0.5868,0.535,0.5164,0.5613,-0.0,-0.0,-0.0,-0.0,-0.0,-0.0,-0.0,-0.0,-0.0,-0.0,-0.0,-0.0202,-0.0304]},{"header":{"parameterUnit":"m.s-1","parameterCategory":1,"la1":31.0,"la2":29.5877,"lo1":-88.7671,"lo2":-86.6584,"dy":0.0162,"dx":0.0185,"nx":115,"ny":88,"refTime":"2023-07-20T12:00:00:Z","depth":0,"parameterNumber":3,"parameterNumberName":"V-component_of_WINDS"},"data":[0.0,0.0,0.0,0.0,0.0,0.0,0.0,0.0,0.0,0.0,0.0,0.0,0.0,0.0,0.0,0.0,0.0,0.0,0.0,0.0,0.0,0.0,0.0,0.0,0.0,0.0,0.0,0.0,0.0,0.0,0.0,0.0,0.0,0.0,0.0,0.0,0.0,0.0,0.0,0.0,0.0,0.0,0.0,0.0,0.0,0.0,0.0,0.0,0.0,0.0,0.0,0.0,0.0,0.0,0.0,0.0,0.0,0.0,0.0,0.0,0.0,0.0,0.0,0.0,0.0,0.0,0.0,0.0,0.0,0.0,0.0,0.0,0.0,0.0,0.0,0.0,0.0,0.0,0.0,0.0,0.0,0.0,0.0,0.0,0.0,0.0,0.0,0.0,0.0,0.0,0.0,0.0,0.0,0.0,0.0,0.0,0.0,0.0,0.0,0.0,0.0,0.0,0.0,0.0,0.0,0.0,0.0,0.0,0.0,0.0,0.0,0.0,0.0,0.0,0.0,0.0,0.0,0.0,0.0,0.0,0.0,0.0,0.0,0.0,0.0,0.0,0.0,0.0,0.0,0.0,0.0,0.0,0.0,0.0,0.0,0.0,0.0,0.0,0.0,0.0,0.0,0.0,0.0,0.0,0.0,0.0,0.0,0.0,0.0,0.0,0.0,0.0,0.0,0.0,0.0,0.0,0.0,0.0,0.0,0.0,0.0,0.0,0.0,0.0,0.0,0.0,0.0,0.0,0.0,0.0,0.0,0.0,0.0,0.0,0.0,0.0,0.0,0.0,0.0,0.0,0.0,0.0,0.0,0.0,0.0,0.0,0.0,0.0,0.0,0.0,0.0,0.0,0.0,0.0,0.0,0.0,0.0,0.0,0.0,0.0,0.0,0.0,0.0,0.0,0.0,0.0,0.0,0.0,0.0,0.0,0.0,0.0,0.0,0.0,0.0,0.0,0.0,0.0,0.0,0.0,0.0,0.0,0.0,0.0,0.0,0.0,0.0,0.0,0.0,0.0,0.0,0.0,0.0,0.0,0.0,0.0,0.0,0.0,0.0,0.0,0.0,0.0,0.0,0.0,0.0,0.0,0.0,0.0,0.0,0.0,0.0,0.0,0.0,0.0,0.0,0.0,0.0,0.0,0.0,0.0,0.0,0.0,0.0,0.0,0.0,0.0,0.0,0.0,0.0,0.0,0.0,0.0,0.0,0.0,0.0,0.0,0.0,0.0,0.0,0.0,0.0,0.0,0.0,0.0,0.0,0.0,0.0,0.0,0.0,0.0,0.0,0.0,0.0,0.0,0.0,0.0,0.0,0.0,0.0,0.0,0.0,0.0,0.0,0.0,0.0,0.0,0.0,0.0,0.0,0.0,0.0,0.0,0.0,0.0,0.0,0.0,0.0,0.0,0.0,0.0,0.0,0.0,0.0,0.0,0.0,0.0,0.0,0.0,0.0,0.0,0.0,0.0,0.0,0.0,0.0,0.0,0.0,0.0,0.0,0.0,0.0,0.0,0.0,0.0,0.0,0.0,0.0,0.0,0.0,0.0,0.0,0.0,0.0,0.0,0.0,0.0,0.0,0.0,0.0,0.0,0.0,0.0,0.0,0.0,0.0,0.0,0.0,0.0,0.0,0.0,0.0,0.0,0.0,0.0,0.0,0.0,0.0,0.0,0.0,0.0,0.0,0.0,0.0,0.0,0.0,0.0,0.0,0.0,0.0,0.0,0.0,0.0,0.0,0.0,0.0,0.0,0.0,0.0,0.0,0.0,0.0,0.0,0.0,0.0,0.0,0.0,0.0,0.0,0.0,0.0,0.0,0.0,0.0,0.0,0.0,0.0,0.0,0.0,0.0,0.0,0.0,0.0,0.0,0.0,0.0,0.0,0.0,0.0,0.0,0.0,0.0,0.0,0.0,0.0,0.0,0.0,0.0,0.0,0.0,0.0,0.0,0.0,0.0,0.0,0.0,0.0,0.0,0.0,0.0,0.0,0.0,0.0,0.0,0.0,0.0,0.0,0.0,0.0,0.0,0.0,0.0,0.0,0.0,0.0,0.0,0.0,0.0,0.0,0.0,0.0,0.0,0.0,0.0,0.0,0.0,0.0,0.0,0.0,0.0,0.0,0.0,0.0,0.0,0.0,0.0,0.0,0.0,0.0,0.0,0.0,0.0,0.0,0.0,0.0,0.0,0.0,0.0,0.0,0.0,0.0,0.0,0.0,0.0,0.0,0.0,0.0,0.0,0.0,0.0,0.0,0.0,0.0,0.0,0.0,0.0,0.0,0.0,0.0,0.0,0.0,0.0,0.0,0.0,0.0,0.0,0.0,0.0,0.0,0.0,0.0,0.0,0.0,0.0,0.0,0.0,0.0,0.0,0.0,0.0,0.0,0.0,0.0,0.0,0.0,0.0,0.0,0.0,0.0,0.0,0.0,0.0,0.0,0.0,0.0,0.0,0.0,0.0,0.0,0.0,0.0,0.0,0.0,0.0,0.0,0.0,0.0,0.0,0.0,0.0,0.0,0.0,0.0,0.0,0.0,0.0,0.0,0.0,0.0,0.0,0.0,0.0,0.0,0.0,0.0,0.0,0.0,0.0,0.0,0.0,0.0,0.0,0.0,0.0,0.0,0.0,0.0,0.0,0.0,0.0,0.0,0.0,0.0,0.0,0.0,0.0,0.0,0.0,0.0,0.0,0.0,0.0,0.0,0.0,0.0,0.0,0.0,0.0,0.0,0.0,0.0,0.0,0.0,0.0,0.0,0.0,0.0,0.0,0.0,0.0,0.0,0.0,0.0,0.0,0.0,0.0,0.0,0.0,0.0,0.0,0.0,0.0,0.0,0.0,0.0,0.0,0.0,0.0,0.0,0.0,0.0,0.0,0.0,0.0,0.0,0.0,0.0,0.0,0.0,0.0,0.0,0.0,0.0,0.0,0.0,0.0,0.0,0.0,0.0,0.0,0.0,0.0,0.0,0.0,0.0,0.0,0.0,0.0,0.0,0.0,0.0,0.0,0.0,0.0,0.0,0.0,0.0,0.0,0.0,0.0,0.0,0.0,0.0,0.0,0.0,0.0,0.0,0.0,0.0,0.0,0.0,0.0,0.0,0.0,0.0,0.0,0.0,0.0,0.0,0.0,0.0,0.0,0.0,0.0,0.0,0.0,0.0,0.0,0.0,0.0,0.0,0.0,0.0,0.0,0.0,0.0,0.0,0.0,0.0,0.0,0.0,0.0,0.0,0.0,0.0,0.0,0.0,0.0,0.0,0.0,0.0,0.0,0.0,0.0,0.0,0.0,0.0,0.0,0.0,0.0,0.0,0.0,0.0,0.0,0.0,0.0,0.0,0.0,0.0,0.0,0.0,0.0,0.0,0.0,0.0,0.0,0.0,0.0,0.0,0.0,0.0,0.0,0.0,0.0,0.0,0.0,0.0,0.0,0.0,0.0,0.0,0.0,0.0,0.0,0.0,0.0,0.0,0.0,0.0,0.0,0.0,0.0,0.0,0.0,0.0,0.0,0.0,0.0,0.0,0.0,0.0,0.0,0.0,0.0,0.0,0.0,0.0,0.0,0.0,0.0,0.0,0.0,0.0,0.0,0.0,0.0,0.0,0.0,0.0,0.0,0.0,0.0,0.0,0.0,0.0,0.0,0.0,0.0,0.0,0.0,0.0,0.0,0.0,0.0,0.0,0.0,0.0,0.0,0.0,0.0,0.0,0.0,0.0,0.0,0.0,0.0,0.0,0.0,0.0,0.0,0.0,0.0,0.0,0.0,0.0,0.0,0.0,0.0,0.0,0.0,0.0,0.0,0.0,0.0,0.0,0.0,0.0,0.0,0.0,0.0,0.0,0.0,0.0,0.0,0.0,0.0,0.0,0.0,0.0,0.0,0.0,0.0,0.0,0.0,0.0,0.0,0.0,0.0,0.0,0.0,0.0,0.0,0.0,0.0,0.0,0.0,0.0,0.0,0.0,0.0,0.0,0.0,0.0,0.0,0.0,0.0,0.0,0.0,0.0,0.0,0.0,0.0,0.0,0.0,0.0,0.0,0.0,0.0,0.0,0.0,0.0,0.0,0.0,0.0,0.0,0.0,0.0,0.0,0.0,0.0,0.0,0.0,0.0,0.0,0.0,0.0,0.0,0.0,0.0,0.0,0.0,0.0,0.0,0.0,0.0,0.0,0.0,0.0,0.0,0.0,0.0,0.0,0.0,0.0,0.0,0.0,0.0,0.0,0.0,0.0,0.0,0.0,0.0,0.0,0.0,0.0,0.0,-0.3622,0.0,0.0,0.0,0.0,0.0,0.0,0.0,0.0,0.0,0.0,0.0,0.0,0.0,0.0,0.0,0.0,0.0,0.0,0.0,0.0,0.0,0.0,0.0,0.0,0.0,0.0,0.0,0.0,0.0,0.0,0.0,0.0,0.0,0.0,0.0,0.0,0.0,0.0,0.0,0.0,0.0,0.0,0.0,0.0,0.0,0.0,0.0,0.0,0.0,0.0,0.0,0.0,0.0,0.0,0.0,0.0,0.0,0.0,0.0,0.0,0.0,0.0,0.0,0.0,0.0,0.0,0.0,0.0,0.0,0.0,0.0,0.0,0.0,0.0,0.0,0.0,0.0,0.0,0.0,0.0,0.0,0.0,0.0,0.0,0.0,0.0,0.0,0.0,0.0,0.0,0.0,0.0,0.0,0.0,0.0,0.0,0.0,0.0,0.0,0.0,0.0,0.0,0.0,0.0,0.0,0.0,0.0,0.0,0.0,0.0,-0.3297,-0.3287,-0.3456,-0.3732,-0.4006,0.0,0.0,0.0,0.0,0.0,0.0,0.0,0.0,0.0,0.0,0.0,0.0,0.0,0.0,0.0,0.0,0.0,0.0,0.0,0.0,0.0,0.0,0.0,0.0,0.0,0.0,0.0,0.0,0.0,0.0,0.0,0.0,0.0,0.0,0.0,0.0,0.0,0.0,0.0,0.0,0.0,0.0,0.0,0.0,0.0,0.0,0.0,0.0,0.0,0.0,0.0,0.0,0.0,0.0,0.0,0.0,0.0,0.0,0.0,0.0,0.0,0.0,0.0,0.0,0.0,0.0,0.0,0.0,0.0,0.0,0.0,0.0,0.0,0.0,0.0,0.0,0.0,0.0,0.0,0.0,0.0,0.0,0.0,0.0,0.0,0.0,0.0,0.0,0.0,0.0,0.0,0.0,0.0,0.0,0.0,0.0,0.0,0.0,0.0,0.0,0.0,0.0,0.0,0.0,0.0,0.0,0.0,0.0,0.0,0.0,0.0,0.0,-0.4061,-0.4395,-0.4611,0.0,0.0,0.0,0.0,0.0,0.0,0.0,0.0,0.0,0.0,0.0,0.0,0.0,0.0,0.0,0.0,0.0,0.0,0.0,0.0,0.0,0.0,0.0,0.0,0.0,0.0,0.0,0.0,0.0,0.0,0.0,0.0,0.0,0.0,0.0,0.0,0.0,0.0,0.0,0.0,0.0,0.0,0.0,0.0,0.0,0.0,0.0,0.0,0.0,0.0,0.0,0.0,0.0,0.0,0.0,0.0,0.0,0.0,0.0,0.0,0.0,0.0,0.0,0.0,0.0,0.0,0.0,0.0,0.0,0.0,0.0,0.0,0.0,0.0,0.0,0.0,0.0,0.0,0.0,0.0,0.0,0.0,0.0,0.0,0.0,0.0,0.0,0.0,0.0,0.0,0.0,0.0,0.0,0.0,0.0,0.0,0.0,0.0,0.0,0.0,0.0,0.0,0.0,0.0,0.0,0.0,0.0,0.0,0.0,0.0,-0.4346,-0.4732,-0.5058,0.0,-0.6312,0.0,0.0,0.0,0.0,0.0,0.0,0.0,0.0,0.0,0.0,0.0,0.0,0.0,0.0,0.0,0.0,0.0,0.0,0.0,0.0,0.0,0.0,0.0,0.0,0.0,0.0,0.0,0.0,0.0,0.0,0.0,0.0,0.0,0.0,0.0,0.0,0.0,0.0,0.0,0.0,0.0,0.0,0.0,0.0,0.0,0.0,0.0,0.0,0.0,0.0,0.0,0.0,0.0,0.0,0.0,0.0,0.0,0.0,0.0,0.0,0.0,0.0,0.0,0.0,0.0,0.0,0.0,0.0,0.0,0.0,0.0,0.0,0.0,0.0,0.0,0.0,0.0,0.0,0.0,0.0,0.0,0.0,0.0,0.0,0.0,0.0,0.0,0.0,0.0,0.0,0.0,0.0,0.0,0.0,0.0,0.0,0.0,0.0,0.0,0.0,0.0,0.0,0.0,0.0,0.0,0.0,0.0,0.0,0.0,0.0,-0.5437,-0.5344,-0.5991,-0.6647,0.0,0.0,0.0,0.0,0.0,0.0,0.0,0.0,0.0,0.0,0.0,0.0,0.0,0.0,0.0,0.0,0.0,0.0,0.0,0.0,0.0,0.0,0.0,0.0,0.0,0.0,0.0,0.0,0.0,0.0,0.0,0.0,0.0,0.0,0.0,0.0,0.0,0.0,0.0,0.0,0.0,0.0,0.0,0.0,0.0,0.0,0.0,0.0,0.0,0.0,0.0,0.0,0.0,0.0,0.0,0.0,0.0,0.0,0.0,0.0,0.0,0.0,0.0,0.0,0.0,0.0,0.0,0.0,0.0,0.0,0.0,0.0,0.0,0.0,0.0,0.0,0.0,0.0,0.0,0.0,0.0,0.0,0.0,0.0,0.0,0.0,0.0,0.0,0.0,0.0,0.0,0.0,0.0,0.0,0.0,0.0,0.0,0.0,0.0,0.0,0.0,0.0,0.0,0.0,0.0,0.0,0.0,0.0,0.0,0.0,-0.6176,-0.6913,-0.7116,-0.7357,-0.7894,-0.8776,0.0,0.0,0.0,0.0,0.0,0.0,0.0,0.0,0.0,0.0,0.0,0.0,0.0,0.0,0.0,0.0,0.0,0.0,0.0,0.0,0.0,0.0,0.0,0.0,0.0,0.0,0.0,0.0,0.0,0.0,0.0,0.0,0.0,0.0,0.0,0.0,0.0,0.0,0.0,0.0,0.0,0.0,0.0,0.0,0.0,0.0,0.0,0.0,0.0,0.0,0.0,0.0,0.0,0.0,0.0,0.0,0.0,0.0,0.0,0.0,0.0,0.0,0.0,0.0,0.0,0.0,0.0,0.0,0.0,0.0,0.0,0.0,0.0,0.0,0.0,0.0,0.0,0.0,0.0,0.0,0.0,0.0,0.0,0.0,0.0,0.0,0.0,0.0,0.0,0.0,0.0,0.0,0.0,0.0,0.0,0.0,0.0,0.0,0.0,0.0,0.0,0.0,0.0,0.0,0.0,0.0,0.0,0.0,-0.5003,-0.6924,-0.8854,-1.0615,-0.9351,-0.9511,0.0,0.0,0.0,0.0,0.0,0.0,0.0,0.0,0.0,0.0,0.0,0.0,0.0,0.0,0.0,0.0,0.0,0.0,0.0,0.0,0.0,0.0,0.0,0.0,0.0,0.0,0.0,0.0,0.0,0.0,0.0,0.0,0.0,0.0,0.0,0.0,0.0,0.0,0.0,0.0,0.0,0.0,0.0,0.0,0.0,0.0,0.0,0.0,0.0,0.0,0.0,0.0,0.0,0.0,0.0,0.0,0.0,0.0,0.0,0.0,0.0,0.0,0.0,0.0,0.0,0.0,0.0,0.0,0.0,0.0,0.0,0.0,0.0,0.0,0.0,0.0,0.0,0.0,0.0,0.0,0.0,0.0,0.0,0.0,0.0,0.0,0.0,0.0,0.0,0.0,0.0,0.0,0.0,0.0,0.0,0.0,0.0,0.0,0.0,0.0,0.0,0.0,0.0,0.0,0.0,0.0,0.0,0.0,0.0,-0.8526,-1.0287,-1.1544,-1.2241,-1.1702,-1.193,0.0,0.0,0.0,0.0,0.0,0.0,0.0,0.0,0.0,0.0,0.0,0.0,0.0,0.0,0.0,0.0,0.0,0.0,0.0,0.0,0.0,0.0,0.0,0.0,0.0,0.0,0.0,0.0,0.0,0.0,0.0,0.0,0.0,0.0,0.0,0.0,0.0,0.0,0.0,0.0,0.0,0.0,0.0,0.0,0.0,0.0,0.0,0.0,0.0,0.0,0.0,0.0,0.0,0.0,0.0,0.0,0.0,0.0,0.0,0.0,0.0,0.0,0.0,0.0,0.0,0.0,0.0,0.0,0.0,0.0,0.0,0.0,0.0,0.0,0.0,0.0,0.0,0.0,0.0,0.0,0.0,0.0,0.0,0.0,0.0,0.0,0.0,0.0,0.0,0.0,0.0,0.0,0.0,0.0,0.0,0.0,0.0,0.0,0.0,0.0,0.0,0.0,0.0,0.0,0.0,0.0,0.0,0.0,0.0,-1.2073,0.0,-1.363,-1.4618,-1.4127,-1.4205,0.0,0.0,0.0,0.0,0.0,0.0,0.0,0.0,0.0,0.0,0.0,0.0,0.0,0.0,0.0,0.0,0.0,0.0,0.0,0.0,0.0,0.0,0.0,0.0,0.0,0.0,0.0,0.0,0.0,0.0,0.0,0.0,0.0,0.0,0.0,0.0,0.0,0.0,0.0,0.0,0.0,0.0,0.0,0.0,0.0,0.0,0.0,0.0,0.0,0.0,0.0,0.0,0.0,0.0,0.0,0.0,0.0,0.0,0.0,0.0,0.0,0.0,0.0,0.0,0.0,0.0,0.0,0.0,0.0,0.0,0.0,0.0,0.0,0.0,0.0,0.0,0.0,0.0,0.0,0.0,0.0,0.0,0.0,0.0,0.0,0.0,0.0,0.0,0.0,0.0,0.0,0.0,0.0,0.0,0.0,0.0,0.0,0.0,0.0,0.0,0.0,0.0,0.0,0.0,0.0,0.0,0.0,0.0,-1.1515,-1.5259,-1.4243,-1.5145,-1.7995,-1.6532,-1.6333,0.0,0.0,0.0,0.0,0.0,0.0,0.0,0.0,0.0,0.0,0.0,0.0,0.0,0.0,0.0,0.0,0.0,0.0,0.0,0.0,0.0,0.0,0.0,0.0,0.0,0.0,0.0,0.0,0.0,0.0,0.0,0.0,0.0,0.0,0.0,0.0,0.0,0.0,0.0,0.0,0.0,0.0,0.0,0.0,0.0,0.0,0.0,0.0,0.0,0.0,0.0,0.0,0.0,0.0,0.0,0.0,0.0,0.0,0.0,0.0,0.0,0.0,0.0,0.0,0.0,0.0,0.0,0.0,0.0,0.0,0.0,0.0,0.0,0.0,0.0,0.0,0.0,0.0,0.0,0.0,0.0,0.0,0.0,0.0,0.0,0.0,0.0,0.0,0.0,0.0,0.0,0.0,0.0,0.0,0.0,0.0,0.0,0.0,0.0,0.0,0.0,0.0,0.0,0.0,0.0,0.0,0.0,0.0,0.0,-1.7649,-1.8087,-1.8797,-1.9783,-1.8838,-1.8589,0.0,0.0,0.0,0.0,0.0,0.0,0.0,0.0,0.0,0.0,0.0,0.0,0.0,0.0,0.0,0.0,0.0,0.0,0.0,0.0,0.0,0.0,0.0,0.0,0.0,0.0,0.0,0.0,0.0,0.0,0.0,0.0,0.0,0.0,0.0,0.0,0.0,0.0,0.0,0.0,0.0,0.0,0.0,0.0,0.0,0.0,0.0,0.0,0.0,0.0,0.0,0.0,0.0,0.0,0.0,0.0,0.0,0.0,0.0,0.0,0.0,0.0,0.0,0.0,0.0,0.0,0.0,0.0,0.0,0.0,0.0,0.0,0.0,0.0,0.0,0.0,0.0,0.0,0.0,0.0,0.0,0.0,0.0,0.0,0.0,0.0,0.0,0.0,0.0,0.0,0.0,0.0,0.0,0.0,0.0,0.0,0.0,0.0,0.0,0.0,0.0,0.0,0.0,0.0,0.0,0.0,0.0,0.0,0.0,-2.0152,-2.0789,-2.1209,-2.1423,-2.0771,-2.0326,-2.0158,0.0,0.0,0.0,0.0,0.0,0.0,0.0,0.0,0.0,0.0,0.0,0.0,0.0,0.0,0.0,0.0,0.0,0.0,0.0,0.0,0.0,0.0,0.0,0.0,0.0,0.0,0.0,0.0,0.0,0.0,0.0,0.0,0.0,0.0,0.0,0.0,0.0,0.0,0.0,0.0,0.0,0.0,0.0,0.0,0.0,0.0,0.0,0.0,0.0,0.0,0.0,0.0,0.0,0.0,0.0,0.0,0.0,0.0,0.0,0.0,0.0,0.0,0.0,0.0,0.0,0.0,0.0,0.0,0.0,0.0,0.0,0.0,0.0,0.0,0.0,0.0,0.0,0.0,0.0,0.0,0.0,0.0,0.0,0.0,0.0,0.0,0.0,0.0,0.0,0.0,0.0,0.0,0.0,0.0,0.0,0.0,0.0,0.0,0.0,0.0,0.0,0.0,0.0,0.0,0.0,0.0,0.0,0.0,-2.2635,-2.2459,-2.2524,-2.2828,-2.2252,-2.1534,0.0,0.0,0.0,0.0,0.0,0.0,0.0,0.0,0.0,0.0,0.0,0.0,0.0,0.0,0.0,0.0,0.0,0.0,0.0,0.0,0.0,0.0,0.0,0.0,0.0,0.0,0.0,0.0,0.0,0.0,0.0,0.0,0.0,0.0,0.0,0.0,0.0,0.0,0.0,0.0,0.0,0.0,0.0,0.0,0.0,0.0,0.0,0.0,0.0,0.0,0.0,0.0,0.0,0.0,0.0,0.0,0.0,0.0,0.0,0.0,0.0,0.0,0.0,0.0,0.0,0.0,0.0,0.0,0.0,0.0,0.0,0.0,0.0,0.0,0.0,0.0,0.0,0.0,0.0,0.0,0.0,0.0,0.0,0.0,0.0,0.0,0.0,0.0,0.0,0.0,0.0,0.0,0.0,0.0,0.0,0.0,0.0,0.0,0.0,0.0,0.0,0.0,0.0,0.0,0.0,0.0,0.0,0.0,0.0,-2.4359,-2.4599,-2.4379,-2.3637,-2.2748,-2.2009,0.0,0.0,0.0,0.0,0.0,0.0,0.0,0.0,0.0,0.0,0.0,0.0,0.0,0.0,0.0,0.0,0.0,0.0,0.0,0.0,0.0,0.0,0.0,0.0,0.0,0.0,0.0,0.0,0.0,0.0,0.0,0.0,0.0,0.0,0.0,0.0,0.0,0.0,0.0,0.0,0.0,0.0,0.0,0.0,0.0,0.0,0.0,0.0,0.0,0.0,0.0,0.0,0.0,0.0,0.0,0.0,0.0,0.0,0.0,0.0,0.0,0.0,0.0,0.0,0.0,0.0,0.0,0.0,0.0,0.0,0.0,0.0,0.0,0.0,0.0,0.0,0.0,0.0,0.0,0.0,0.0,0.0,0.0,0.0,0.0,0.0,0.0,0.0,0.0,0.0,0.0,0.0,0.0,0.0,0.0,0.0,0.0,0.0,0.0,0.0,0.0,0.0,0.0,0.0,0.0,0.0,0.0,0.0,-2.4058,-2.5136,-2.5941,-2.5958,-2.508,-2.3733,-2.2654,0.0,0.0,0.0,0.0,0.0,0.0,0.0,0.0,0.0,0.0,0.0,0.0,0.0,0.0,0.0,0.0,0.0,0.0,0.0,0.0,0.0,0.0,0.0,0.0,0.0,0.0,0.0,0.0,0.0,0.0,0.0,0.0,0.0,0.0,0.0,0.0,0.0,0.0,0.0,0.0,0.0,0.0,0.0,0.0,0.0,0.0,0.0,0.0,0.0,0.0,0.0,0.0,0.0,0.0,0.0,0.0,0.0,0.0,0.0,0.0,0.0,0.0,0.0,0.0,0.0,0.0,0.0,0.0,0.0,0.0,0.0,0.0,0.0,0.0,0.0,0.0,0.0,0.0,0.0,0.0,0.0,0.0,0.0,0.0,0.0,0.0,0.0,0.0,0.0,0.0,0.0,0.0,0.0,0.0,0.0,0.0,0.0,0.0,0.0,0.0,0.0,0.0,0.0,0.0,0.0,0.0,0.0,0.0,-2.5131,-2.5342,-2.667,-2.7166,-2.6708,-2.486,-2.3335,0.0,0.0,0.0,0.0,0.0,0.0,0.0,0.0,0.0,0.0,0.0,0.0,0.0,0.0,0.0,0.0,0.0,0.0,0.0,0.0,0.0,0.0,0.0,0.0,0.0,0.0,0.0,0.0,0.0,0.0,0.0,0.0,0.0,0.0,0.0,0.0,0.0,0.0,0.0,0.0,0.0,0.0,0.0,0.0,0.0,0.0,0.0,0.0,0.0,0.0,0.0,0.0,0.0,0.0,0.0,0.0,0.0,0.0,0.0,0.0,0.0,0.0,0.0,0.0,0.0,0.0,0.0,0.0,0.0,0.0,0.0,0.0,0.0,0.0,0.0,0.0,0.0,0.0,0.0,0.0,0.0,0.0,0.0,0.0,0.0,0.0,0.0,0.0,0.0,0.0,0.0,0.0,0.0,0.0,0.0,0.0,0.0,0.0,0.0,0.0,0.0,0.0,0.0,0.0,0.0,0.0,0.0,0.0,-2.5579,-2.615,-2.6948,-2.7247,-2.6942,-2.4962,-2.3614,0.0,0.0,0.0,0.0,0.0,0.0,0.0,0.0,0.0,0.0,0.0,0.0,0.0,0.0,0.0,0.0,0.0,0.0,0.0,0.0,0.0,0.0,0.0,0.0,0.0,0.0,0.0,0.0,0.0,0.0,0.0,0.0,0.0,0.0,0.0,0.0,0.0,0.0,0.0,0.0,0.0,0.0,0.0,0.0,0.0,0.0,0.0,0.0,-2.4515,0.0,0.0,0.0,0.0,0.0,0.0,0.0,0.0,0.0,0.0,0.0,0.0,0.0,0.0,0.0,0.0,0.0,0.0,0.0,0.0,0.0,0.0,0.0,0.0,0.0,0.0,0.0,0.0,0.0,0.0,0.0,0.0,0.0,0.0,0.0,0.0,0.0,0.0,0.0,0.0,0.0,0.0,0.0,0.0,0.0,0.0,0.0,0.0,0.0,0.0,0.0,0.0,0.0,0.0,0.0,0.0,0.0,0.0,0.0,-2.575,-2.6423,-2.7065,-2.7279,-2.6957,-2.5313,-2.4095,0.0,0.0,0.0,0.0,0.0,0.0,0.0,0.0,0.0,0.0,0.0,0.0,0.0,0.0,0.0,0.0,0.0,0.0,0.0,0.0,0.0,0.0,0.0,0.0,0.0,0.0,0.0,0.0,0.0,0.0,0.0,0.0,0.0,0.0,0.0,0.0,0.0,0.0,0.0,0.0,0.0,0.0,0.0,0.0,0.0,0.0,0.0,0.0,0.0,0.0,0.0,0.0,0.0,0.0,0.0,0.0,0.0,0.0,0.0,0.0,0.0,0.0,0.0,0.0,0.0,0.0,0.0,0.0,0.0,0.0,0.0,0.0,0.0,0.0,0.0,0.0,0.0,0.0,0.0,0.0,0.0,0.0,0.0,0.0,0.0,0.0,0.0,0.0,0.0,0.0,0.0,0.0,0.0,0.0,0.0,0.0,0.0,0.0,0.0,0.0,0.0,0.0,0.0,0.0,0.0,0.0,0.0,-2.279,-2.5858,-2.6656,-2.7135,-2.7247,-2.6975,-2.5614,-2.4646,-2.4065,0.0,0.0,0.0,0.0,0.0,0.0,0.0,0.0,0.0,0.0,0.0,0.0,0.0,0.0,0.0,0.0,0.0,0.0,0.0,0.0,0.0,0.0,0.0,0.0,0.0,0.0,0.0,0.0,0.0,0.0,0.0,0.0,0.0,0.0,0.0,0.0,0.0,0.0,-2.5496,-2.4801,0.0,0.0,0.0,0.0,0.0,0.0,0.0,0.0,-2.4891,0.0,0.0,0.0,0.0,0.0,0.0,0.0,0.0,0.0,0.0,0.0,0.0,0.0,0.0,0.0,0.0,0.0,0.0,0.0,0.0,0.0,0.0,0.0,0.0,0.0,0.0,0.0,0.0,0.0,0.0,0.0,0.0,0.0,0.0,0.0,0.0,0.0,0.0,0.0,0.0,0.0,0.0,0.0,0.0,0.0,0.0,0.0,0.0,0.0,0.0,0.0,0.0,0.0,0.0,0.0,0.0,-2.42,-2.5208,-2.6241,-2.73,-2.7255,-2.7135,-2.6892,-2.5562,-2.4696,-2.4402,0.0,0.0,0.0,0.0,0.0,0.0,0.0,0.0,0.0,0.0,0.0,0.0,0.0,0.0,0.0,0.0,0.0,0.0,0.0,0.0,0.0,0.0,0.0,0.0,0.0,0.0,0.0,0.0,0.0,0.0,0.0,0.0,0.0,0.0,0.0,0.0,0.0,0.0,0.0,-2.5668,-2.4976,0.0,0.0,0.0,0.0,0.0,0.0,0.0,0.0,-2.5946,0.0,0.0,0.0,0.0,0.0,0.0,0.0,0.0,0.0,0.0,0.0,0.0,0.0,0.0,0.0,0.0,0.0,0.0,0.0,0.0,0.0,0.0,0.0,0.0,0.0,0.0,0.0,0.0,0.0,0.0,0.0,0.0,0.0,0.0,0.0,0.0,0.0,0.0,0.0,0.0,0.0,0.0,0.0,0.0,0.0,0.0,0.0,0.0,0.0,0.0,0.0,0.0,0.0,0.0,0.0,-2.5463,-2.6047,-2.6616,-2.743,-2.7198,-2.699,-2.6725,-2.5458,-2.4645,0.0,0.0,0.0,0.0,0.0,0.0,0.0,0.0,0.0,0.0,0.0,0.0,0.0,0.0,0.0,0.0,0.0,0.0,0.0,0.0,0.0,0.0,0.0,0.0,0.0,0.0,0.0,0.0,0.0,0.0,0.0,0.0,0.0,0.0,0.0,0.0,0.0,0.0,0.0,0.0,-2.642,-2.5912,-2.6673,0.0,0.0,0.0,0.0,0.0,0.0,-2.6264,-2.617,0.0,0.0,0.0,0.0,0.0,0.0,0.0,0.0,0.0,0.0,0.0,0.0,0.0,0.0,0.0,0.0,0.0,0.0,0.0,0.0,0.0,0.0,0.0,0.0,0.0,0.0,0.0,0.0,0.0,0.0,0.0,0.0,0.0,0.0,0.0,0.0,0.0,0.0,0.0,0.0,0.0,0.0,0.0,0.0,0.0,0.0,0.0,0.0,0.0,0.0,0.0,0.0,0.0,0.0,0.0,-2.5394,-2.6267,-2.6842,-2.7321,-2.7137,-2.6909,-2.6674,-2.5325,-2.453,0.0,0.0,0.0,0.0,0.0,0.0,0.0,0.0,0.0,0.0,0.0,0.0,0.0,0.0,0.0,0.0,0.0,0.0,0.0,0.0,0.0,0.0,0.0,0.0,0.0,0.0,0.0,0.0,0.0,0.0,0.0,0.0,0.0,0.0,0.0,0.0,0.0,0.0,0.0,0.0,0.0,-2.6707,-2.7458,-2.6702,0.0,0.0,0.0,0.0,-2.6344,-2.6541,0.0,0.0,0.0,0.0,0.0,0.0,0.0,0.0,0.0,0.0,0.0,0.0,0.0,0.0,0.0,0.0,0.0,0.0,0.0,0.0,0.0,0.0,0.0,0.0,0.0,0.0,0.0,0.0,0.0,0.0,0.0,0.0,0.0,0.0,0.0,0.0,0.0,0.0,0.0,0.0,0.0,0.0,0.0,0.0,0.0,0.0,0.0,0.0,0.0,0.0,0.0,0.0,0.0,0.0,0.0,0.0,-2.5491,-2.6239,-2.6796,-2.721,-2.7135,-2.7038,-2.6925,-2.5209,-2.4387,0.0,0.0,0.0,0.0,0.0,0.0,0.0,0.0,0.0,0.0,0.0,0.0,0.0,0.0,0.0,0.0,0.0,0.0,0.0,0.0,0.0,0.0,0.0,0.0,0.0,0.0,0.0,0.0,0.0,0.0,0.0,0.0,0.0,0.0,0.0,0.0,0.0,0.0,0.0,0.0,0.0,-2.6809,-2.7651,-2.6803,-2.6143,0.0,0.0,-2.738,-2.7503,-2.8207,0.0,0.0,0.0,0.0,0.0,0.0,0.0,0.0,0.0,0.0,0.0,0.0,0.0,0.0,0.0,0.0,0.0,0.0,0.0,0.0,0.0,0.0,0.0,0.0,0.0,0.0,0.0,0.0,0.0,0.0,0.0,0.0,0.0,0.0,0.0,0.0,0.0,0.0,0.0,0.0,0.0,0.0,0.0,0.0,0.0,0.0,0.0,0.0,0.0,0.0,0.0,0.0,0.0,0.0,0.0,-2.5226,-2.5517,-2.6634,-2.728,-2.74,-2.7321,-2.7227,-2.712,-2.5285,-2.452,0.0,0.0,0.0,0.0,0.0,0.0,0.0,0.0,0.0,0.0,0.0,0.0,0.0,0.0,0.0,0.0,0.0,0.0,0.0,0.0,0.0,0.0,0.0,0.0,0.0,0.0,0.0,0.0,0.0,0.0,0.0,0.0,0.0,0.0,0.0,0.0,0.0,0.0,0.0,0.0,0.0,0.0,-2.7875,-2.742,0.0,0.0,0.0,-2.7562,-2.7105,0.0,0.0,0.0,0.0,0.0,0.0,0.0,0.0,0.0,0.0,0.0,0.0,0.0,0.0,0.0,0.0,0.0,0.0,0.0,0.0,0.0,0.0,0.0,0.0,0.0,0.0,0.0,0.0,0.0,0.0,0.0,0.0,0.0,0.0,0.0,0.0,0.0,0.0,0.0,0.0,0.0,0.0,0.0,0.0,0.0,0.0,0.0,0.0,0.0,0.0,0.0,0.0,0.0,0.0,0.0,0.0,0.0,-2.5649,-2.7098,-2.7789,-2.7689,-2.7535,-2.7413,-2.7303,-2.5675,0.0,0.0,0.0,0.0,0.0,0.0,0.0,0.0,0.0,0.0,0.0,0.0,0.0,0.0,0.0,0.0,0.0,0.0,0.0,0.0,0.0,0.0,0.0,0.0,0.0,0.0,0.0,-2.5553,0.0,0.0,0.0,0.0,0.0,0.0,0.0,0.0,0.0,0.0,0.0,0.0,0.0,0.0,-2.8024,-2.8025,-2.7904,-2.7881,0.0,0.0,-2.7719,-2.7285,-2.8521,-2.8965,0.0,0.0,0.0,0.0,0.0,0.0,0.0,0.0,0.0,0.0,0.0,0.0,0.0,0.0,0.0,0.0,0.0,0.0,0.0,0.0,0.0,0.0,0.0,0.0,0.0,0.0,0.0,0.0,0.0,0.0,0.0,0.0,0.0,0.0,0.0,0.0,0.0,0.0,0.0,0.0,0.0,0.0,0.0,0.0,0.0,0.0,0.0,0.0,0.0,0.0,0.0,0.0,0.0,0.0,0.0,-2.6038,-2.7424,-2.8073,-2.7869,-2.7672,-2.763,-2.7654,-2.6588,-2.5825,0.0,0.0,0.0,0.0,0.0,0.0,0.0,0.0,0.0,0.0,0.0,0.0,0.0,0.0,0.0,0.0,0.0,0.0,0.0,0.0,0.0,0.0,0.0,0.0,0.0,0.0,0.0,0.0,0.0,0.0,0.0,0.0,0.0,0.0,0.0,0.0,0.0,0.0,0.0,0.0,0.0,-2.8082,-2.8094,-2.7923,-2.8135,0.0,0.0,-2.8112,-2.8975,-2.9863,-2.9928,-2.8266,0.0,0.0,0.0,0.0,0.0,0.0,0.0,0.0,0.0,0.0,0.0,0.0,0.0,0.0,0.0,0.0,0.0,0.0,0.0,0.0,0.0,0.0,0.0,0.0,0.0,0.0,0.0,0.0,0.0,0.0,0.0,0.0,0.0,0.0,0.0,0.0,0.0,0.0,0.0,0.0,0.0,0.0,0.0,0.0,0.0,0.0,0.0,0.0,0.0,0.0,0.0,0.0,0.0,-2.5959,-2.596,-2.7502,-2.8237,-2.8101,-2.7989,-2.7876,-2.7701,-2.6777,-2.6079,0.0,0.0,0.0,0.0,0.0,0.0,0.0,0.0,0.0,0.0,0.0,0.0,0.0,0.0,0.0,0.0,0.0,0.0,0.0,0.0,0.0,0.0,0.0,0.0,0.0,0.0,0.0,0.0,-2.7663,-2.7789,-2.698,0.0,0.0,0.0,0.0,0.0,0.0,0.0,0.0,0.0,0.0,-2.8276,-2.8783,-2.8797,0.0,0.0,-2.901,-2.8728,-2.8581,-2.928,-2.929,-2.7575,-2.7346,0.0,0.0,0.0,0.0,0.0,0.0,0.0,0.0,0.0,0.0,0.0,0.0,0.0,0.0,0.0,0.0,0.0,0.0,0.0,0.0,0.0,0.0,0.0,0.0,0.0,0.0,0.0,0.0,0.0,0.0,0.0,0.0,0.0,0.0,0.0,0.0,0.0,0.0,0.0,0.0,0.0,0.0,0.0,0.0,0.0,0.0,0.0,0.0,0.0,0.0,0.0,0.0,-2.6136,-2.611,-2.794,-2.8783,-2.864,-2.879,-2.8756,-2.8476,-2.7792,-2.7227,0.0,0.0,0.0,0.0,0.0,0.0,0.0,0.0,0.0,0.0,0.0,0.0,0.0,0.0,0.0,0.0,0.0,0.0,0.0,0.0,0.0,0.0,0.0,0.0,0.0,0.0,0.0,0.0,-2.754,-2.7478,-2.6916,0.0,0.0,0.0,0.0,0.0,0.0,0.0,0.0,0.0,0.0,-2.8559,-2.8872,-2.8977,-2.8988,-2.8934,-2.8768,-2.8547,-2.8191,-2.865,-2.8626,-2.7454,0.0,0.0,0.0,0.0,0.0,0.0,0.0,0.0,0.0,0.0,0.0,0.0,0.0,0.0,0.0,0.0,0.0,0.0,0.0,0.0,0.0,0.0,0.0,0.0,0.0,0.0,0.0,0.0,0.0,0.0,-2.1023,0.0,0.0,0.0,0.0,0.0,0.0,0.0,0.0,0.0,0.0,0.0,0.0,0.0,0.0,0.0,0.0,0.0,0.0,0.0,0.0,0.0,0.0,-2.6667,-2.6628,-2.8797,-2.9849,-2.971,-3.017,-3.0332,-3.0203,-2.9887,-2.9611,-2.9358,0.0,0.0,0.0,0.0,0.0,0.0,0.0,0.0,0.0,0.0,0.0,0.0,0.0,0.0,0.0,0.0,0.0,0.0,0.0,0.0,0.0,0.0,0.0,0.0,0.0,0.0,-2.5716,-2.6331,-2.6837,0.0,0.0,0.0,0.0,0.0,0.0,0.0,0.0,0.0,0.0,-2.8272,-2.8969,-2.8175,-2.8083,-2.8182,-2.8182,-2.752,-2.7272,-2.8079,-2.8218,-2.8232,0.0,0.0,0.0,0.0,0.0,0.0,0.0,0.0,0.0,0.0,0.0,0.0,0.0,0.0,0.0,0.0,0.0,0.0,0.0,0.0,0.0,0.0,0.0,0.0,0.0,0.0,0.0,-2.1014,-2.1426,0.0,0.0,0.0,0.0,0.0,0.0,0.0,0.0,0.0,0.0,0.0,-2.5163,-2.5481,0.0,0.0,0.0,0.0,0.0,0.0,0.0,0.0,0.0,0.0,0.0,0.0,-2.783,-2.7292,-2.9501,-3.0794,-3.0962,-3.0653,-3.033,-2.9974,-3.0068,-2.9988,-2.971,0.0,0.0,0.0,0.0,0.0,0.0,0.0,0.0,0.0,0.0,0.0,0.0,0.0,0.0,0.0,0.0,0.0,0.0,0.0,0.0,0.0,0.0,0.0,0.0,0.0,-2.6794,0.0,0.0,0.0,0.0,0.0,0.0,0.0,0.0,0.0,0.0,0.0,-2.7287,-2.7702,-2.7846,-2.7934,-2.8039,-2.8042,-2.824,0.0,0.0,0.0,0.0,0.0,0.0,0.0,0.0,0.0,0.0,0.0,0.0,0.0,0.0,-2.7166,-2.6639,-2.7009,-2.7436,-2.7438,0.0,0.0,0.0,0.0,0.0,0.0,0.0,0.0,0.0,0.0,0.0,0.0,0.0,0.0,-2.1793,0.0,-2.2408,0.0,0.0,0.0,0.0,0.0,0.0,0.0,0.0,-2.5342,-2.5932,-2.6264,-2.6845,-2.7299,0.0,-2.7601,-2.6868,0.0,0.0,0.0,0.0,0.0,0.0,0.0,0.0,-2.8542,-2.7955,-3.0214,-3.1498,-3.1619,-3.1367,-3.1052,-3.0746,-3.1083,-3.1224,-3.1164,-3.0626,-3.0179,0.0,0.0,0.0,0.0,0.0,0.0,0.0,0.0,0.0,0.0,0.0,0.0,0.0,0.0,0.0,0.0,0.0,0.0,0.0,0.0,0.0,0.0,0.0,-2.7069,0.0,0.0,0.0,0.0,0.0,0.0,0.0,0.0,0.0,-2.6909,-2.7305,-2.7768,-2.8164,-2.8046,-2.7861,-2.7629,0.0,0.0,0.0,0.0,0.0,0.0,0.0,-2.6898,-2.6644,-2.6854,-2.7225,-2.7756,-2.8083,-2.8262,-2.8223,0.0,0.0,-2.7576,-2.789,-2.8261,-2.8262,-2.822,-2.8217,-2.8259,-2.8271,-2.8257,0.0,0.0,0.0,0.0,0.0,0.0,0.0,0.0,-2.2272,-2.2194,0.0,-2.321,0.0,0.0,0.0,0.0,0.0,-2.4712,0.0,0.0,-2.7379,-2.8244,-2.7977,-2.8641,-2.9113,-2.9428,-2.8838,-2.8652,-2.8803,-2.8504,0.0,0.0,0.0,0.0,0.0,0.0,-2.8905,-2.888,-3.0948,-3.1936,-3.1765,-3.2264,-3.2539,-3.2387,-3.2848,-3.3237,-3.3633,-3.3198,-3.3086,-3.3212,-3.041,0.0,0.0,0.0,0.0,0.0,0.0,0.0,0.0,0.0,0.0,0.0,0.0,0.0,0.0,0.0,0.0,0.0,0.0,0.0,0.0,-2.7477,0.0,0.0,0.0,0.0,0.0,0.0,0.0,0.0,0.0,0.0,-2.693,-2.7671,-2.8207,-2.8147,0.0,0.0,0.0,0.0,-2.7488,-2.5991,-2.5777,-2.5822,-2.5898,-2.6546,-2.7327,-2.8125,0.0,0.0,-2.953,-2.8865,-2.8455,-2.8488,-2.9207,-2.9345,-2.8593,-2.8418,-2.8359,-2.8354,-2.841,-2.8328,-2.8296,-2.8544,-2.8535,-2.1216,0.0,0.0,0.0,0.0,-2.214,-2.2809,-2.3622,-2.3438,-2.3458,-2.3667,-2.4265,0.0,0.0,0.0,0.0,0.0,0.0,-2.719,-2.7936,-2.8604,-2.926,-2.9948,-3.0341,-3.0766,-3.1193,-3.1119,-3.1345,-3.1761,-3.1802,-3.0677,-2.8511,0.0,0.0,0.0,0.0,-3.064,-3.103,-3.2162,-3.2678,-3.2406,-3.2497,-3.2623,-3.2834,-3.3142,-3.356,-3.4055,-3.3926,-3.3732,-3.3488,-3.2655,0.0,0.0,0.0,0.0,0.0,0.0,0.0,0.0,0.0,0.0,0.0,0.0,0.0,0.0,0.0,0.0,0.0,0.0,0.0,-2.9195,-2.8965,-2.8436,0.0,0.0,0.0,0.0,0.0,0.0,0.0,0.0,0.0,-2.7249,-2.8131,-2.8392,0.0,0.0,-2.6443,-2.6032,-2.6651,-2.724,-2.7434,-2.7472,0.0,-2.8247,-2.8057,-2.7933,-2.8189,-2.8922,-2.9706,-3.0313,-3.0732,-3.1191,-3.1777,-3.2121,-3.2207,-3.1912,-3.0882,-3.0121,-3.0057,-3.0063,-3.0053,-3.0082,-3.054,-3.1008,-2.2562,-2.2132,-2.2386,-2.2636,-2.2823,-2.3118,-2.3725,-2.4476,-2.4397,-2.4366,-2.4442,-2.5504,-2.543,-2.4627,-2.5518,0.0,0.0,0.0,-2.8566,-2.9501,-2.9905,-3.0552,-3.1353,-3.1828,-3.2237,-3.2635,-3.2794,-3.3021,-3.3321,-3.3156,-3.2182,-3.0485,0.0,0.0,-3.0505,-3.1193,-3.1671,-3.1931,-3.2649,-3.2894,-3.2663,-3.2603,-3.2784,-3.322,-3.3368,-3.3689,-3.4173,-3.4274,-3.4258,-3.4112,-3.354,-3.2768,0.0,0.0,0.0,0.0,0.0,0.0,0.0,0.0,0.0,0.0,0.0,-3.0317,-2.9847,0.0,0.0,0.0,-3.082,-3.0488,-3.0156,-2.9492,0.0,0.0,0.0,0.0,0.0,0.0,0.0,-2.7089,-2.8291,-2.8893,-2.8116,-2.8992,-2.939,-2.8552,-2.8237,-2.7976,-2.7727,0.0,-2.8968,-2.9201,-2.9234,-2.939,-2.9878,-2.9814,-2.9814,-3.018,-3.0665,-3.1172,-3.1682,-3.2259,-3.2792,-3.3239,-3.3387,-3.3389,-3.3395,-3.2537,-3.1835,-3.1831,-3.1831,-3.1768,-3.1531,-3.2084,-3.2713,-2.3803,-2.4101,-2.3231,-2.3087,-2.3467,-2.3809,-2.4287,-2.4757,-2.5208,-2.5091,-2.4729,-2.6846,-2.7102,-2.6038,-2.7115,0.0,-2.8674,-2.9057,-2.9616,-3.029,-3.1342,-3.2031,-3.2383,-3.3045,-3.3532,-3.3868,-3.3895,-3.3895,-3.3778,-3.3107,-3.2632,-3.2391,-3.2401,-3.192,-3.1111,-3.1725,-3.2007,-3.181,-3.2389,-3.2677,-3.2621,-3.2702,-3.3019,-3.3577,-3.3549,-3.3753,-3.4203,-3.4416,-3.4632,-3.487,-3.3623,-3.3219,-3.3761,0.0,0.0,0.0,0.0,0.0,0.0,0.0,0.0,0.0,0.0,0.0,0.0,0.0,0.0,0.0,-3.2598,0.0,-3.1269,-2.9746,0.0,0.0,0.0,-2.9138,-3.0735,-3.095,-3.054,-2.9368,0.0,0.0,-2.9691,-3.0394,-3.1037,-3.1109,-3.1578,-3.1615,-3.0812,-3.1344,-3.1729,-3.0958,-3.0942,-3.1008,-3.1079,-3.1563,-3.218,-3.2856,-3.3353,-3.3266,-3.3339,-3.3437,-3.3502,-3.3695,-3.3629,-3.3659,-3.3629,-3.3661,-3.3589,-3.36,-3.3439,-3.3181,-3.2694,-3.3025,-3.3653,-2.5364,-2.5425,-2.5835,-2.5488,-2.4658,-2.5207,-2.5555,-2.5748,-2.6679,-2.7008,-2.6951,-2.8185,-2.8801,-2.8987,-2.9872,-3.0539,-3.0934,-3.1582,-3.2094,-3.2505,-3.2793,-3.3213,-3.3728,-3.3887,-3.4111,-3.4288,-3.4203,-3.4124,-3.408,-3.3684,-3.2783,-3.1579,-3.1556,-3.112,-3.0239,-3.0321,-3.0595,-3.0984,-3.1053,-3.1609,-3.2634,-3.2943,-3.3202,-3.3437,-3.368,-3.4005,-3.4416,-3.4467,-3.4695,-3.5088,-3.4795,-3.4155,-3.3106,-3.1123,0.0,0.0,0.0,0.0,0.0,0.0,0.0,0.0,0.0,-3.0916,-3.0228,0.0,-3.1945,0.0,-3.2109,-3.285,-3.3719,-3.3227,0.0,0.0,-3.0899,-3.0443,-3.0858,-3.1426,-3.1463,-3.0584,-3.1211,-3.2393,-3.4111,-3.3388,-3.297,-3.362,-3.2214,-3.1003,-3.0817,-3.1523,-3.2004,-3.1923,-3.2381,-3.274,-3.2723,-3.283,-3.3082,-3.3269,-3.3345,-3.354,-3.4174,-3.4347,-3.4588,-3.5155,-3.5341,-3.5386,-3.5334,-3.5385,-3.5334,-3.5227,-3.4301,-3.3356,-3.3234,-3.3804,-3.4544,-2.5646,-2.5663,-2.6414,-2.632,-2.5794,-2.6493,-2.6723,-2.6762,-2.7817,-2.8289,-2.8345,-2.9488,-3.0431,-3.1246,-3.1706,-3.203,-3.2219,-3.2755,-3.3196,-3.3486,-3.3643,-3.3917,-3.4325,-3.4325,-3.4371,-3.4439,-3.4363,-3.4269,-3.4197,-3.4023,-3.3453,-3.2518,-3.2496,-3.1876,-3.0625,-2.9759,-2.9395,-2.96,-3.0172,-3.1339,-3.3069,-3.328,-3.3081,-3.2619,-3.2783,-3.2678,-3.2222,-3.2312,-3.2543,-3.2825,-3.294,-3.2598,-3.1722,-3.0107,-2.879,0.0,0.0,0.0,0.0,0.0,0.0,0.0,0.0,0.0,0.0,0.0,-3.2082,-3.2031,-3.293,-3.3691,-3.4095,-3.3637,-3.33,-3.3248,-3.25,-3.2296,-3.308,-3.3568,-3.3665,-3.3236,-3.3535,-3.4332,-3.5776,-3.5116,-3.4636,-3.5162,-3.3988,-3.3059,-3.3115,-3.3516,-3.3793,-3.3824,-3.4213,-3.45,-3.4426,-3.4439,-3.4471,-3.4465,-3.4471,-3.4647,-3.5093,-3.5234,-3.5424,-3.5834,-3.5984,-3.601,-3.602,-3.6017,-3.5986,-3.5817,-3.5188,-3.4599,-3.4506,-3.4856,-3.5363,-2.5664,-2.5729,-2.6363,-2.6765,-2.7048,-2.7778,-2.7905,-2.7687,-2.8757,-2.9294,-2.9431,-3.0733,-3.1886,-3.2827,-3.2844,-3.2876,-3.2908,-3.3232,-3.3476,-3.3688,-3.4005,-3.4232,-3.4464,-3.4483,-3.4461,-3.4454,-3.4431,-3.4363,-3.4245,-3.4221,-3.4056,-3.3784,-3.374,-3.2876,-3.1181,-2.9586,-2.8633,-2.83,-2.9708,-3.142,-3.3332,-3.3067,-3.2391,-3.1399,-3.1367,-3.0769,-2.945,-2.9643,-2.9851,-2.9934,-3.0104,-3.0316,-3.0548,-2.9015,-2.8257,0.0,-2.6969,0.0,0.0,0.0,0.0,0.0,0.0,0.0,0.0,-3.2104,-3.2518,-3.3476,-3.4101,-3.4238,-3.3769,-3.3057,-3.32,-3.4644,-3.4192,-3.4348,-3.5776,-3.601,-3.601,-3.601,-3.5991,-3.5988,-3.5988,-3.5935,-3.5884,-3.5825,-3.571,-3.5568,-3.5797,-3.5724,-3.57,-3.5889,-3.5891,-3.5665,-3.5689,-3.5788,-3.5802,-3.5831,-3.5762,-3.5898,-3.582,-3.5912,-3.5994,-3.6013,-3.5994,-3.601,-3.6001,-3.602,-3.5994,-3.5938,-3.5864,-3.5841,-3.5783,-3.5777,-3.5894,-2.7364,-2.7591,-2.8511,-2.8779,-2.8764,-2.9782,-2.9436,-2.8329,-2.9823,-3.0857,-3.1461,-3.1725,-3.2278,-3.3037,-3.3055,-3.319,-3.3444,-3.353,-3.3559,-3.3643,-3.3698,-3.3928,-3.4321,-3.4321,-3.4502,-3.4772,-3.4647,-3.4558,-3.4517,-3.4245,-3.3438,-3.2177,-3.2133,-3.1274,-2.9636,0.0,0.0,0.0,-3.0071,-3.1139,-3.1675,-3.0341,-2.9667,-2.9797,-2.9775,0.0,-2.9697,-2.9765,-2.9918,-3.0123,-3.0171,0.0,0.0,0.0,0.0,0.0,0.0,0.0,0.0,0.0,0.0,0.0,-3.0742,-3.0999,-3.1979,-3.2146,-3.2812,-3.4277,-3.3574,-3.3691,-3.5348,-3.5366,-3.54,-3.5681,-3.56,-3.5659,-3.5971,-3.601,-3.601,-3.601,-3.5962,-3.5912,-3.5912,-3.5895,-3.5899,-3.5899,-3.5894,-3.5883,-3.5885,-3.5883,-3.5894,-3.5889,-3.5894,-3.588,-3.5897,-3.5895,-3.5887,-3.589,-3.5891,-3.5898,-3.5898,-3.597,-3.6013,-3.601,-3.601,-3.601,-3.601,-3.6004,-3.6001,-3.5974,-3.599,-3.5981,-3.5909,-3.5885,-3.5885,-2.7825,0.0,-2.8599,-2.8873,0.0,-2.9864,-2.9855,-2.9165,-3.0532,-3.1568,-3.2317,-3.2464,-3.283,-3.3375,-3.3357,-3.3444,-3.3605,-3.3605,-3.3671,-3.3807,-3.3807,-3.403,-3.4458,-3.4439,-3.4607,-3.4849,-3.4768,-3.4645,-3.4539,-3.4404,-3.3883,-3.3041,-3.299,-3.2585,-3.184,-3.1869,-3.1352,-3.0217,-3.0786,-3.1581,-3.2493,-3.1826,-3.114,-3.0623,0.0,0.0,0.0,0.0,0.0,0.0,0.0,0.0,0.0,0.0,0.0,-3.1481,-3.0745,-3.0725,-3.1727,-3.1777,-3.2161,-3.3145,-3.3267,-3.3138,-3.2782,-3.357,-3.4432,-3.5233,-3.4664,-3.4741,-3.5854,-3.6007,-3.6021,-3.6013,-3.601,-3.601,-3.601,-3.601,-3.5988,-3.5962,-3.5916,-3.5884,-3.589,-3.5889,-3.5891,-3.5885,-3.5872,-3.5852,-3.5857,-3.5866,-3.5885,-3.5846,-3.5883,-3.5885,-3.588,-3.589,-3.5893,-3.5894,-3.5937,-3.5953,-3.5951,-3.5982,-3.601,-3.601,-3.601,-3.601,-3.601,-3.6007,-3.6004,-3.602,-3.602,-3.5997,-3.5947,-3.5942,-3.5958,-2.7875,-2.773,-2.8296,-2.8576,-2.8713,-2.9593,-2.9989,-3.0107,0.0,0.0,0.0,-3.284,-3.3208,-3.3549,-3.3549,-3.3595,-3.3577,-3.3577,-3.3671,-3.3895,-3.3921,-3.4154,-3.4486,-3.4526,-3.4609,-3.4768,-3.4728,-3.4666,-3.4476,-3.4495,-3.4473,-3.4435,-3.4367,-3.4457,-3.4658,-3.4569,-3.3783,-3.231,-3.169,-3.2102,-3.3499,-3.3473,-3.281,-3.1514,-3.1789,-3.1366,-3.0091,-3.0157,-3.0213,-3.0226,-3.0207,-3.0341,-3.0614,-3.0633,-3.0795,-3.1142,-3.112,-3.1802,-3.3372,-3.3467,-3.408,-3.5632,-3.5821,-3.5308,-3.3955,-3.5167,-3.6009,-3.601,-3.6021,-3.5999,-3.6007,-3.6018,-3.601,-3.601,-3.601,-3.601,-3.601,-3.5988,-3.5962,-3.5908,-3.5899,-3.589,-3.5864,-3.5872,-3.5891,-3.5864,-3.5842,-3.5791,-3.5818,-3.585,-3.5857,-3.5815,-3.5866,-3.589,-3.5899,-3.5908,-3.5898,-3.5917,-3.5968,-3.5994,-3.601,-3.601,-3.601,-3.601,-3.601,-3.601,-3.601,-3.601,-3.601,-3.6004,-3.6007,-3.601,-3.6004,-3.6017,-3.6009,-2.8103,-2.8314,-2.8819,-2.9199,-2.9627,-3.0154,-3.0626,-3.1016,-3.1213,-3.1662,-3.2338,-3.2415,-3.2781,-3.3422,-3.3422,-3.3422,-3.3422,-3.3422,-3.3452,-3.3509,-3.3689,-3.3868,-3.4099,-3.4269,-3.4431,-3.4623,-3.4561,-3.4517,-3.4495,-3.445,-3.4498,-3.463,-3.4577,-3.4674,-3.4909,-3.4756,-3.4601,-3.4415,-3.272,-3.1949,-3.2157,-3.1034,-3.0373,-3.0284,-3.0332,-3.0267,-3.0176,-3.0224,-3.0221,-3.0204,-3.0218,-3.0849,-3.2248,-3.2344,-3.2993,-3.4366,-3.4499,-3.4687,-3.5033,-3.5065,-3.5259,-3.5723,-3.5864,-3.5802,-3.5678,-3.584,-3.6021,-3.6009,-3.6021,-3.6013,-3.6016,-3.5994,-3.601,-3.601,-3.601,-3.601,-3.5991,-3.5939,-3.5908,-3.5903,-3.5889,-3.5879,-3.5827,-3.5818,-3.5807,-3.5807,-3.5818,-3.5791,-3.5799,-3.5799,-3.5807,-3.5815,-3.5875,-3.5884,-3.591,-3.5957,-3.5986,-3.5979,-3.5996,-3.601,-3.601,-3.601,-3.601,-3.601,-3.601,-3.601,-3.601,-3.601,-3.601,-3.601,-3.601,-3.601,-3.601,-3.6007,-3.6004,-2.8596,-2.9277,-2.9576,-3.0115,-3.0815,-3.1385,-3.1976,-3.261,-3.2679,-3.2533,-3.2331,-3.25,-3.2862,-3.3364,-3.3393,-3.3393,-3.3393,-3.3286,-3.3345,-3.3491,-3.3484,-3.3689,-3.403,-3.4148,-3.4293,-3.4473,-3.4473,-3.4473,-3.4539,-3.4536,-3.4604,-3.4694,-3.479,-3.4889,-3.5015,-3.5343,-3.5552,-3.559,-3.4126,-3.3318,-3.325,-3.2806,-3.2561,-3.256,-3.2688,-3.2809,-3.2917,-3.2931,-3.2896,-3.2917,-3.2917,-3.3261,-3.4006,-3.4063,-3.4407,-3.5133,-3.519,-3.5239,-3.534,-3.5405,-3.5546,-3.5764,-3.5826,-3.5872,-3.5935,-3.5988,-3.6016,-3.6021,-3.6016,-3.5968,-3.5962,-3.5939,-3.5955,-3.5942,-3.5962,-3.5942,-3.5942,-3.5934,-3.5885,-3.5889,-3.5885,-3.5872,-3.5811,-3.5788,-3.5791,-3.5791,-3.5791,-3.5791,-3.5791,-3.5791,-3.5791,-3.5807,-3.5872,-3.5888,-3.5893,-3.5917,-3.597,-3.5996,-3.601,-3.601,-3.601,-3.601,-3.601,-3.601,-3.601,-3.601,-3.601,-3.601,-3.601,-3.601,-3.601,-3.601,-3.601,-3.601,-3.601,-2.9528,-3.037,-3.0464,-3.099,-3.1806,-3.237,-3.3052,-3.3755,-3.3876,-3.3494,-3.2897,-3.3133,-3.3462,-3.3767,-3.3797,-3.3815,-3.3785,-3.3625,-3.3749,-3.4047,-3.3953,-3.4164,-3.4604,-3.4698,-3.4803,-3.4951,-3.4951,-3.5042,-3.5211,-3.5211,-3.5254,-3.5359,-3.5514,-3.5602,-3.5583,-3.6197,-3.6502,-3.6425,-3.5642,-3.5174,-3.5042,-3.5339,-3.5457,-3.538,-3.5604,-3.5761,-3.5763,-3.5783,-3.5763,-3.5763,-3.5763,-3.5783,-3.5763,-3.5763,-3.5703,-3.5548,-3.5525,-3.5465,-3.5369,-3.5463,-3.5593,-3.5773,-3.5791,-3.5826,-3.589,-3.5955,-3.5985,-3.5965,-3.5985,-3.5955,-3.5903,-3.5899,-3.589,-3.5894,-3.5889,-3.5894,-3.5889,-3.5883,-3.5891,-3.5885,-3.5891,-3.5857,-3.5807,-3.5791,-3.5791,-3.5791,-3.5791,-3.5791,-3.5791,-3.5791,-3.5791,-3.5807,-3.5866,-3.589,-3.589,-3.5894,-3.5936,-3.5996,-3.601,-3.601,-3.601,-3.601,-3.601,-3.601,-3.601,-3.601,-3.601,-3.601,-3.601,-3.601,-3.601,-3.601,-3.601,-3.601,-3.601,-3.0903,-3.139,-3.147,-3.1774,-3.2351,-3.2764,-3.3259,-3.3666,-3.3659,-3.3921,-3.4314,-3.457,-3.4817,-3.5025,-3.4989,-3.497,-3.4954,-3.5007,-3.5137,-3.5452,-3.5684,-3.5926,-3.6204,-3.6419,-3.6621,-3.6696,-3.6616,-3.6656,-3.6892,-3.6963,-3.7081,-3.7259,-3.7449,-3.7412,-3.7356,-3.7414,-3.7414,-3.7315,-3.72,-3.7081,-3.6958,-3.7203,-3.7338,-3.7338,-3.7349,-3.74,-3.7368,-3.7464,-3.7464,-3.7483,-3.7426,-3.7445,-3.7426,-3.7445,-3.7171,-3.6535,-3.6473,-3.619,-3.5605,-3.5558,-3.5684,-3.5697,-3.586,-3.5908,-3.5922,-3.5914,-3.5904,-3.5899,-3.5909,-3.5919,-3.5894,-3.5894,-3.5889,-3.5883,-3.5883,-3.5889,-3.5883,-3.5885,-3.5885,-3.5885,-3.5842,-3.5799,-3.581,-3.5791,-3.5791,-3.5791,-3.5791,-3.5791,-3.5782,-3.5793,-3.5803,-3.5801,-3.5852,-3.5885,-3.5887,-3.5894,-3.5936,-3.5999,-3.601,-3.601,-3.601,-3.601,-3.601,-3.601,-3.601,-3.601,-3.601,-3.601,-3.601,-3.601,-3.601,-3.601,-3.601,-3.601,-3.601,-3.1806,-3.2579,-3.2707,-3.3273,-3.4001,-3.4011,-3.4415,-3.5061,-3.5057,-3.5359,-3.585,-3.6116,-3.5791,-3.5101,-3.517,-3.517,-3.5065,-3.5221,-3.5457,-3.5711,-3.5897,-3.6268,-3.6712,-3.6833,-3.6967,-3.7156,-3.7156,-3.7244,-3.7411,-3.745,-3.7509,-3.7566,-3.7566,-3.7527,-3.7516,-3.7978,-3.8207,-3.8186,-3.8745,-3.8993,-3.876,-3.7924,-3.743,-3.7371,-3.7432,-3.7555,-3.7691,-3.7685,-3.7753,-3.7878,-3.789,-3.7871,-3.7871,-3.8185,-3.808,-3.7544,-3.7486,-3.7372,-3.7123,-3.7127,-3.717,-3.7277,-3.7333,-3.7144,-3.6631,-3.6151,-3.5859,-3.5897,-3.5883,-3.5883,-3.5905,-3.5885,-3.5892,-3.5852,-3.5826,-3.5826,-3.5845,-3.5862,-3.5846,-3.5826,-3.5773,-3.5775,-3.5756,-3.5784,-3.5793,-3.5765,-3.5784,-3.589,-3.5794,-3.5747,-3.5766,-3.5794,-3.5818,-3.5853,-3.5896,-3.5893,-3.5937,-3.5982,-3.601,-3.601,-3.601,-3.601,-3.601,-3.601,-3.601,-3.601,-3.601,-3.601,-3.601,-3.601,-3.601,-3.601,-3.601,-3.601,-3.601,-3.2643,-3.3502,-3.3791,-3.4405,-3.5185,-3.5044,-3.5396,-3.6079,-3.6042,-3.6284,-3.6708,-3.6881,-3.6447,-3.5649,-3.5597,-3.558,-3.5616,-3.5811,-3.6085,-3.6381,-3.6539,-3.6901,-3.7415,-3.7459,-3.7617,-3.7857,-3.7935,-3.7986,-3.8153,-3.8212,-3.8213,-3.8176,-3.8097,-3.8029,-3.8067,-3.8647,-3.8999,-3.9077,-3.9774,-4.0101,-3.9871,-3.8821,-3.8095,-3.8012,-3.8115,-3.8252,-3.8362,-3.8431,-3.8541,-3.8676,-3.8705,-3.8686,-3.87,-3.9056,-3.9039,-3.8505,-3.8259,-3.8172,-3.8227,-3.8237,-3.8277,-3.8355,-3.8373,-3.811,-3.74,-3.6451,-3.6093,-3.6581,-3.6552,-3.6494,-3.5903,-3.5877,-3.5842,-3.5801,-3.5773,-3.5782,-3.5773,-3.5939,-3.6163,-3.6115,-3.6445,-3.6426,-3.6426,-3.6542,-3.66,-3.6552,-3.6542,-3.6512,-3.6464,-3.6513,-3.6513,-3.6512,-3.6559,-3.6359,-3.6059,-3.5927,-3.5957,-3.5984,-3.601,-3.601,-3.601,-3.601,-3.601,-3.601,-3.601,-3.601,-3.601,-3.601,-3.6108,-3.6088,-3.6205,-3.6381,-3.6482,-3.6521,-3.6735,-3.3578,-3.4103,-3.4584,-3.4839,-3.4959,-3.5315,-3.5739,-3.6079,-3.6082,-3.6214,-3.6468,-3.6572,-3.6667,-3.6833,-3.6606,-3.679,-3.7029,-3.7051,-3.7363,-3.7863,-3.7998,-3.8314,-3.8799,-3.8828,-3.8989,-3.9212,-3.9218,-3.9387,-3.9662,-3.974,-3.9759,-3.9646,-3.9577,-3.9583,-3.9458,-3.9471,-3.9656,-3.98,-3.9899,-4.002,-4.0158,-4.0081,-3.9891,-3.9754,-4.0008,-4.0022,-4.0024,-4.0222,-4.0339,-4.035,-4.0288,-4.0312,-4.035,-4.0365,-4.0039,-3.9405,-3.8731,-3.8346,-3.8394,-3.8491,-3.8491,-3.8404,-3.853,-3.8336,-3.821,-3.7085,-3.6823,-3.7987,-3.8123,-3.7618,-3.623,-3.6123,-3.6017,-3.5931,-3.5825,-3.5844,-3.5805,-3.6581,-3.6881,-3.7046,-3.752,-3.785,-3.8054,-3.819,-3.8015,-3.7996,-3.8132,-3.8113,-3.7995,-3.8122,-3.8083,-3.8073,-3.8043,-3.781,-3.6435,-3.6384,-3.6289,-3.6362,-3.6584,-3.6228,-3.6072,-3.601,-3.6088,-3.6147,-3.6362,-3.6381,-3.6127,-3.6108,-3.6284,-3.6501,-3.697,-3.7165,-3.7243,-3.7965,-3.8082,-3.3947,-3.4131,-3.4473,-3.4659,-3.4795,-3.5037,-3.5433,-3.5864,-3.5717,-3.5928,-3.6291,-3.6591,-3.6711,-3.6753,-3.6952,-3.7129,-3.7339,-3.7613,-3.7792,-3.7982,-3.8364,-3.8766,-3.9082,-3.9219,-3.9427,-3.9647,-3.9735,-3.9781,-3.9826,-3.9933,-3.9939,-3.9865,-3.9899,-3.9918,-3.9924,-3.9857,-3.9895,-4.004,-4.0101,-4.0194,-4.0266,-4.0386,-4.0386,-4.0212,-4.0228,-4.0267,-4.0392,-4.0453,-4.0552,-4.0687,-4.07,-4.0694,-4.0694,-4.0681,-4.059,-4.0308,-4.0051,-3.9887,-3.9906,-3.9917,-3.9917,-3.9896,-3.9906,-3.9615,-3.9275,-3.9023,-3.8868,-3.8616,-3.9363,-3.9083,-3.7811,-3.7375,-3.7385,-3.7356,-3.7356,-3.7298,-3.7404,-3.7607,-3.7751,-3.7799,-3.8109,-3.8272,-3.8429,-3.8349,-3.8369,-3.8349,-3.8393,-3.8452,-3.842,-3.8403,-3.8517,-3.8472,-3.8462,-3.8315,-3.7917,-3.7694,-3.7691,-3.7689,-3.7725,-3.7706,-3.7608,-3.7463,-3.7538,-3.7441,-3.7402,-3.736,-3.7321,-3.734,-3.734,-3.7497,-3.7946,-3.8043,-3.8121,-3.8687,-3.8746,-3.4092,-3.4277,-3.4594,-3.4797,-3.4905,-3.5297,-3.5685,-3.6062,-3.5994,-3.6182,-3.6533,-3.6777,-3.689,-3.6917,-3.7246,-3.7487,-3.7632,-3.7897,-3.8034,-3.8068,-3.8572,-3.8921,-3.9137,-3.9253,-3.9471,-3.9661,-3.9708,-3.9777,-3.9851,-3.9892,-3.9922,-3.989,-3.9943,-4.0002,-4.0024,-4.0005,-4.0043,-4.0138,-4.0247,-4.0334,-4.0419,-4.0545,-4.0545,-4.0419,-4.0344,-4.0363,-4.0473,-4.0557,-4.0655,-4.0771,-4.0796,-4.0808,-4.0808,-4.0812,-4.0804,-4.0815,-4.0796,-4.0815,-4.0815,-4.0807,-4.0776,-4.0784,-4.0784,-4.0533,-4.0087,-4.0494,-4.0145,-3.9661,-4.0001,-4.0203,-3.9425,-3.9096,-3.8914,-3.8449,-3.8274,-3.8255,-3.8294,-3.8515,-3.8794,-3.9093,-3.9247,-3.9212,-3.916,-3.9248,-3.9296,-3.9248,-3.9247,-3.9267,-3.9271,-3.9301,-3.9325,-3.9376,-3.9471,-3.9548,-3.9434,-3.9414,-3.8711,-3.8565,-3.8496,-3.8672,-3.8805,-3.876,-3.8737,-3.8676,-3.8637,-3.8615,-3.8612,-3.8629,-3.8648,-3.8687,-3.8824,-3.8941,-3.9097,-3.9292,-3.9449,-3.4021,-3.4487,-3.5002,-3.5112,-3.5245,-3.6,-3.65,-3.6547,-3.687,-3.6925,-3.6935,-3.7108,-3.719,-3.7376,-3.7685,-3.7948,-3.8068,-3.8153,-3.8267,-3.8478,-3.8713,-3.8892,-3.9017,-3.9101,-3.9245,-3.9483,-3.9451,-3.9642,-3.9962,-3.9876,-3.9842,-3.991,-3.9967,-4.0024,-3.9947,-3.9996,-4.0096,-4.0255,-4.0334,-4.0419,-4.0574,-4.0588,-4.0602,-4.0588,-4.0588,-4.0564,-4.0438,-4.0654,-4.0771,-4.079,-4.0803,-4.079,-4.0803,-4.0803,-4.0815,-4.0788,-4.08,-4.08,-4.08,-4.0804,-4.0792,-4.0796,-4.0808,-4.0769,-4.0699,-4.0725,-4.0725,-4.0609,-4.0667,-4.0687,-4.0687,-4.0602,-4.006,-3.8624,-3.8559,-3.8559,-3.8586,-3.91,-3.9925,-4.0568,-4.0696,-4.0906,-4.0926,-4.0721,-4.0623,-4.0662,-4.0749,-4.0742,-4.0693,-4.071,-4.1033,-4.1027,-4.074,-4.0532,-4.0859,-4.1055,-4.0039,-3.9238,-3.9121,-3.9141,-3.9297,-3.9334,-3.9409,-3.939,-3.9409,-3.9388,-3.9418,-3.9396,-3.9253,-3.9292,-3.9546,-3.9819,-3.9937,-4.0132,-4.0503,-3.3968,-3.4248,-3.4589,-3.4914,-3.5227,-3.5802,-3.6182,-3.6381,-3.6552,-3.6573,-3.6698,-3.7131,-3.743,-3.7578,-3.8065,-3.8346,-3.8396,-3.851,-3.859,-3.867,-3.8862,-3.8979,-3.9055,-3.935,-3.9604,-3.9788,-3.9766,-3.9791,-3.9941,-4.0041,-4.0101,-4.0138,-4.0341,-4.0411,-4.0377,-4.0456,-4.0532,-4.0496,-4.0559,-4.0554,-4.0549,-4.0615,-4.0668,-4.0681,-4.0757,-4.0787,-4.0757,-4.0759,-4.0765,-4.079,-4.079,-4.079,-4.079,-4.079,-4.0803,-4.0803,-4.0803,-4.0803,-4.0803,-4.0796,-4.0815,-4.0803,-4.0803,-4.0803,-4.079,-4.079,-4.081,-4.0861,-4.088,-4.0887,-4.0931,-4.0912,-4.0574,-4.0106,-4.0094,-4.001,-3.9968,-4.0257,-4.0575,-4.0836,-4.0972,-4.0986,-4.1,-4.1022,-4.1077,-4.1119,-4.1152,-4.1172,-4.1172,-4.1172,-4.1191,-4.1191,-4.1191,-4.1186,-4.1172,-4.1152,-4.0644,-4.0106,-3.9961,-3.9844,-3.9941,-4.0,-4.0078,-4.0098,-4.0117,-4.0134,-4.0168,-4.0123,-3.9984,-4.0115,-4.0467,-4.0623,-4.0717,-4.0854,-4.1049,-3.4071,-3.4529,-3.4708,-3.5064,-3.5532,-3.5904,-3.6241,-3.6457,-3.6587,-3.6732,-3.6973,-3.7377,-3.767,-3.7841,-3.8364,-3.8559,-3.851,-3.8713,-3.8822,-3.8822,-3.9017,-3.911,-3.9165,-3.9551,-3.9851,-3.9982,-3.9922,-3.9984,-4.0192,-4.0245,-4.0348,-4.0462,-4.0654,-4.0714,-4.0668,-4.074,-4.074,-4.0674,-4.0692,-4.0692,-4.0662,-4.0711,-4.0746,-4.0738,-4.0811,-4.0858,-4.0888,-4.0826,-4.0792,-4.0823,-4.0823,-4.0851,-4.0861,-4.0868,-4.0868,-4.0887,-4.0868,-4.0868,-4.0868,-4.088,-4.0887,-4.0868,-4.0868,-4.0868,-4.0868,-4.0868,-4.088,-4.0901,-4.0907,-4.0917,-4.0946,-4.0945,-4.0935,-4.0937,-4.0877,-4.0974,-4.0976,-4.096,-4.0944,-4.0974,-4.1018,-4.1037,-4.1051,-4.1072,-4.1112,-4.1171,-4.1172,-4.1172,-4.1172,-4.1172,-4.1172,-4.1172,-4.1152,-4.1148,-4.1116,-4.1113,-4.1113,-4.0984,-4.0879,-4.0781,-4.0781,-4.0781,-4.0801,-4.0762,-4.0762,-4.0684,-4.0701,-4.0796,-4.0775,-4.1084,-4.1116,-4.1035,-4.0938,-4.0974,-4.1108,-3.4317,-3.5195,-3.5235,-3.5492,-3.5983,-3.6314,-3.6509,-3.6643,-3.6978,-3.7314,-3.7596,-3.7789,-3.7946,-3.8168,-3.8546,-3.864,-3.8528,-3.8803,-3.8939,-3.9007,-3.9192,-3.9357,-3.9433,-3.9717,-3.996,-4.012,-3.9984,-4.0173,-4.059,-4.0448,-4.0474,-4.0729,-4.0791,-4.0797,-4.078,-4.081,-4.0829,-4.0781,-4.0801,-4.081,-4.0781,-4.0791,-4.082,-4.082,-4.0837,-4.0882,-4.0929,-4.0929,-4.0904,-4.0897,-4.0888,-4.0907,-4.0955,-4.0989,-4.0963,-4.0974,-4.097,-4.0982,-4.097,-4.0943,-4.0974,-4.0967,-4.0978,-4.1001,-4.0978,-4.0942,-4.0945,-4.0917,-4.0921,-4.0916,-4.0948,-4.0974,-4.0992,-4.098,-4.0967,-4.0974,-4.1017,-4.1013,-4.1016,-4.1069,-4.1111,-4.1114,-4.1094,-4.1105,-4.1108,-4.1112,-4.1113,-4.1113,-4.1113,-4.1133,-4.1133,-4.1124,-4.1112,-4.1096,-4.1089,-4.1065,-4.1065,-4.1071,-4.1096,-4.1133,-4.1172,-4.1191,-4.1191,-4.1191,-4.1191,-4.1152,-4.1152,-4.1133,-4.1133,-4.1129,-4.1126,-4.1123,-4.1101,-4.1099,-4.1114,-3.493,-3.5498,-3.5484,-3.5693,-3.6054,-3.62,-3.6412,-3.6725,-3.705,-3.729,-3.7469,-3.799,-3.8273,-3.8382,-3.8683,-3.8792,-3.8803,-3.9007,-3.9073,-3.9129,-3.9551,-3.9766,-3.9816,-3.9941,-4.0176,-4.0415,-4.0396,-4.0501,-4.0742,-4.0655,-4.068,-4.0809,-4.0867,-4.0867,-4.082,-4.0948,-4.0948,-4.084,-4.0902,-4.0894,-4.083,-4.0902,-4.094,-4.0967,-4.0992,-4.1033,-4.1061,-4.1061,-4.0986,-4.091,-4.0902,-4.0894,-4.0926,-4.0926,-4.0945,-4.0945,-4.0945,-4.0927,-4.0937,-4.0937,-4.0946,-4.0988,-4.0988,-4.0984,-4.0921,-4.0921,-4.0935,-4.0955,-4.0967,-4.0983,-4.1042,-4.1055,-4.1065,-4.1058,-4.1042,-4.1031,-4.1062,-4.108,-4.109,-4.1112,-4.1113,-4.1113,-4.1112,-4.1112,-4.1113,-4.1113,-4.1111,-4.1108,-4.1105,-4.1085,-4.1084,-4.1075,-4.1065,-4.1057,-4.1033,-4.1024,-4.1011,-4.1031,-4.1042,-4.1074,-4.1113,-4.1152,-4.1172,-4.1191,-4.1152,-4.1133,-4.1152,-4.1172,-4.1172,-4.1133,-4.1133,-4.1133,-4.1113,-4.111,-4.1103,-3.5244,-3.5847,-3.5779,-3.6149,-3.6654,-3.6667,-3.6811,-3.7013,-3.7265,-3.7514,-3.7823,-3.8205,-3.858,-3.8876,-3.9055,-3.9137,-3.911,-3.9245,-3.9298,-3.9331,-3.9728,-3.9983,-4.0138,-4.0248,-4.0396,-4.0615,-4.0668,-4.075,-4.0809,-4.0789,-4.083,-4.0921,-4.096,-4.0954,-4.0948,-4.1011,-4.1056,-4.0964,-4.0974,-4.096,-4.0904,-4.0993,-4.1045,-4.1056,-4.1094,-4.1108,-4.1108,-4.1108,-4.107,-4.0998,-4.0986,-4.0986,-4.0986,-4.0986,-4.0986,-4.0986,-4.0986,-4.098,-4.0987,-4.0987,-4.0998,-4.1022,-4.1046,-4.1012,-4.0996,-4.0976,-4.1012,-4.103,-4.1042,-4.1055,-4.1087,-4.111,-4.1112,-4.1094,-4.1112,-4.111,-4.111,-4.1113,-4.1112,-4.1112,-4.111,-4.1108,-4.1112,-4.1112,-4.1111,-4.1108,-4.1105,-4.1099,-4.1111,-4.1067,-4.1052,-4.1058,-4.1033,-4.1027,-4.1003,-4.0985,-4.0974,-4.0973,-4.1011,-4.1021,-4.1058,-4.1099,-4.1113,-4.1113,-4.1113,-4.1113,-4.1133,-4.1152,-4.1152,-4.1133,-4.1133,-4.1133,-4.1133,-4.1113,-4.1113,-3.5433,-3.6222,-3.616,-3.6641,-3.7344,-3.741,-3.7304,-3.7458,-3.7576,-3.7899,-3.8365,-3.8544,-3.8946,-3.9483,-3.9408,-3.9458,-3.9483,-3.9537,-3.9632,-3.975,-3.9984,-4.0229,-4.0434,-4.0457,-4.0563,-4.07,-4.0754,-4.0819,-4.0888,-4.0913,-4.0967,-4.1025,-4.1061,-4.1081,-4.1061,-4.1081,-4.107,-4.1045,-4.1013,-4.1,-4.0986,-4.1039,-4.1081,-4.1091,-4.1094,-4.1108,-4.1108,-4.1108,-4.1104,-4.1108,-4.1108,-4.1085,-4.1085,-4.1108,-4.1104,-4.1085,-4.1081,-4.1081,-4.1094,-4.108,-4.1087,-4.1089,-4.1108,-4.111,-4.109,-4.1087,-4.1087,-4.1093,-4.1113,-4.1094,-4.1092,-4.1108,-4.1108,-4.1107,-4.1105,-4.1105,-4.1103,-4.1103,-4.1105,-4.1105,-4.1103,-4.1103,-4.1103,-4.1103,-4.1101,-4.1108,-4.1101,-4.1113,-4.11,-4.107,-4.1052,-4.1045,-4.103,-4.098,-4.0963,-4.0926,-4.0927,-4.0908,-4.0965,-4.0975,-4.098,-4.1013,-4.1,-4.1013,-4.1032,-4.107,-4.1074,-4.1094,-4.1113,-4.1113,-4.1113,-4.1133,-4.1172,-4.1133,-4.1133,-3.5985,-3.6539,-3.6823,-3.7049,-3.7269,-3.7216,-3.7284,-3.7363,-3.7964,-3.8287,-3.8553,-3.9018,-3.9334,-3.9508,-3.9532,-3.9483,-3.9585,-3.9797,-4.0043,-4.0364,-4.0415,-4.0554,-4.0662,-4.0655,-4.0694,-4.0765,-4.0787,-4.0859,-4.0943,-4.0968,-4.0979,-4.1,-4.1042,-4.1047,-4.1076,-4.1042,-4.102,-4.1013,-4.1,-4.0987,-4.0993,-4.1019,-4.1061,-4.11,-4.1101,-4.1108,-4.1108,-4.1108,-4.1108,-4.1108,-4.1111,-4.1114,-4.1111,-4.1111,-4.1111,-4.1114,-4.1114,-4.1099,-4.1111,-4.1113,-4.1113,-4.1112,-4.1112,-4.111,-4.1103,-4.1107,-4.1108,-4.1108,-4.111,-4.1108,-4.1105,-4.1107,-4.1099,-4.1108,-4.1104,-4.1113,-4.1115,-4.1109,-4.1101,-4.1097,-4.1105,-4.11,-4.1106,-4.1111,-4.1106,-4.11,-4.11,-4.1114,-4.1078,-4.1059,-4.1052,-4.1057,-4.103,-4.1015,-4.1023,-4.0988,-4.096,-4.0952,-4.0965,-4.0966,-4.0971,-4.0963,-4.0982,-4.0985,-4.099,-4.1005,-4.1039,-4.1016,-4.1035,-4.1055,-4.1076,-4.1094,-4.1113,-4.1113,-4.1094,-3.6764,-3.7188,-3.7356,-3.7541,-3.7738,-3.7731,-3.7794,-3.7983,-3.8415,-3.8765,-3.907,-3.9526,-3.9755,-3.987,-3.987,-3.9895,-3.9963,-4.0156,-4.0412,-4.0648,-4.0707,-4.0757,-4.0807,-4.0796,-4.0818,-4.0849,-4.0888,-4.0926,-4.0943,-4.0988,-4.0984,-4.0993,-4.1011,-4.1066,-4.109,-4.1061,-4.1037,-4.1037,-4.0994,-4.0989,-4.1003,-4.1037,-4.1062,-4.1094,-4.1105,-4.111,-4.111,-4.1111,-4.1112,-4.1111,-4.1111,-4.1108,-4.1103,-4.1103,-4.1105,-4.1111,-4.1112,-4.1112,-4.1113,-4.1112,-4.1111,-4.1107,-4.1107,-4.1105,-4.1101,-4.1099,-4.1116,-4.1116,-4.1114,-4.1111,-4.1097,-4.1117,-4.1105,-4.1115,-4.1115,-4.1106,-4.1109,-4.11,-4.1106,-4.11,-4.1109,-4.1117,-4.111,-4.111,-4.111,-4.1109,-4.1109,-4.1103,-4.1097,-4.1085,-4.1065,-4.1078,-4.1052,-4.1045,-4.1059,-4.1052,-4.1038,-4.103,-4.105,-4.0999,-4.098,-4.0984,-4.0985,-4.0983,-4.0951,-4.099,-4.1003,-4.0993,-4.0974,-4.1003,-4.1021,-4.1042,-4.1055,-4.1055,-4.1016,-3.7147,-3.7577,-3.7593,-3.7918,-3.8372,-3.8322,-3.8465,-3.8768,-3.8951,-3.9231,-3.9659,-3.9852,-4.0081,-4.0253,-4.0291,-4.0362,-4.0438,-4.0545,-4.0707,-4.0792,-4.0804,-4.0837,-4.0888,-4.0897,-4.0906,-4.0935,-4.0943,-4.0943,-4.0932,-4.0957,-4.1,-4.1026,-4.1086,-4.1097,-4.1108,-4.1082,-4.106,-4.1038,-4.101,-4.0987,-4.0987,-4.1038,-4.1086,-4.1111,-4.1113,-4.1113,-4.1113,-4.1112,-4.1111,-4.1108,-4.1108,-4.1112,-4.1113,-4.1112,-4.1113,-4.111,-4.1112,-4.1111,-4.1108,-4.1105,-4.1105,-4.1103,-4.1101,-4.1101,-4.1099,-4.1116,-4.1111,-4.1101,-4.1113,-4.1105,-4.1103,-4.1114,-4.1109,-4.1103,-4.1114,-4.1114,-4.1114,-4.1103,-4.1103,-4.1103,-4.1109,-4.1109,-4.1103,-4.1103,-4.1097,-4.1136,-4.1149,-4.1169,-4.1188,-4.1169,-4.1188,-4.1104,-4.1078,-4.1078,-4.1085,-4.1085,-4.1078,-4.1078,-4.1078,-4.1045,-4.1003,-4.1027,-4.1021,-4.0946,-4.0927,-4.0956,-4.0955,-4.0946,-4.0936,-4.0963,-4.0967,-4.0946,-4.0956,-4.0975,-4.0955,-3.5882,-3.6559,-3.6949,-3.7657,-3.8416,-3.8462,-3.8651,-3.8915,-3.9294,-3.9518,-3.9675,-4.0021,-4.0286,-4.0377,-4.0396,-4.0473,-4.0615,-4.0713,-4.0804,-4.0849,-4.0869,-4.0907,-4.0906,-4.0953,-4.0954,-4.0979,-4.0964,-4.0937,-4.0974,-4.0986,-4.1013,-4.1062,-4.11,-4.1105,-4.1087,-4.1054,-4.1035,-4.1029,-4.1023,-4.1001,-4.1021,-4.1043,-4.1068,-4.1093,-4.1113,-4.1112,-4.1113,-4.1113,-4.1113,-4.1113,-4.1113,-4.1111,-4.1108,-4.1111,-4.1112,-4.1112,-4.1111,-4.1107,-4.1099,-4.1114,-4.1104,-4.1109,-4.1105,-4.1105,-4.1105,-4.1109,-4.1109,-4.1105,-4.11,-4.1115,-4.1111,-4.1106,-4.1106,-4.1106,-4.1106,-4.1145,-4.1164,-4.1198,-4.1284,-4.1428,-4.1304,-4.1223,-4.1334,-4.1451,-4.1563,-4.168,-4.1758,-4.1713,-4.1688,-4.1545,-4.1409,-4.1266,-4.111,-4.1104,-4.111,-4.111,-4.1085,-4.1085,-4.1104,-4.1104,-4.1071,-4.1098,-4.1064,-4.098,-4.0935,-4.0956,-4.0937,-4.0927,-4.0907,-4.0925,-4.0904,-4.0851,-4.0904,-4.0936,-4.0912,-3.6076,-3.6574,-3.73,-3.7959,-3.8449,-3.8654,-3.885,-3.9069,-3.9375,-3.9642,-3.9892,-4.0174,-4.0364,-4.045,-4.0504,-4.0607,-4.0745,-4.0807,-4.0868,-4.0888,-4.0932,-4.0957,-4.0953,-4.0992,-4.0994,-4.0994,-4.0972,-4.0972,-4.0979,-4.0992,-4.101,-4.1033,-4.109,-4.1104,-4.1092,-4.1068,-4.1047,-4.1035,-4.1055,-4.1055,-4.1055,-4.1055,-4.1074,-4.1092,-4.1108,-4.1103,-4.1101,-4.1099,-4.1116,-4.1116,-4.1116,-4.1114,-4.1114,-4.1114,-4.1099,-4.1099,-4.1099,-4.1114,-4.1101,-4.1113,-4.1105,-4.1115,-4.1106,-4.1106,-4.1111,-4.1115,-4.1115,-4.1115,-4.1115,-4.1115,-4.1111,-4.1135,-4.1115,-4.1115,-4.1154,-4.1345,-4.1557,-4.1655,-4.1831,-4.1935,-4.1584,-4.1563,-4.1852,-4.1969,-4.2086,-4.2203,-4.2334,-4.2304,-4.2214,-4.2143,-4.2013,-4.2039,-4.1961,-4.1791,-4.1733,-4.1571,-4.1551,-4.1473,-4.1273,-4.1253,-4.1169,-4.1188,-4.1124,-4.1038,-4.0996,-4.098,-4.1007,-4.0999,-4.0954,-4.0888,-4.0868,-4.0865,-4.0889,-4.0885,-4.0873,-3.6378,-3.6831,-3.7597,-3.8201,-3.8611,-3.8848,-3.907,-3.9285,-3.9454,-3.974,-4.0062,-4.0277,-4.0428,-4.053,-4.0629,-4.0725,-4.0823,-4.0898,-4.0915,-4.0921,-4.0961,-4.0992,-4.1008,-4.1019,-4.1019,-4.1019,-4.1027,-4.1023,-4.1038,-4.1021,-4.1023,-4.105,-4.1087,-4.111,-4.1112,-4.1099,-4.1111,-4.1108,-4.1108,-4.1108,-4.1108,-4.1108,-4.1108,-4.1108,-4.1101,-4.1101,-4.1104,-4.1097,-4.1113,-4.1113,-4.1109,-4.1109,-4.1117,-4.1117,-4.1113,-4.1105,-4.11,-4.11,-4.1105,-4.11,-4.1105,-4.1105,-4.11,-4.11,-4.1105,-4.1105,-4.1105,-4.11,-4.11,-4.128,-4.1437,-4.1397,-4.1534,-4.1744,-4.1783,-4.1808,-4.2253,-4.2478,-4.2563,-4.2416,-4.1935,-4.2078,-4.2519,-4.2558,-4.27,-4.2731,-4.286,-4.2911,-4.2875,-4.3027,-4.2996,-4.3085,-4.3011,-4.2749,-4.2554,-4.2295,-4.229,-4.229,-4.1914,-4.168,-4.1473,-4.1298,-4.1227,-4.1163,-4.1078,-4.1064,-4.1071,-4.1071,-4.1023,-4.0963,-4.0898,-4.0868,-4.0848,-4.0865,-4.0873,-3.5946,-3.6855,-3.7039,-3.7802,-3.8936,-3.9055,-3.9276,-3.9552,-3.9789,-3.9939,-4.0082,-4.0342,-4.0537,-4.068,-4.0807,-4.0877,-4.0917,-4.0941,-4.0974,-4.0968,-4.0983,-4.1003,-4.101,-4.1069,-4.1074,-4.1074,-4.1071,-4.109,-4.1094,-4.1074,-4.1093,-4.1087,-4.1086,-4.1099,-4.1101,-4.1114,-4.1108,-4.1108,-4.1108,-4.1108,-4.1108,-4.1108,-4.1108,-4.1108,-4.1108,-4.1104,-4.1104,-4.1101,-4.1101,-4.1104,-4.1104,-4.1104,-4.1108,-4.1108,-4.1108,-4.1104,-4.1104,-4.1104,-4.1101,-4.1117,-4.1113,-4.1097,-4.1117,-4.1117,-4.1101,-4.1121,-4.1121,-4.1104,-4.1163,-4.1569,-4.2096,-4.2252,-4.2627,-4.2865,-4.2944,-4.3019,-4.3291,-4.3258,-4.3335,-4.3447,-4.3149,-4.3189,-4.3422,-4.3355,-4.3297,-4.3325,-4.3373,-4.35,-4.3666,-4.3909,-4.4031,-4.4124,-4.3883,-4.3582,-4.3368,-4.309,-4.2929,-4.3007,-4.2671,-4.2237,-4.2153,-4.1972,-4.1421,-4.1337,-4.1292,-4.1169,-4.1104,-4.1078,-4.1064,-4.1023,-4.0943,-4.0887,-4.081,-4.083,-4.0877,-3.6964,-3.7139,-3.7689,-3.8373,-3.9095,-3.9373,-3.9612,-3.9797,-4.0028,-4.0176,-4.0281,-4.0404,-4.0613,-4.0789,-4.0878,-4.0917,-4.0949,-4.0981,-4.0998,-4.1012,-4.1038,-4.105,-4.1073,-4.1093,-4.1105,-4.1105,-4.1116,-4.1097,-4.1105,-4.1105,-4.1099,-4.1114,-4.1108,-4.1111,-4.1108,-4.1108,-4.1108,-4.1108,-4.1108,-4.1108,-4.1108,-4.1108,-4.1108,-4.1108,-4.1108,-4.1108,-4.1108,-4.1108,-4.1108,-4.1108,-4.1108,-4.1108,-4.1108,-4.1108,-4.1108,-4.1108,-4.1108,-4.1108,-4.1108,-4.1104,-4.1104,-4.1108,-4.1104,-4.1104,-4.1108,-4.1166,-4.14,-4.181,-4.1849,-4.2259,-4.2903,-4.3118,-4.3313,-4.3576,-4.383,-4.3992,-4.4053,-4.4059,-4.4079,-4.4253,-4.4399,-4.4349,-4.4266,-4.4184,-4.4264,-4.4547,-4.4625,-4.4732,-4.4898,-4.5094,-4.5161,-4.5188,-4.4787,-4.4337,-4.4129,-4.3903,-4.3548,-4.3524,-4.3461,-4.3124,-4.3085,-4.2807,-4.2276,-4.1939,-4.1967,-4.1727,-4.1311,-4.1104,-4.1078,-4.1045,-4.1011,-4.0968,-4.0904,-4.0878,-4.0888,-3.8151,-3.789,-3.8547,-3.8994,-3.9309,-3.97,-3.9906,-3.9999,-4.0203,-4.0346,-4.0485,-4.0551,-4.0703,-4.0858,-4.0906,-4.0945,-4.0978,-4.1008,-4.1016,-4.1045,-4.1074,-4.1093,-4.111,-4.1099,-4.1111,-4.1108,-4.1111,-4.1111,-4.1111,-4.1111,-4.1111,-4.1108,-4.1108,-4.1108,-4.1108,-4.1108,-4.1108,-4.1108,-4.1108,-4.1108,-4.1108,-4.1108,-4.1108,-4.1108,-4.1108,-4.1108,-4.1108,-4.1108,-4.1108,-4.1108,-4.1108,-4.1108,-4.1108,-4.1108,-4.1108,-4.1108,-4.1108,-4.1108,-4.1108,-4.1108,-4.1108,-4.1108,-4.1108,-4.1108,-4.1127,-4.1225,-4.1576,-4.2259,-4.263,-4.3138,-4.3782,-4.4036,-4.4289,-4.4367,-4.4423,-4.4604,-4.4743,-4.4712,-4.4757,-4.4905,-4.5051,-4.523,-4.5152,-4.5041,-4.5219,-4.5669,-4.5886,-4.5897,-4.588,-4.5852,-4.5812,-4.5702,-4.5585,-4.5192,-4.5089,-4.4809,-4.4415,-4.4161,-4.4094,-4.4036,-4.3997,-4.366,-4.3149,-4.2905,-4.2744,-4.2309,-4.1914,-4.1493,-4.111,-4.1078,-4.1064,-4.1057,-4.1035,-4.0991,-4.0926,-3.9007,-3.9419,-3.9173,-3.9362,-3.9751,-3.9975,-4.0117,-4.0216,-4.0379,-4.0494,-4.0554,-4.0699,-4.0801,-4.089,-4.0954,-4.0998,-4.1007,-4.1069,-4.1092,-4.1094,-4.1105,-4.1099,-4.1114,-4.1114,-4.1108,-4.1108,-4.1108,-4.1108,-4.1108,-4.1108,-4.1108,-4.1108,-4.1108,-4.1108,-4.1108,-4.1108,-4.1108,-4.1108,-4.1108,-4.1108,-4.1108,-4.1108,-4.1108,-4.1108,-4.1108,-4.1108,-4.1108,-4.1111,-4.1114,-4.1114,-4.1114,-4.1111,-4.1114,-4.1114,-4.1114,-4.1114,-4.1114,-4.1114,-4.1114,-4.1111,-4.1108,-4.1108,-4.1186,-4.1283,-4.1342,-4.1967,-4.2337,-4.2689,-4.3313,-4.3997,-4.4582,-4.4953,-4.5187,-4.5304,-4.5274,-4.5267,-4.5359,-4.5317,-4.5382,-4.5543,-4.5603,-4.5603,-4.5651,-4.5452,-4.5409,-4.5783,-4.5863,-4.5875,-4.5929,-4.592,-4.5994,-4.6008,-4.6133,-4.6054,-4.6101,-4.5812,-4.5398,-4.5184,-4.5102,-4.5004,-4.491,-4.4493,-4.4196,-4.3778,-4.3558,-4.3027,-4.2554,-4.2212,-4.1805,-4.1311,-4.1104,-4.1091,-4.1084,-4.105,-4.1015,-3.9637,-3.996,-3.9958,-3.9986,-3.9993,-4.0204,-4.0318,-4.0417,-4.0607,-4.0694,-4.0731,-4.0866,-4.094,-4.0964,-4.0983,-4.103,-4.1069,-4.1093,-4.1112,-4.1105,-4.1114,-4.1111,-4.1108,-4.1108,-4.1108,-4.1108,-4.1108,-4.1108,-4.1108,-4.1108,-4.1108,-4.1108,-4.1108,-4.1108,-4.1108,-4.1108,-4.1108,-4.1108,-4.1108,-4.1108,-4.1108,-4.1108,-4.1108,-4.1108,-4.1108,-4.1108,-4.1111,-4.1105,-4.1105,-4.1103,-4.1101,-4.1121,-4.1121,-4.1121,-4.1121,-4.1121,-4.1121,-4.1101,-4.1099,-4.1114,-4.1108,-4.1244,-4.1537,-4.1888,-4.1911,-4.2689,-4.345,-4.3899,-4.425,-4.4859,-4.5578,-4.5792,-4.5925,-4.6143,-4.6131,-4.5978,-4.5852,-4.5723,-4.5637,-4.5603,-4.562,-4.5637,-4.5719,-4.5752,-4.5761,-4.5814,-4.5841,-4.5875,-4.5949,-4.5996,-4.6064,-4.6112,-4.6211,-4.6269,-4.6277,-4.628,-4.63,-4.6144,-4.5968,-4.5773,-4.5578,-4.5753,-4.5414,-4.4922,-4.4391,-4.3977,-4.3519,-4.3022,-4.2426,-4.1674,-4.1273,-4.1104,-4.1104,-4.1098,-4.1071,-4.0061,-4.0288,-4.0443,-4.0387,-4.0253,-4.0429,-4.0558,-4.0636,-4.0752,-4.0846,-4.0893,-4.0974,-4.0994,-4.1013,-4.1043,-4.1052,-4.1093,-4.111,-4.1105,-4.1116,-4.1111,-4.1108,-4.1108,-4.1108,-4.1108,-4.1108,-4.1108,-4.1108,-4.1108,-4.1108,-4.1108,-4.1108,-4.1108,-4.1108,-4.1108,-4.1108,-4.1108,-4.1108,-4.1108,-4.1108,-4.1108,-4.1108,-4.1108,-4.1108,-4.1108,-4.1108,-4.1116,-4.1128,-4.1132,-4.1131,-4.113,-4.113,-4.113,-4.113,-4.1133,-4.1133,-4.1147,-4.1126,-4.1144,-4.1099,-4.1247,-4.1599,-4.1967,-4.2415,-4.2907,-4.3554,-4.4301,-4.4731,-4.5138,-4.5643,-4.6303,-4.6202,-4.6163,-4.6249,-4.6131,-4.5987,-4.5886,-4.5775,-4.568,-4.562,-4.5654,-4.5715,-4.578,-4.5873,-4.5936,-4.5968,-4.6035,-4.6068,-4.6091,-4.6112,-4.6131,-4.6176,-4.6211,-4.6245,-4.6277,-4.6277,-4.63,-4.628,-4.6144,-4.6183,-4.6144,-4.63,-4.6261,-4.5691,-4.5219,-4.4903,-4.4489,-4.3973,-4.2949,-4.1847,-4.1465,-4.1103,-4.1109,-4.1109,-4.1109,-4.0304,-4.0476,-4.0515,-4.05,-4.0516,-4.0703,-4.081,-4.0861,-4.0897,-4.0909,-4.0918,-4.0962,-4.0996,-4.1013,-4.1074,-4.1091,-4.1101,-4.1116,-4.1111,-4.1111,-4.1108,-4.1108,-4.1108,-4.1108,-4.1108,-4.1108,-4.1108,-4.1108,-4.1108,-4.1108,-4.1108,-4.1108,-4.1108,-4.1108,-4.1108,-4.1108,-4.1108,-4.1108,-4.1108,-4.1108,-4.1108,-4.1108,-4.1108,-4.1108,-4.1108,-4.1108,-4.1116,-4.1168,-4.1172,-4.1172,-4.1172,-4.1172,-4.1191,-4.1191,-4.1191,-4.1191,-4.1269,-4.1304,-4.1302,-4.1214,-4.168,-4.2324,-4.2753,-4.3085,-4.369,-4.4399,-4.4993,-4.5364,-4.5716,-4.6083,-4.629,-4.63,-4.6303,-4.6269,-4.6138,-4.6041,-4.5929,-4.5859,-4.5761,-4.5688,-4.5752,-4.5827,-4.5879,-4.5938,-4.6041,-4.6131,-4.6216,-4.6245,-4.6221,-4.6216,-4.6211,-4.6211,-4.624,-4.6249,-4.6277,-4.628,-4.63,-4.63,-4.63,-4.63,-4.63,-4.63,-4.6241,-4.6144,-4.5945,-4.5551,-4.5258,-4.4946,-4.3903,-4.2861,-4.1583,-4.1106,-4.1111,-4.1111,-4.1106,-4.0543,-4.0764,-4.0766,-4.081,-4.0824,-4.0849,-4.09,-4.0955,-4.0963,-4.0964,-4.0972,-4.1033,-4.1052,-4.1066,-4.1086,-4.1099,-4.1111,-4.1108,-4.1108,-4.1108,-4.1108,-4.1108,-4.1108,-4.1108,-4.1108,-4.1108,-4.1108,-4.1108,-4.1108,-4.1108,-4.1108,-4.1108,-4.1108,-4.1108,-4.1108,-4.1108,-4.1108,-4.1108,-4.1108,-4.1108,-4.1108,-4.1108,-4.1111,-4.1111,-4.1108,-4.1111,-4.1114,-4.117,-4.1191,-4.1191,-4.1191,-4.1191,-4.123,-4.125,-4.1269,-4.1406,-4.1582,-4.2324,-4.2655,-4.2888,-4.2944,-4.3351,-4.372,-4.4089,-4.463,-4.5369,-4.5731,-4.584,-4.6055,-4.6289,-4.6306,-4.6293,-4.6284,-4.6273,-4.6181,-4.6105,-4.6024,-4.5929,-4.5852,-4.5801,-4.5825,-4.5919,-4.5998,-4.6119,-4.6203,-4.6382,-4.6507,-4.6355,-4.6292,-4.6273,-4.6273,-4.6273,-4.6277,-4.6277,-4.63,-4.63,-4.63,-4.63,-4.63,-4.63,-4.63,-4.63,-4.628,-4.6222,-4.6222,-4.6183,-4.5812,-4.5418,-4.491,-4.3966,-4.2748,-4.19,-4.192,-4.1603,-4.1111,-4.0751,-4.0887,-4.0926,-4.0977,-4.1001,-4.0946,-4.0976,-4.1042,-4.1037,-4.1035,-4.1058,-4.1091,-4.1111,-4.1111,-4.1108,-4.1108,-4.1108,-4.1108,-4.1108,-4.1108,-4.1108,-4.1108,-4.1108,-4.1108,-4.1108,-4.1108,-4.1108,-4.1108,-4.1108,-4.1108,-4.1108,-4.1108,-4.1108,-4.1108,-4.1108,-4.1108,-4.1108,-4.1108,-4.1108,-4.1108,-4.1111,-4.1114,-4.1114,-4.1111,-4.1111,-4.1114,-4.1125,-4.1172,-4.1211,-4.123,-4.123,-4.123,-4.1289,-4.1562,-4.1641,-4.1894,-4.2402,-4.3223,-4.3867,-4.4082,-4.4219,-4.4686,-4.4961,-4.5133,-4.5401,-4.593,-4.6129,-4.623,-4.6289,-4.6289,-4.6289,-4.6289,-4.629,-4.6284,-4.6245,-4.6156,-4.6091,-4.6007,-4.5949,-4.592,-4.6017,-4.6088,-4.6216,-4.6284,-4.6386,-4.6589,-4.6788,-4.6632,-4.6495,-4.6515,-4.6475,-4.6436,-4.6378,-4.6339,-4.6319,-4.63,-4.63,-4.63,-4.63,-4.63,-4.63,-4.63,-4.63,-4.63,-4.628,-4.6241,-4.6183,-4.5851,-4.5476,-4.491,-4.4025,-4.3357,-4.2943,-4.2295,-4.1612,-4.0887,-4.0906,-4.0996,-4.1033,-4.1092,-4.1026,-4.1033,-4.11,-4.1101,-4.1099,-4.1085,-4.1081,-4.1081,-4.1085,-4.1108,-4.1108,-4.1108,-4.1108,-4.1108,-4.1108,-4.1108,-4.1108,-4.1108,-4.1108,-4.1108,-4.1108,-4.1108,-4.1108,-4.1108,-4.1108,-4.1108,-4.1108,-4.1108,-4.1108,-4.1108,-4.1108,-4.1108,-4.1108,-4.1108,-4.1108,-4.1111,-4.1099,-4.1099,-4.1119,-4.1138,-4.1144,-4.1211,-4.1308,-4.1367,-4.1387,-4.1426,-4.1387,-4.168,-4.2344,-4.2519,-4.2851,-4.3379,-4.4121,-4.4863,-4.5019,-4.5312,-4.5625,-4.541,-4.5683,-4.5937,-4.6191,-4.6269,-4.6289,-4.6289,-4.6289,-4.6289,-4.6289,-4.6303,-4.6295,-4.6284,-4.6221,-4.6164,-4.6091,-4.6049,-4.6088,-4.6266,-4.6398,-4.6587,-4.6671,-4.7081,-4.7373,-4.7569,-4.7393,-4.7237,-4.7042,-4.6963,-4.669,-4.6593,-4.6417,-4.6378,-4.6358,-4.63,-4.63,-4.63,-4.63,-4.63,-4.63,-4.63,-4.63,-4.63,-4.6261,-4.6222,-4.6222,-4.6183,-4.5554,-4.491,-4.4438,-4.3907,-4.3072,-4.2409,-4.0958,-4.1054,-4.1054,-4.1109,-4.1152,-4.1048,-4.1053,-4.1093,-4.1051,-4.1039,-4.1019,-4.1017,-4.1028,-4.1022,-4.1074,-4.1108,-4.1108,-4.1108,-4.1108,-4.1108,-4.1108,-4.1108,-4.1108,-4.1108,-4.1108,-4.1108,-4.1108,-4.1108,-4.1108,-4.1108,-4.1108,-4.1108,-4.1108,-4.1108,-4.1108,-4.1108,-4.1108,-4.1108,-4.1108,-4.1108,-4.1111,-4.1116,-4.1142,-4.1245,-4.1289,-4.1328,-4.1465,-4.1855,-4.2012,-4.209,-4.2656,-4.293,-4.3047,-4.334,-4.3516,-4.4258,-4.4609,-4.5,-4.5723,-4.5898,-4.6016,-4.6191,-4.5976,-4.6055,-4.625,-4.6289,-4.6289,-4.6289,-4.6289,-4.6289,-4.6289,-4.6289,-4.6305,-4.6297,-4.6306,-4.6273,-4.6211,-4.6206,-4.6189,-4.6482,-4.6635,-4.7011,-4.7174,-4.7647,-4.8037,-4.831,-4.8408,-4.8291,-4.8057,-4.7881,-4.7588,-4.7295,-4.7178,-4.712,-4.6593,-4.6456,-4.6358,-4.63,-4.6319,-4.6319,-4.63,-4.63,-4.63,-4.63,-4.63,-4.63,-4.628,-4.6303,-4.6306,-4.6303,-4.5773,-4.5343,-4.4816,-4.3957,-4.3333,-4.1035,-4.1098,-4.1129,-4.1132,-4.114,-4.1025,-4.0978,-4.1013,-4.0937,-4.0949,-4.0979,-4.0987,-4.1025,-4.1037,-4.1081,-4.1108,-4.1108,-4.1108,-4.1108,-4.1108,-4.1108,-4.1108,-4.1108,-4.1108,-4.1108,-4.1108,-4.1108,-4.1108,-4.1108,-4.1108,-4.1108,-4.1108,-4.1108,-4.1108,-4.1108,-4.1108,-4.1108,-4.1108,-4.1108,-4.1108,-4.1133,-4.1191,-4.1328,-4.1641,-4.168,-4.1816,-4.2129,-4.2715,-4.2851,-4.291,-4.3555,-4.3672,-4.3789,-4.3984,-4.4609,-4.5273,-4.5508,-4.5723,-4.6133,-4.623,-4.6269,-4.6289,-4.6289,-4.6289,-4.6269,-4.6289,-4.6289,-4.6289,-4.6289,-4.6289,-4.6289,-4.6288,-4.6303,-4.6295,-4.629,-4.63,-4.63,-4.63,-4.653,-4.6862,-4.7233,-4.7643,-4.8076,-4.8584,-4.8974,-4.9208,-4.9462,-4.9579,-4.9247,-4.8857,-4.8486,-4.8115,-4.8017,-4.7939,-4.7357,-4.6876,-4.6837,-4.6719,-4.6397,-4.6397,-4.6339,-4.63,-4.6303,-4.6303,-4.63,-4.63,-4.6303,-4.629,-4.6293,-4.629,-4.6306,-4.5929,-4.5421,-4.4836,-4.4348,-4.1114,-4.1102,-4.1169,-4.1144,-4.1059,-4.0943,-4.0881,-4.0876,-4.078,-4.0839,-4.0929,-4.0986,-4.098,-4.0992,-4.1013,-4.1051,-4.1046,-4.1046,-4.1074,-4.1104,-4.1078,-4.1078,-4.1108,-4.1108,-4.1108,-4.1108,-4.1108,-4.1108,-4.1108,-4.1108,-4.1108,-4.1108,-4.1108,-4.1108,-4.1108,-4.1108,-4.1205,-4.1479,-4.1443,-4.1423,-4.1375,-4.1426,-4.166,-4.2363,-4.2598,-4.2793,-4.3398,-4.3711,-4.3808,-4.3808,-4.3945,-4.4062,-4.4355,-4.4707,-4.5527,-4.5859,-4.6074,-4.6152,-4.625,-4.6289,-4.6289,-4.6289,-4.6289,-4.6289,-4.6289,-4.6289,-4.6289,-4.6289,-4.6289,-4.6289,-4.6289,-4.6289,-4.6306,-4.6297,-4.629,-4.6303,-4.63,-4.6534,-4.7081,-4.751,-4.8154,-4.8545,-4.8915,-4.9423,-4.9911,-5.0126,-5.0282,-5.0555,-5.0373,-4.9866,-4.9414,-4.8965,-4.8873,-4.874,-4.8254,-4.7826,-4.7571,-4.7313,-4.6861,-4.6443,-4.6351,-4.6309,-4.6303,-4.6287,-4.629,-4.6303,-4.6303,-4.629,-4.6295,-4.6301,-4.6295,-4.6306,-4.5929,-4.5444,-4.5291,-4.1111,-4.1103,-4.1066,-4.1013,-4.0943,-4.081,-4.072,-4.0662,-4.0602,-4.0668,-4.0776,-4.082,-4.0848,-4.0848,-4.0879,-4.0935,-4.0986,-4.098,-4.0998,-4.1037,-4.1042,-4.1055,-4.1085,-4.1108,-4.1108,-4.1108,-4.1108,-4.1108,-4.1108,-4.1108,-4.1108,-4.1108,-4.1111,-4.113,-4.1244,-4.1244,-4.1459,-4.2028,-4.2092,-4.2148,-4.2226,-4.2266,-4.248,-4.3105,-4.3476,-4.3535,-4.4023,-4.4414,-4.457,-4.4726,-4.5391,-4.5644,-4.5723,-4.5879,-4.6055,-4.625,-4.6289,-4.6289,-4.6289,-4.6289,-4.6289,-4.6289,-4.6289,-4.6289,-4.6289,-4.6289,-4.6289,-4.6289,-4.6289,-4.6289,-4.6289,-4.6289,-4.6288,-4.6301,-4.6309,-4.6303,-4.6339,-4.6983,-4.7627,-4.833,-4.9032,-4.9442,-4.9774,-5.0223,-5.075,-5.0984,-5.1063,-5.1167,-5.1091,-5.0742,-5.0308,-4.9917,-4.9746,-4.9531,-4.9121,-4.869,-4.8396,-4.7928,-4.7459,-4.6953,-4.6459,-4.6319,-4.6278,-4.6297,-4.6297,-4.6295,-4.629,-4.6303,-4.6293,-4.6303,-4.6303,-4.6295,-4.629,-4.5919,-4.5961,-4.1113,-4.1083,-4.1003,-4.0921,-4.0822,-4.07,-4.0623,-4.0598,-4.0577,-4.0588,-4.0615,-4.0692,-4.0749,-4.0726,-4.0791,-4.082,-4.0898,-4.0906,-4.0968,-4.1017,-4.1037,-4.1074,-4.1085,-4.1108,-4.1108,-4.1108,-4.1108,-4.1108,-4.1108,-4.1108,-4.1108,-4.115,-4.1153,-4.1331,-4.156,-4.1755,-4.2106,-4.2926,-4.2976,-4.3164,-4.3301,-4.332,-4.3476,-4.4023,-4.4297,-4.4414,-4.4922,-4.5351,-4.5469,-4.5605,-4.5996,-4.6133,-4.6152,-4.6191,-4.625,-4.6289,-4.6289,-4.6289,-4.6289,-4.6289,-4.6289,-4.6289,-4.6289,-4.6289,-4.6289,-4.6289,-4.6289,-4.6289,-4.6289,-4.6289,-4.6289,-4.6289,-4.6305,-4.6297,-4.6387,-4.644,-4.6983,-4.7725,-4.8466,-4.9267,-4.9774,-5.0067,-5.0426,-5.0791,-5.1203,-5.1187,-5.1342,-5.1346,-5.1344,-5.1338,-5.0973,-5.072,-5.0451,-5.0409,-5.023,-4.9696,-4.9161,-4.8654,-4.8103,-4.753,-4.7018,-4.6523,-4.6248,-4.625,-4.6269,-4.6306,-4.6303,-4.6289,-4.6289,-4.6288,-4.6306,-4.6301,-4.63,-4.6295,-4.6258,-4.1098,-4.1054,-4.0919,-4.0855,-4.0764,-4.0655,-4.0596,-4.0607,-4.0654,-4.062,-4.0519,-4.0629,-4.0703,-4.074,-4.0771,-4.0762,-4.0781,-4.0781,-4.0894,-4.0987,-4.1022,-4.1033,-4.1051,-4.1085,-4.1108,-4.1108,-4.1108,-4.1108,-4.1108,-4.1111,-4.1153,-4.1211,-4.1451,-4.1689,-4.2305,-4.2659,-4.2973,-4.3624,-4.3984,-4.4355,-4.4414,-4.4375,-4.4551,-4.4863,-4.5234,-4.5586,-4.6055,-4.6269,-4.6269,-4.6269,-4.623,-4.6269,-4.6289,-4.6289,-4.6289,-4.6289,-4.6289,-4.6289,-4.6289,-4.6289,-4.6289,-4.6289,-4.6289,-4.6289,-4.6289,-4.6289,-4.6289,-4.6289,-4.6289,-4.6289,-4.6289,-4.6303,-4.63,-4.6432,-4.6541,-4.7002,-4.7803,-4.8545,-4.9306,-5.0126,-5.0426,-5.0699,-5.0945,-5.1326,-5.1367,-5.1365,-5.134,-5.1324,-5.1308,-5.1274,-5.1118,-5.0985,-5.084,-5.0879,-5.0959,-5.0529,-4.9835,-4.9409,-4.8855,-4.8207,-4.7574,-4.6995,-4.6523,-4.6211,-4.623,-4.6308,-4.6308,-4.6289,-4.6289,-4.6367,-4.6289,-4.6289,-4.6305,-4.6303,-4.63,-4.1035,-4.0926,-4.079,-4.0707,-4.0706,-4.0617,-4.0588,-4.0588,-4.0543,-4.0508,-4.0523,-4.0519,-4.0545,-4.0554,-4.054,-4.0596,-4.0711,-4.0692,-4.074,-4.0829,-4.0894,-4.0961,-4.1017,-4.1078,-4.1108,-4.1111,-4.1111,-4.1111,-4.1189,-4.1177,-4.1472,-4.2031,-4.2148,-4.2558,-4.3301,-4.3574,-4.3848,-4.4473,-4.4824,-4.5137,-4.5488,-4.5449,-4.5391,-4.5703,-4.6074,-4.6152,-4.6269,-4.6289,-4.6289,-4.6289,-4.6303,-4.6297,-4.6297,-4.6301,-4.6306,-4.6289,-4.6289,-4.6289,-4.6289,-4.6289,-4.6289,-4.6289,-4.6289,-4.6289,-4.6289,-4.6289,-4.6289,-4.6289,-4.6289,-4.6289,-4.6301,-4.6295,-4.6329,-4.6716,-4.6944,-4.8115,-4.915,-4.9602,-5.0152,-5.0669,-5.1049,-5.1149,-5.1171,-5.1344,-5.131,-5.1301,-5.1297,-5.1269,-5.1245,-5.1222,-5.1198,-5.1181,-5.1147,-5.1089,-5.1054,-5.0918,-5.039,-5.0048,-4.9576,-4.8848,-4.8122,-4.7423,-4.6992,-4.6836,-4.6484,-4.6387,-4.6367,-4.6582,-4.6484,-4.6543,-4.6367,-4.6289,-4.6348,-4.6406,-4.6483]}]]